[[{"header":{"parameterUnit":"m.s-1","parameterCategory":1,"la1":30.6,"la2":28.766,"lo1":-90.7593,"lo2":-88.6598,"dy":0.0162,"dx":0.0183,"nx":116,"ny":114,"refTime":"2023-09-28T18:00:00:Z","depth":0,"parameterNumber":2,"parameterNumberName":"U-component_of_WINDS"},"data":[0.0,0.0,0.0,0.0,0.0,0.0,0.0,0.0,0.0,0.0,0.0,0.0,0.0,0.0,0.0,0.0,0.0,0.0,0.0,0.0,0.0,0.0,0.0,0.0,0.0,0.0,0.0,0.0,0.0,0.0,0.0,0.0,0.0,0.0,0.0,0.0,0.0,0.0,0.0,0.0,0.0,0.0,0.0,0.0,0.0,0.0,0.0,0.0,0.0,0.0,0.0,0.0,0.0,0.0,0.0,0.0,0.0,0.0,0.0,0.0,0.0,0.0,0.0,0.0,0.0,0.0,0.0,0.0,0.0,0.0,0.0,0.0,0.0,0.0,0.0,0.0,0.0,0.0,0.0,0.0,0.0,0.0,0.0,0.0,0.0,0.0,0.0,0.0,0.0,0.0,0.0,0.0,0.0,0.0,0.0,0.0,0.0,0.0,0.0,0.0,0.0,0.0,0.0,0.0,0.0,0.0,0.0,0.0,0.0,0.0,0.0,0.0,0.0,0.0,0.0,0.0,0.0,0.0,0.0,0.0,0.0,0.0,0.0,0.0,0.0,0.0,0.0,0.0,0.0,0.0,0.0,0.0,0.0,0.0,0.0,0.0,0.0,0.0,0.0,0.0,0.0,0.0,0.0,0.0,0.0,0.0,0.0,0.0,0.0,0.0,0.0,0.0,0.0,0.0,0.0,0.0,0.0,0.0,0.0,0.0,0.0,0.0,0.0,0.0,0.0,0.0,0.0,0.0,0.0,0.0,0.0,0.0,0.0,0.0,0.0,0.0,0.0,0.0,0.0,0.0,0.0,0.0,0.0,0.0,0.0,0.0,0.0,0.0,0.0,0.0,0.0,0.0,0.0,0.0,0.0,0.0,0.0,0.0,0.0,0.0,0.0,0.0,0.0,0.0,0.0,0.0,0.0,0.0,0.0,0.0,0.0,0.0,0.0,0.0,0.0,0.0,0.0,0.0,0.0,0.0,0.0,0.0,0.0,0.0,0.0,0.0,0.0,0.0,0.0,0.0,0.0,0.0,0.0,0.0,0.0,0.0,0.0,0.0,0.0,0.0,0.0,0.0,0.0,0.0,0.0,0.0,0.0,0.0,0.0,0.0,0.0,0.0,0.0,0.0,0.0,0.0,0.0,0.0,0.0,0.0,0.0,0.0,0.0,0.0,0.0,0.0,0.0,0.0,0.0,0.0,0.0,0.0,0.0,0.0,0.0,0.0,0.0,0.0,0.0,0.0,0.0,0.0,0.0,0.0,0.0,0.0,0.0,0.0,0.0,0.0,0.0,0.0,0.0,0.0,0.0,0.0,0.0,0.0,0.0,0.0,0.0,0.0,0.0,0.0,0.0,0.0,0.0,0.0,0.0,0.0,0.0,0.0,0.0,0.0,0.0,0.0,0.0,0.0,0.0,0.0,0.0,0.0,0.0,0.0,0.0,0.0,0.0,0.0,0.0,0.0,0.0,0.0,0.0,0.0,0.0,0.0,0.0,0.0,0.0,0.0,0.0,0.0,0.0,0.0,0.0,0.0,0.0,0.0,0.0,0.0,0.0,0.0,0.0,0.0,0.0,0.0,0.0,0.0,0.0,0.0,0.0,0.0,0.0,0.0,0.0,0.0,0.0,0.0,0.0,0.0,0.0,0.0,0.0,0.0,0.0,0.0,0.0,0.0,0.0,0.0,0.0,0.0,0.0,0.0,0.0,0.0,0.0,0.0,0.0,0.0,0.0,0.0,0.0,0.0,0.0,0.0,0.0,0.0,0.0,0.0,0.0,0.0,0.0,0.0,0.0,0.0,0.0,0.0,0.0,0.0,0.0,0.0,0.0,0.0,0.0,0.0,0.0,0.0,0.0,0.0,0.0,0.0,0.0,0.0,0.0,0.0,0.0,0.0,0.0,0.0,0.0,0.0,0.0,0.0,0.0,0.0,0.0,0.0,0.0,0.0,0.0,0.0,0.0,0.0,0.0,0.0,0.0,0.0,0.0,0.0,0.0,0.0,0.0,0.0,0.0,0.0,0.0,0.0,0.0,0.0,0.0,0.0,0.0,0.0,0.0,0.0,0.0,0.0,0.0,0.0,0.0,0.0,0.0,0.0,0.0,0.0,0.0,0.0,0.0,0.0,0.0,0.0,0.0,0.0,0.0,0.0,0.0,0.0,0.0,0.0,0.0,0.0,0.0,0.0,0.0,0.0,0.0,0.0,0.0,0.0,0.0,0.0,0.0,0.0,0.0,0.0,0.0,0.0,0.0,0.0,0.0,0.0,0.0,0.0,0.0,0.0,0.0,0.0,0.0,0.0,0.0,0.0,0.0,0.0,0.0,0.0,0.0,0.0,0.0,0.0,0.0,0.0,0.0,0.0,0.0,0.0,0.0,0.0,0.0,0.0,0.0,0.0,0.0,0.0,0.0,0.0,0.0,0.0,0.0,0.0,0.0,0.0,0.0,0.0,0.0,0.0,0.0,0.0,0.0,0.0,0.0,0.0,0.0,0.0,0.0,0.0,0.0,0.0,0.0,0.0,0.0,0.0,0.0,0.0,0.0,0.0,0.0,0.0,0.0,0.0,0.0,0.0,0.0,0.0,0.0,0.0,0.0,0.0,0.0,0.0,0.0,0.0,0.0,0.0,0.0,0.0,0.0,0.0,0.0,0.0,0.0,0.0,0.0,0.0,0.0,0.0,0.0,0.0,0.0,0.0,0.0,0.0,0.0,0.0,0.0,0.0,0.0,0.0,0.0,0.0,0.0,0.0,0.0,0.0,0.0,0.0,0.0,0.0,0.0,0.0,0.0,0.0,0.0,0.0,0.0,0.0,0.0,0.0,0.0,0.0,0.0,0.0,0.0,0.0,0.0,0.0,0.0,0.0,0.0,0.0,0.0,0.0,0.0,0.0,0.0,0.0,0.0,0.0,0.0,0.0,0.0,0.0,0.0,0.0,0.0,0.0,0.0,0.0,0.0,0.0,0.0,0.0,0.0,0.0,0.0,0.0,0.0,0.0,0.0,0.0,0.0,0.0,0.0,0.0,0.0,0.0,0.0,0.0,0.0,0.0,0.0,0.0,0.0,0.0,0.0,0.0,0.0,0.0,0.0,0.0,0.0,0.0,0.0,0.0,0.0,0.0,0.0,0.0,0.0,0.0,0.0,0.0,0.0,0.0,0.0,0.0,0.0,0.0,0.0,0.0,0.0,0.0,0.0,0.0,0.0,0.0,0.0,0.0,0.0,0.0,0.0,0.0,0.0,0.0,0.0,0.0,0.0,0.0,0.0,0.0,0.0,0.0,0.0,0.0,0.0,0.0,0.0,0.0,0.0,0.0,0.0,0.0,0.0,0.0,0.0,0.0,0.0,0.0,0.0,0.0,0.0,0.0,0.0,0.0,0.0,0.0,0.0,0.0,0.0,0.0,0.0,0.0,0.0,0.0,0.0,0.0,0.0,0.0,0.0,0.0,0.0,0.0,0.0,0.0,0.0,0.0,0.0,0.0,0.0,0.0,0.0,0.0,0.0,0.0,0.0,0.0,0.0,0.0,0.0,0.0,0.0,0.0,0.0,0.0,0.0,0.0,0.0,0.0,0.0,0.0,0.0,0.0,0.0,0.0,0.0,0.0,0.0,0.0,0.0,0.0,0.0,0.0,0.0,0.0,0.0,0.0,0.0,0.0,0.0,0.0,0.0,0.0,0.0,0.0,0.0,0.0,0.0,0.0,0.0,0.0,0.0,0.0,0.0,0.0,0.0,0.0,0.0,0.0,0.0,0.0,0.0,0.0,0.0,0.0,0.0,0.0,0.0,0.0,0.0,0.0,0.0,0.0,0.0,0.0,0.0,0.0,0.0,0.0,0.0,0.0,0.0,0.0,0.0,0.0,0.0,0.0,0.0,0.0,0.0,0.0,0.0,0.0,0.0,0.0,0.0,0.0,0.0,0.0,0.0,0.0,0.0,0.0,0.0,0.0,0.0,0.0,0.0,0.0,0.0,0.0,0.0,0.0,0.0,0.0,0.0,0.0,0.0,0.0,0.0,0.0,0.0,0.0,0.0,0.0,0.0,0.0,0.0,0.0,0.0,0.0,0.0,0.0,0.0,0.0,0.0,0.0,0.0,0.0,0.0,0.0,0.0,0.0,0.0,0.0,0.0,0.0,0.0,0.0,0.0,0.0,0.0,0.0,0.0,0.0,0.0,0.0,0.0,0.0,0.0,0.0,0.0,0.0,0.0,0.0,0.0,0.0,0.0,0.0,0.0,0.0,0.0,0.0,0.0,0.0,0.0,0.0,0.0,0.0,0.0,0.0,0.0,0.0,0.0,0.0,0.0,0.0,0.0,0.0,0.0,0.0,0.0,0.0,0.0,0.0,0.0,0.0,0.0,0.0,0.0,0.0,0.0,0.0,0.0,0.0,0.0,0.0,0.0,0.0,0.0,0.0,0.0,0.0,0.0,0.0,0.0,0.0,0.0,0.0,0.0,0.0,0.0,0.0,0.0,0.0,0.0,0.0,0.0,0.0,0.0,0.0,0.0,0.0,0.0,0.0,0.0,0.0,0.0,0.0,0.0,0.0,0.0,0.0,0.0,0.0,0.0,0.0,0.0,0.0,0.0,0.0,0.0,0.0,0.0,0.0,0.0,0.0,0.0,0.0,0.0,0.0,0.0,0.0,0.0,0.0,0.0,0.0,0.0,0.0,0.0,0.0,0.0,0.0,0.0,0.0,0.0,0.0,0.0,0.0,0.0,0.0,0.0,0.0,0.0,0.0,0.0,0.0,0.0,0.0,0.0,0.0,0.0,0.0,0.0,0.0,0.0,0.0,0.0,0.0,0.0,0.0,0.0,0.0,0.0,0.0,0.0,0.0,0.0,0.0,0.0,0.0,0.0,0.0,0.0,0.0,0.0,0.0,0.0,0.0,0.0,0.0,0.0,0.0,0.0,0.0,0.0,0.0,0.0,0.0,0.0,0.0,0.0,0.0,0.0,0.0,0.0,0.0,0.0,0.0,0.0,0.0,0.0,0.0,0.0,0.0,0.0,0.0,0.0,0.0,0.0,0.0,0.0,0.0,0.0,0.0,0.0,0.0,0.0,0.0,0.0,0.0,0.0,0.0,0.0,0.0,0.0,0.0,0.0,0.0,0.0,0.0,0.0,0.0,0.0,0.0,0.0,0.0,0.0,0.0,0.0,0.0,0.0,0.0,0.0,0.0,0.0,0.0,0.0,0.0,0.0,0.0,0.0,0.0,0.0,0.0,0.0,0.0,0.0,0.0,0.0,0.0,0.0,0.0,0.0,0.0,0.0,0.0,0.0,0.0,0.0,0.0,0.0,0.0,0.0,0.0,0.0,0.0,0.0,0.0,0.0,0.0,0.0,0.0,0.0,0.0,0.0,0.0,0.0,0.0,0.0,0.0,0.0,0.0,0.0,0.0,0.0,0.0,0.0,0.0,0.0,0.0,0.0,0.0,0.0,0.0,0.0,0.0,0.0,0.0,0.0,0.0,0.0,0.0,0.0,0.0,0.0,0.0,0.0,0.0,0.0,0.0,0.0,0.0,0.0,0.0,0.0,0.0,0.0,0.0,0.0,0.0,0.0,0.0,0.0,0.0,0.0,0.0,0.0,0.0,0.0,0.0,0.0,0.0,0.0,0.0,0.0,0.0,0.0,0.0,0.0,0.0,0.0,0.0,0.0,0.0,0.0,0.0,0.0,0.0,0.0,0.0,0.0,0.0,0.0,0.0,0.0,0.0,0.0,0.0,0.0,0.0,0.0,0.0,0.0,0.0,0.0,0.0,0.0,0.0,0.0,0.0,0.0,0.0,0.0,0.0,0.0,0.0,0.0,0.0,0.0,0.0,0.0,0.0,0.0,0.0,0.0,0.0,0.0,0.0,0.0,0.0,0.0,0.0,0.0,0.0,0.0,0.0,0.0,0.0,0.0,0.0,0.0,0.0,0.0,0.0,0.0,0.0,0.0,0.0,0.0,0.0,0.0,0.0,0.0,0.0,0.0,0.0,0.0,0.0,0.0,0.0,0.0,0.0,0.0,0.0,0.0,0.0,0.0,0.0,0.0,0.0,0.0,0.0,0.0,0.0,0.0,0.0,0.0,0.0,0.0,0.0,1.9099,0.0,0.0,0.0,0.0,0.0,0.0,0.0,0.0,0.0,0.0,0.0,0.0,0.0,0.0,0.0,0.0,0.0,0.0,0.0,0.0,0.0,0.0,0.0,0.0,0.0,0.0,0.0,0.0,0.0,0.0,0.0,0.0,0.0,0.0,0.0,0.0,0.0,0.0,1.9401,1.9401,1.9401,1.9401,1.9401,1.9401,1.9401,0.0,0.0,0.0,0.0,0.0,0.0,0.0,0.0,0.0,0.0,0.0,0.0,0.0,0.0,0.0,0.0,0.0,0.0,0.0,0.0,0.0,0.0,0.0,0.0,0.0,0.0,0.0,0.0,0.0,0.0,0.0,0.0,0.0,0.0,0.0,0.0,0.0,0.0,0.0,0.0,0.0,0.0,0.0,0.0,0.0,0.0,0.0,0.0,0.0,0.0,0.0,0.0,0.0,0.0,0.0,0.0,0.0,0.0,0.0,0.0,0.0,0.0,0.0,0.0,0.0,0.0,0.0,0.0,0.0,0.0,0.0,2.0006,0.0,0.0,0.0,0.0,0.0,0.0,0.0,0.0,0.0,0.0,0.0,0.0,0.0,0.0,0.0,0.0,0.0,0.0,0.0,0.0,0.0,0.0,0.0,1.8571,1.8584,1.8637,1.8865,1.8998,0.0,0.0,0.0,0.0,0.0,0.0,1.9401,1.9401,1.9401,1.9401,1.9401,1.9401,1.9401,1.9401,1.9401,1.9401,1.9401,0.0,0.0,0.0,0.0,0.0,0.0,0.0,0.0,0.0,0.0,0.0,0.0,0.0,0.0,0.0,0.0,0.0,0.0,0.0,0.0,0.0,0.0,0.0,0.0,0.0,0.0,0.0,0.0,0.0,0.0,0.0,0.0,0.0,0.0,0.0,0.0,0.0,0.0,0.0,0.0,0.0,0.0,0.0,0.0,0.0,0.0,0.0,0.0,0.0,0.0,0.0,0.0,0.0,0.0,0.0,0.0,0.0,0.0,0.0,0.0,0.0,0.0,0.0,2.1162,2.1189,2.1189,2.1243,2.1269,2.1269,2.1269,2.1229,2.1094,0.0,0.0,0.0,0.0,0.0,0.0,0.0,0.0,0.0,0.0,0.0,0.0,0.0,0.0,0.0,0.0,0.0,0.0,0.0,0.0,1.8584,1.881,1.8836,1.8971,1.9254,1.9321,1.9334,1.9334,0.0,0.0,0.0,0.0,1.9401,1.9401,1.9401,1.9401,1.9401,1.9401,1.9401,1.9401,1.9401,1.9401,1.9401,1.9401,1.9401,1.9401,0.0,0.0,0.0,0.0,0.0,0.0,0.0,0.0,0.0,0.0,0.0,0.0,0.0,0.0,0.0,0.0,0.0,0.0,0.0,0.0,0.0,0.0,0.0,0.0,0.0,0.0,0.0,0.0,0.0,0.0,0.0,0.0,0.0,0.0,0.0,0.0,0.0,0.0,0.0,0.0,0.0,1.749,1.7525,0.0,0.0,0.0,0.0,0.0,0.0,0.0,0.0,0.0,0.0,0.0,0.0,0.0,1.9294,2.1024,2.1096,2.1109,2.1109,2.1408,2.1529,2.1542,2.1796,2.1871,2.1871,2.1871,0.0,2.1542,2.1535,0.0,0.0,0.0,0.0,0.0,0.0,0.0,0.0,0.0,0.0,0.0,0.0,0.0,0.0,0.0,0.0,0.0,0.0,0.0,0.0,0.0,1.9172,1.9225,1.9388,1.9401,1.9401,1.9401,1.9401,0.0,0.0,1.9401,1.9401,1.9401,1.9401,1.9401,1.9401,1.9401,1.9401,1.9401,1.9401,1.9401,1.9401,1.9401,1.9401,1.9401,1.9401,0.0,0.0,0.0,0.0,0.0,0.0,0.0,0.0,0.0,0.0,0.0,0.0,0.0,0.0,0.0,0.0,0.0,0.0,0.0,0.0,0.0,0.0,0.0,0.0,0.0,0.0,0.0,0.0,0.0,0.0,0.0,0.0,0.0,0.0,0.0,0.0,0.0,0.0,0.0,1.7418,1.8287,1.9353,1.7991,1.7008,0.0,0.0,0.0,0.0,0.0,0.0,0.0,0.0,0.0,1.9973,2.0157,2.0599,2.1363,2.1523,2.1603,2.1603,2.1737,2.1823,2.1836,2.1957,2.1991,2.1991,2.2164,2.2151,2.2031,2.2004,2.1991,2.1991,0.0,0.0,0.0,0.0,2.2231,2.2258,0.0,0.0,0.0,0.0,0.0,0.0,0.0,0.0,0.0,0.0,0.0,0.0,1.9401,1.9401,1.9401,1.9401,1.9401,1.9401,1.9401,1.9401,1.9401,1.9401,1.9401,1.9401,1.9401,1.9401,1.9401,1.9401,1.9401,1.9401,1.9401,1.9401,1.9401,1.9401,1.9401,1.9401,1.9401,1.9401,1.9401,1.9401,0.0,0.0,0.0,0.0,0.0,0.0,0.0,0.0,0.0,0.0,0.0,0.0,0.0,0.0,0.0,0.0,0.0,0.0,0.0,0.0,0.0,0.0,0.0,0.0,0.0,0.0,0.0,0.0,0.0,0.0,0.0,0.0,0.0,0.0,0.0,0.0,0.0,1.8432,1.9243,2.0637,1.9669,1.8945,0.0,0.0,0.0,0.0,0.0,0.0,2.1229,2.1296,2.1336,2.1336,2.1582,2.1703,2.1703,2.1917,2.1991,2.1991,2.2058,2.2098,2.2098,2.2178,2.2238,2.2251,2.2445,2.2539,2.2512,2.2298,2.2238,2.2238,2.2238,2.2238,2.2231,2.2458,2.2539,2.2565,0.0,0.0,0.0,0.0,0.0,0.0,0.0,0.0,0.0,0.0,0.0,1.9401,1.9401,1.9401,1.9401,1.9401,1.9401,1.9401,1.9401,1.9401,1.9401,1.9401,1.9401,1.9401,1.9401,1.9401,1.9401,1.9401,1.9401,1.9401,1.9401,1.9401,1.9401,1.9401,1.9401,1.9401,1.9401,1.9401,1.9401,1.9401,1.9401,0.0,0.0,0.0,0.0,0.0,0.0,0.0,0.0,0.0,0.0,0.0,0.0,0.0,0.0,0.0,0.0,0.0,0.0,0.0,0.0,0.0,0.0,0.0,0.0,0.0,0.0,0.0,0.0,0.0,0.0,0.0,0.0,0.0,0.0,0.0,0.0,0.0,0.0,2.1051,2.0987,0.0,0.0,0.0,0.0,2.0982,2.1344,2.1569,2.1569,2.1823,2.1937,2.1937,2.1951,2.1964,2.1964,2.1977,2.1991,2.1991,2.2258,2.2392,2.2371,2.2719,2.2853,2.2853,2.2867,2.288,2.288,2.2853,2.2853,2.2853,2.2853,2.2853,2.2853,2.2867,2.288,2.288,0.0,0.0,0.0,0.0,0.0,0.0,0.0,0.0,1.9401,1.9401,1.9401,1.9401,1.9401,1.9401,1.9401,1.9401,1.9401,1.9401,1.9401,1.9401,1.9401,1.9401,1.9401,1.9401,1.9401,1.9401,1.9401,1.9401,1.9401,1.9401,1.9401,1.9401,1.9401,1.9401,1.9401,1.9401,1.9401,1.9401,1.9401,1.9401,1.9401,1.9401,0.0,0.0,0.0,0.0,0.0,0.0,0.0,0.0,0.0,0.0,0.0,0.0,0.0,0.0,0.0,0.0,0.0,0.0,0.0,0.0,0.0,0.0,0.0,0.0,0.0,0.0,0.0,0.0,0.0,0.0,0.0,0.0,0.0,0.0,0.0,0.0,0.0,2.1408,2.1422,0.0,2.1657,2.167,2.167,2.167,2.181,2.1863,2.1863,2.1957,2.1991,2.1991,2.2164,2.2258,2.2258,2.2458,2.2693,2.2846,2.2918,2.31,2.3287,2.3429,2.3482,2.3482,2.3482,2.3482,2.3482,2.3482,2.3255,2.2893,2.2893,2.3014,2.3166,2.3166,2.3287,2.3482,0.0,0.0,0.0,0.0,0.0,0.0,0.0,0.0,1.9401,1.9401,1.9401,1.9401,1.9401,1.9401,1.9401,1.9401,1.9401,1.9401,1.9401,1.9401,1.9401,1.9401,1.9401,1.9401,1.9401,1.9401,1.9401,1.9401,1.9401,1.9401,1.9401,1.9401,1.9401,1.9401,1.9401,1.9401,1.9401,1.9401,1.9401,1.9401,1.9401,1.9401,1.9401,0.0,0.0,0.0,0.0,0.0,0.0,0.0,0.0,0.0,0.0,0.0,0.0,0.0,0.0,0.0,0.0,0.0,0.0,0.0,0.0,0.0,0.0,0.0,0.0,0.0,0.0,0.0,0.0,0.0,0.0,0.0,0.0,0.0,0.0,0.0,2.1483,2.1703,2.1729,2.181,2.1964,2.1991,2.1991,2.1991,2.2071,2.2178,2.2305,2.2378,2.2485,2.2612,2.2779,2.2873,2.2873,2.3108,2.3308,2.3474,2.3474,2.3581,2.3803,2.3803,2.3803,2.3803,2.3803,2.3803,2.3803,2.3803,2.3629,2.3335,2.3241,2.33,2.3474,2.3474,2.3607,2.3803,0.0,0.0,0.0,0.0,0.0,0.0,1.9401,1.9401,1.9401,1.9401,1.9401,1.9401,1.9401,1.9401,1.9401,1.9401,1.9401,1.9401,1.9401,1.9401,1.9401,1.9401,1.9401,1.9401,1.9401,1.9401,1.9401,1.9401,1.9401,1.9401,1.9401,1.9401,1.9401,1.9401,1.9401,1.9401,1.9401,1.9401,1.9401,1.9401,1.9401,1.9401,1.9401,0.0,0.0,0.0,0.0,0.0,0.0,0.0,0.0,0.0,0.0,0.0,0.0,0.0,0.0,0.0,0.0,0.0,0.0,0.0,0.0,0.0,0.0,0.0,0.0,0.0,0.0,0.0,0.0,0.0,0.0,0.0,0.0,0.0,2.1991,2.1991,2.1991,2.1991,2.2004,2.2004,2.2031,2.2031,2.2031,2.2077,2.2298,2.2592,2.2907,2.318,2.3474,2.3803,2.3817,2.3817,2.3817,2.383,2.3843,2.3843,2.3843,2.3857,2.3857,2.3857,2.3857,2.3857,2.3857,2.3857,2.3857,2.3857,2.4031,2.4209,2.3901,2.383,2.3843,2.3843,2.3857,2.3857,0.0,0.0,0.0,0.0,0.0,0.0,1.9401,1.9401,1.9401,1.9401,1.9401,1.9401,1.9401,1.9401,1.9401,1.9401,1.9401,1.9401,1.9401,1.9401,1.9401,1.9401,1.9401,1.9401,1.9401,1.9401,1.9401,1.9401,1.9401,1.9401,1.9401,1.9401,1.9401,1.9401,1.9401,1.9401,1.9401,1.9401,1.9401,1.9401,1.9401,1.9401,1.9401,0.0,0.0,0.0,0.0,0.0,0.0,0.0,0.0,0.0,0.0,0.0,0.0,0.0,0.0,0.0,0.0,0.0,0.0,0.0,0.0,0.0,0.0,0.0,0.0,0.0,0.0,0.0,0.0,0.0,0.0,0.0,0.0,2.2505,2.2044,2.1991,2.2071,2.2271,2.2298,2.2472,2.2913,2.2953,2.3046,2.3295,2.3354,2.3469,2.3549,2.3643,2.3688,2.3803,2.3981,2.4088,2.4088,2.4289,2.4502,2.4753,2.4753,2.4836,2.5037,2.5037,2.5037,2.5037,2.5037,2.5037,2.5037,2.5037,2.5077,2.5077,2.4369,2.4342,2.4753,2.4753,2.485,2.5037,0.0,0.0,0.0,0.0,0.0,0.0,1.9401,1.9401,1.9401,1.9401,1.9401,1.9401,1.9401,1.9401,1.9401,1.9401,1.9401,1.9401,1.9401,1.9401,1.9401,1.9401,1.9401,1.9401,1.9401,1.9401,1.9401,1.9401,1.9401,1.9401,1.9401,1.9401,1.9401,1.9401,1.9401,1.9401,1.9401,1.9401,1.9401,1.9401,1.9535,1.9508,1.9401,1.9401,1.9468,1.9575,1.9575,1.9733,1.9987,1.9987,0.0,0.0,0.0,0.0,0.0,0.0,0.0,0.0,0.0,0.0,0.0,0.0,0.0,0.0,0.0,0.0,0.0,0.0,0.0,0.0,0.0,0.0,0.0,0.0,2.3,2.2939,2.2592,2.2552,2.2605,2.2745,2.2913,2.3126,2.3474,2.3514,2.3634,2.3928,2.3991,2.4098,2.4338,2.4352,2.4405,2.4502,2.4663,2.4756,2.4756,2.4917,2.5053,2.5264,2.5264,2.5344,2.5518,2.5518,2.5518,0.0,2.5518,2.5518,2.5518,2.5518,2.5585,0.0,0.0,0.0,0.0,0.0,2.5371,2.5518,0.0,0.0,0.0,0.0,0.0,0.0,1.9401,1.9401,1.9401,1.9401,1.9401,1.9401,1.9401,1.9401,1.9401,1.9401,1.9401,1.9401,1.9401,1.9401,1.9401,1.9401,1.9401,1.9401,1.9401,1.9401,1.9401,1.9401,1.9401,1.9415,1.9441,1.9441,1.9468,1.9495,1.9495,1.9495,1.9495,1.9495,1.9495,1.9522,1.9746,1.9679,1.9455,1.9481,1.9655,1.9853,1.9853,2.004,2.025,2.025,0.0,0.0,0.0,0.0,0.0,0.0,0.0,0.0,0.0,0.0,0.0,0.0,0.0,0.0,0.0,0.0,0.0,0.0,0.0,0.0,0.0,0.0,0.0,0.0,2.318,2.3359,2.3385,2.3425,2.3425,2.3399,2.3661,2.3884,2.395,2.395,2.4071,2.4329,2.4356,2.4583,2.5104,0.0,0.0,0.0,0.0,2.5558,2.5558,2.5598,2.5611,2.5611,2.5611,2.5611,2.5611,2.5611,2.5611,2.5611,2.5611,2.5611,2.5611,2.5611,2.5772,2.6011,2.5718,2.5611,2.5611,2.5611,2.5611,2.5611,0.0,0.0,0.0,0.0,0.0,0.0,1.9401,1.9401,1.9401,1.9401,1.9401,1.9401,1.9401,1.9401,1.9401,1.9401,1.9401,1.9401,1.9401,1.9401,1.9401,1.9401,1.9401,1.9401,1.9401,1.9401,1.9401,1.9401,1.9401,1.9522,1.972,1.972,1.984,2.0037,2.0037,2.0037,2.0037,2.0037,2.0037,2.0037,2.0104,1.9943,1.9746,1.9943,2.0064,2.0117,2.0117,2.0334,2.0588,2.0588,2.0748,2.0949,2.1002,2.1029,0.0,0.0,0.0,0.0,0.0,0.0,0.0,0.0,0.0,0.0,0.0,0.0,0.0,0.0,0.0,0.0,0.0,0.0,0.0,2.3233,2.3487,2.3768,2.3995,2.4199,2.4252,2.4062,2.4088,2.4302,2.4783,2.486,2.4943,2.5237,2.5264,2.5304,2.5424,2.5424,2.5451,2.5518,2.5745,2.5904,2.5904,2.6106,2.6226,2.6226,0.0,0.0,2.6226,2.6226,2.6226,2.6226,2.6226,2.6226,2.6226,2.6226,2.6253,2.6346,2.6239,2.6226,2.6226,2.6226,2.6226,2.6226,0.0,0.0,0.0,0.0,0.0,0.0,1.9401,1.9401,1.9401,1.9401,1.9401,1.9401,1.9401,1.9401,1.9401,1.9401,1.9401,1.9401,1.9401,1.9535,1.9615,1.9615,1.972,1.98,1.98,1.98,1.98,1.98,1.98,1.988,1.9983,1.9983,2.0064,2.0197,2.0197,2.0197,2.0197,2.0197,2.0197,2.021,2.0401,2.0374,2.0241,2.0197,2.029,2.0454,2.0454,2.0641,2.0895,2.0895,2.0989,2.1109,2.1109,2.1216,2.1395,0.0,0.0,0.0,0.0,0.0,0.0,0.0,0.0,0.0,0.0,0.0,0.0,0.0,0.0,2.314,2.3322,0.0,2.3594,2.3741,2.4008,2.4302,2.4596,2.489,2.497,2.4676,2.477,2.497,2.5264,2.5291,2.5411,2.5718,2.5732,2.5798,2.5945,2.5945,2.5945,2.5945,2.6092,2.6212,2.6212,2.6319,2.6386,2.6386,2.6386,2.6386,2.6386,2.6386,2.6386,2.6386,2.6386,2.6386,2.6386,2.6386,2.6386,2.6386,2.6386,2.6386,2.6386,2.6386,2.6386,2.6386,0.0,0.0,0.0,0.0,0.0,0.0,0.0,1.9401,1.9401,1.9401,1.9441,1.9481,1.9481,1.9535,1.9562,1.9562,1.9562,1.9562,1.9562,1.976,1.988,1.988,2.0077,2.0197,2.0197,2.0197,2.0197,2.0197,2.0197,2.0237,2.029,2.029,2.0317,2.037,2.037,2.037,2.037,2.037,2.037,2.0397,2.0668,2.0793,2.0766,2.0494,2.0548,2.0793,2.0793,2.0909,2.1109,2.1109,2.1149,2.1189,2.1189,2.1435,2.1676,2.1743,2.1917,0.0,0.0,0.0,0.0,0.0,0.0,0.0,0.0,2.2987,2.3081,2.3354,2.3425,2.3567,2.3843,2.3991,2.4138,2.4342,2.4623,2.4879,2.5248,2.5451,2.5531,2.5358,2.5491,2.5625,2.5678,2.5678,2.5785,2.6065,2.6078,2.6185,2.6373,2.6386,2.6386,2.6386,2.6386,2.6386,2.6386,2.6386,2.6386,2.6386,2.6386,2.6386,2.6386,2.6386,2.6386,2.6386,2.6386,2.6386,2.6386,2.6386,2.6426,2.6466,2.6466,2.6507,2.6547,2.6426,2.6386,2.6386,0.0,0.0,0.0,0.0,0.0,0.0,0.0,0.0,1.9401,1.9401,1.9615,1.976,1.976,1.9987,2.0104,2.0104,2.0104,2.0104,2.0104,2.0144,2.0157,2.0157,2.0184,2.0197,2.0197,2.0197,2.0197,2.0197,2.0197,2.0344,2.0628,2.0628,2.0762,2.1015,2.1015,2.1015,2.1015,2.1015,2.1015,2.1015,2.1042,2.1069,2.1056,2.1029,2.1029,2.1069,2.1069,2.1082,2.1109,2.1109,2.1315,2.1542,2.1542,2.1729,2.1991,2.2245,2.2352,2.2432,2.2773,2.2853,2.2853,2.2893,2.2893,2.2974,0.0,2.3273,2.3354,2.3696,2.3928,2.4115,2.4155,2.4583,2.4943,2.4983,2.5224,2.5518,2.585,2.5931,2.6024,2.6213,2.6078,2.6051,2.6266,2.6293,2.6306,2.6333,2.6346,2.636,2.6386,2.6386,2.6386,2.6386,2.6386,2.6386,2.6386,2.6386,2.6386,2.6386,2.6386,2.6386,2.6386,2.6386,2.6386,2.6386,2.6386,2.6386,2.6386,2.6386,2.6547,2.6774,2.6774,2.6934,2.7148,2.6587,2.6386,2.6386,0.0,0.0,0.0,0.0,0.0,0.0,0.0,0.0,1.9867,1.9867,1.9943,2.0024,2.0024,2.013,2.0197,2.0197,2.0197,2.0197,2.0197,2.0401,2.0494,2.0494,2.0655,2.0717,2.0717,2.0717,2.0717,2.0717,2.0717,2.0802,2.0922,2.0922,2.0989,2.1109,2.1109,2.1109,2.1109,2.1109,2.1109,2.1109,2.1109,2.1109,2.1109,2.1109,2.1216,2.1381,2.1176,2.1216,0.0,2.1395,2.1596,2.1836,2.1836,2.2004,2.2258,2.2378,2.2539,2.2699,2.2867,2.2893,2.2934,2.3086,2.314,2.3207,2.3514,2.3714,2.3915,2.4209,2.4516,2.477,2.493,2.517,2.5384,2.5596,2.573,2.5879,2.6212,2.6252,2.6253,2.6373,2.6279,2.6292,2.6373,2.6386,2.6386,2.6386,2.6386,2.6386,2.6386,2.6386,2.6386,2.6386,2.6386,2.6386,2.6386,2.6386,2.648,2.664,2.664,2.6734,2.6894,2.6894,2.6894,2.6894,2.6894,2.6894,2.6894,2.6894,2.7015,2.7081,2.7081,2.7202,2.7282,2.7028,2.6894,2.6894,0.0,0.0,0.0,0.0,0.0,0.0,0.0,0.0,0.0,0.0,2.0277,2.0357,2.0437,2.0437,2.0437,2.0437,2.0437,2.0437,2.0437,2.0681,2.0802,2.0802,2.1002,2.1109,2.1109,2.1109,2.1109,2.1109,2.1109,2.1109,2.1109,2.1109,2.1109,2.1109,2.1109,2.1109,2.1109,2.1109,2.1109,2.1109,2.1109,2.1162,2.1229,2.1229,2.1416,2.1662,2.1336,2.1448,2.1703,2.1703,2.1903,2.2111,2.2111,2.2298,2.2539,2.2539,2.2752,2.3027,2.3027,2.3081,2.3201,2.3394,2.3479,2.3647,2.3941,2.4235,2.4529,2.4786,2.5117,2.5422,2.5598,2.5705,2.5825,2.6078,2.6118,2.6185,2.636,2.6386,2.6386,2.6386,2.6386,2.6386,2.6386,2.6386,2.6386,2.6386,2.6466,2.6507,2.6507,2.6587,2.6627,2.6627,2.6627,2.6627,2.6627,2.6627,2.6734,2.6947,2.6947,2.7054,2.7309,2.7309,2.7309,2.7309,2.7309,2.7309,2.7309,2.7309,2.7349,2.7429,2.7429,2.7483,2.755,2.755,2.7443,2.7309,0.0,0.0,0.0,0.0,0.0,0.0,0.0,0.0,0.0,0.0,0.0,0.0,0.0,2.1082,2.1082,2.1082,2.1082,2.1082,2.1082,2.1096,2.1096,2.1096,2.1109,2.1109,2.1109,2.1109,2.1109,2.1109,2.1109,2.1109,2.1109,2.1109,2.1109,2.1109,2.1109,2.1109,2.1109,2.1109,2.1109,2.1109,2.1109,2.1283,2.1569,2.1569,2.1756,2.1937,2.1676,2.1756,2.201,2.201,2.2164,2.2405,2.2405,2.2605,2.288,2.288,2.3073,2.3278,2.3278,2.3527,2.3777,2.379,2.3968,2.4249,2.4506,2.4836,2.5144,2.5424,2.5718,2.5971,2.5984,2.6212,2.6373,2.6373,2.6373,2.6373,2.6386,2.6386,2.6386,2.6386,2.6386,2.6386,0.0,2.6386,2.6386,2.6386,2.6653,2.6814,2.6814,2.7081,2.7282,2.7282,2.7282,2.7282,2.7282,2.7282,2.7282,2.7296,2.7296,2.7296,2.7309,2.7309,2.7309,2.7309,2.7309,2.7309,2.7309,2.7309,2.7428,2.7682,2.7682,2.7898,2.8165,2.8165,2.7791,2.7309,0.0,0.0,0.0,0.0,0.0,0.0,0.0,0.0,0.0,0.0,0.0,0.0,0.0,0.0,0.0,0.0,2.1109,2.1109,2.1109,2.1109,2.1109,2.1109,2.1109,2.1109,2.1109,2.1109,2.1109,2.1109,2.1109,2.1109,2.1109,2.1109,2.1109,2.1109,2.1109,2.1109,2.1122,2.1355,2.1435,2.1448,2.1617,2.175,2.1877,2.1877,2.2017,2.2258,0.0,2.2191,2.2271,2.2271,2.2472,2.2712,2.2712,2.2813,2.2934,2.3113,2.3247,2.3332,2.3567,2.3688,2.3897,2.4249,2.4386,2.4586,2.5104,2.5451,2.573,2.5824,2.6039,2.6279,2.6279,2.6319,2.6386,2.6386,2.6386,2.6386,2.6386,2.6386,2.6466,2.6653,2.668,0.0,0.0,0.0,0.0,2.668,2.6947,2.7121,2.7121,2.7255,2.7309,2.7309,2.7309,2.7309,2.7309,2.7309,2.7403,2.7549,2.7791,2.7884,2.7884,2.7884,2.7884,2.7884,2.7884,2.7884,2.7884,2.7884,2.7951,2.8031,2.8031,2.8098,2.8179,2.8179,2.8058,2.7884,0.0,0.0,0.0,0.0,0.0,0.0,0.0,0.0,0.0,0.0,0.0,0.0,0.0,0.0,0.0,0.0,0.0,2.1109,2.1109,2.1109,2.1109,2.1109,2.1109,2.1109,2.1109,2.1109,2.1162,2.1269,2.1162,2.1162,2.1269,2.1269,2.1269,2.1269,2.1376,2.1416,2.143,2.1662,2.1743,2.1756,2.1943,2.2044,2.2138,2.2138,2.2325,0.0,2.2579,2.2579,2.2579,2.2579,2.2699,2.2893,2.2893,2.2974,2.3086,2.3394,2.3554,2.3701,2.3995,2.4155,2.4356,2.4799,2.5024,2.5211,2.5585,2.5944,2.6145,2.6145,2.6305,2.6386,2.6386,2.6386,2.6386,2.6386,2.6386,2.6426,2.6533,2.6547,2.6653,2.6947,2.6987,2.7054,0.0,0.0,0.0,2.6987,2.7255,2.7415,2.7415,2.7563,2.7617,2.7617,2.7617,2.7617,2.7617,2.7617,2.771,2.7856,2.8098,2.8179,2.8179,2.8179,2.8179,2.8179,2.8179,2.8179,2.8179,2.8179,2.8179,2.8179,2.8179,2.8179,2.8179,2.8179,2.8179,2.8179,0.0,0.0,0.0,0.0,0.0,0.0,0.0,0.0,0.0,0.0,0.0,0.0,0.0,0.0,0.0,0.0,0.0,0.0,2.1109,2.1109,2.1109,2.1109,2.1109,2.1122,2.1136,2.1136,2.1283,2.1609,2.1296,2.1296,2.1609,2.1609,2.1609,2.1622,2.189,2.1991,2.1991,2.2004,2.2004,2.2004,2.2031,2.2191,2.2445,2.2445,2.2619,2.2893,2.2893,2.2893,2.2893,2.2893,2.2907,2.292,2.292,2.31,2.3372,2.3701,2.3995,2.4289,2.4546,2.4877,2.5208,2.5464,2.5745,2.5998,2.6011,2.6225,2.6386,2.6386,2.6386,2.6386,2.6386,2.6386,2.6386,2.6386,2.64,2.6507,2.6747,2.68,2.6961,0.0,0.0,0.0,0.0,0.0,0.0,2.7376,0.0,2.7722,2.7722,2.8031,2.8179,2.8179,2.8179,2.8179,2.8179,2.8179,2.8179,2.8179,2.8179,2.8179,2.8179,2.8179,2.8179,2.8179,2.8179,2.8179,2.8179,2.8205,2.8205,2.8205,2.8219,2.8232,2.8232,2.8232,2.8232,2.8232,0.0,0.0,0.0,0.0,0.0,0.0,0.0,0.0,0.0,0.0,0.0,0.0,0.0,0.0,0.0,0.0,0.0,0.0,2.1109,2.1109,2.1109,2.1109,2.1109,2.1216,2.1462,2.1475,2.1609,2.1903,2.1804,2.1804,2.1903,2.1903,2.1903,2.1917,2.1984,2.1991,2.2004,2.2218,2.2311,2.2325,2.2586,2.2719,2.2786,2.2786,2.2827,2.2893,2.2893,2.2893,2.2893,2.2893,2.302,2.3207,2.3207,2.342,2.3714,2.4008,2.4302,2.4559,2.489,2.5184,2.5478,2.581,2.5944,2.6051,2.6265,2.6333,2.6386,2.6386,2.6386,2.6386,2.6386,2.6386,2.6386,2.6386,2.6573,2.6734,2.6774,2.7014,2.7255,2.7549,2.7589,2.7724,2.7938,2.8031,0.0,0.0,2.8031,2.8072,2.8072,2.8138,2.8179,2.8179,2.8179,2.8179,2.8179,2.8179,2.8179,2.8179,2.8179,2.8179,2.8179,2.8179,2.8179,2.8179,2.8179,2.8179,2.8205,2.8433,2.8484,2.8511,2.8724,2.8804,2.8804,2.8804,2.8804,2.8804,0.0,0.0,0.0,0.0,0.0,0.0,0.0,0.0,0.0,0.0,0.0,0.0,0.0,0.0,0.0,0.0,0.0,0.0,0.0,2.1109,2.1162,2.1296,2.1309,2.1475,2.177,2.1783,2.1917,2.2178,2.2044,2.2044,2.2178,2.2178,2.2178,2.2178,2.2311,2.2398,2.2412,2.2552,2.2619,0.0,0.0,2.2893,2.2893,2.2893,2.2893,2.2893,2.2893,2.2987,2.3086,2.3255,2.3287,2.3332,2.3599,2.3915,2.4209,2.4502,2.4796,2.509,2.5384,2.5585,2.5772,2.6118,2.6185,2.6225,2.636,2.6386,2.6386,2.6386,2.6386,2.6386,2.6386,2.6386,2.6386,2.6386,2.664,2.6867,2.7001,2.7268,2.7603,2.7898,2.7938,0.0,2.8165,2.8179,2.8179,0.0,2.8179,2.8179,2.8179,2.8179,2.8179,2.8179,2.8179,2.8179,2.8179,2.8179,2.8179,2.8179,2.8179,2.8259,2.8393,2.8393,2.846,2.8537,0.0,2.8537,2.8551,2.8724,2.8804,2.8775,2.8935,2.9001,2.9001,2.9001,2.9001,2.9001,0.0,0.0,0.0,0.0,0.0,0.0,0.0,0.0,0.0,0.0,0.0,0.0,0.0,0.0,0.0,0.0,0.0,0.0,0.0,0.0,2.1315,2.1569,2.1622,2.1783,2.2031,2.2044,2.2191,2.2472,2.2231,2.2231,2.2472,2.2472,2.2472,2.2485,2.2786,2.2893,2.2893,2.2893,2.2893,2.2893,2.2893,2.2893,2.2893,0.0,2.292,2.296,2.3,2.3153,2.3434,2.3728,2.3661,2.3492,2.4048,2.4399,2.4706,2.501,2.5317,2.5625,2.5931,2.6024,2.6118,2.6333,2.6386,2.6386,2.6386,2.6386,2.6386,2.6386,2.6386,2.6386,2.6386,2.6386,2.6386,2.6386,2.6667,2.6974,2.7269,2.759,2.7856,2.8152,2.8179,2.8179,2.8179,2.8179,2.8205,2.8245,2.8245,2.8232,2.8192,2.8179,2.8205,2.8245,2.8286,2.8299,2.8299,2.8299,2.8299,2.8299,2.8299,2.8446,2.8671,2.8671,2.8761,2.9001,0.0,0.0,2.9001,2.9041,2.9055,2.9055,2.9095,2.9108,2.9108,2.9108,2.9108,2.9108,0.0,0.0,0.0,0.0,0.0,0.0,0.0,0.0,0.0,0.0,2.1109,2.1109,0.0,0.0,0.0,0.0,0.0,0.0,0.0,0.0,0.0,2.1614,2.181,2.2044,2.2338,2.2338,2.2485,2.2813,2.2773,2.2773,2.2813,2.2813,2.2813,2.2827,2.288,2.2893,2.2893,2.2893,2.2893,2.2893,2.2893,2.2893,2.2893,2.2893,0.0,0.0,2.3527,2.3683,2.3777,2.4035,2.4088,2.4062,2.4168,2.4569,2.501,2.5064,2.5503,2.5931,2.5984,2.6172,2.6333,2.6373,2.6386,2.6386,2.6386,2.6386,2.6386,2.6386,2.6386,2.6386,2.6386,2.6386,2.6386,2.6386,2.6881,2.7242,2.7296,2.7777,2.8125,2.8179,2.8179,2.8179,2.8179,2.8179,0.0,0.0,2.8524,2.8417,2.8205,2.8179,2.8299,2.8524,2.8764,2.8841,2.8841,2.8841,2.8841,2.8841,2.8841,2.8868,2.8921,2.8921,2.8948,2.9001,2.9001,0.0,2.9015,2.9312,2.9406,2.9432,2.9673,2.9722,2.9722,2.9722,2.9722,2.9722,0.0,0.0,0.0,0.0,0.0,0.0,0.0,2.1109,2.1109,2.1109,2.1109,2.1109,2.1109,2.1109,2.1109,0.0,0.0,0.0,0.0,0.0,0.0,2.1991,2.2138,2.2352,2.2645,2.2645,2.2746,2.2893,0.0,2.2893,2.2893,2.2893,2.2893,2.2893,2.2893,2.2893,2.2893,2.2893,2.2893,2.2893,2.2893,2.2893,2.292,2.3081,0.0,0.0,2.3888,2.3995,2.4035,2.4329,2.4422,2.4422,2.4422,2.4836,2.5304,2.5304,2.5757,2.6225,2.6225,2.6279,2.6386,2.6386,2.6386,2.6386,2.6386,2.6386,2.6386,2.6386,2.6386,2.6386,2.6386,2.6386,2.6386,2.6386,2.6921,2.7309,2.7309,2.7817,2.8179,2.8179,2.8179,2.8179,2.8179,2.8326,2.8444,2.8591,2.8751,2.8764,2.8617,2.8604,2.8671,2.8788,2.8921,2.9001,2.9001,2.9001,2.9001,2.9001,2.9001,2.9081,2.9272,2.9272,2.9352,2.9455,2.9455,0.0,2.9468,2.9646,2.9713,2.9726,2.986,2.9913,2.9913,2.9913,2.9913,2.9913,0.0,0.0,0.0,0.0,0.0,0.0,0.0,2.1109,2.1109,2.1109,2.1109,2.1109,2.1109,2.1109,2.1109,0.0,0.0,0.0,0.0,0.0,0.0,0.0,0.0,0.0,2.2893,0.0,0.0,2.2893,2.2893,0.0,0.0,0.0,0.0,0.0,2.2893,2.2893,2.2893,2.2893,2.2893,0.0,0.0,2.3,2.3041,0.0,0.0,0.0,0.0,2.4302,2.4329,2.4519,2.4599,2.4599,2.4599,2.4999,2.5518,2.5518,2.5932,2.6386,2.6386,2.6386,2.6386,2.6386,2.6386,2.6386,2.6386,2.6386,2.6386,2.6386,2.6386,2.6386,2.6386,2.6386,2.6386,2.6386,2.6921,2.7309,2.7309,2.7817,2.8179,2.8179,2.8179,2.8205,2.8272,2.847,0.0,2.8791,2.9015,0.0,2.9001,2.9055,2.9095,2.9095,2.9148,2.9188,2.9188,2.9188,2.9188,2.9188,2.9188,2.9352,2.9579,2.9579,2.97,2.9913,2.9913,0.0,0.0,2.9913,2.9913,2.9913,2.9913,2.9913,2.9913,2.9913,2.9913,2.9913,0.0,0.0,0.0,0.0,0.0,0.0,0.0,2.1109,2.1109,2.1109,2.1109,2.1109,2.1109,2.1109,2.1109,0.0,0.0,0.0,0.0,0.0,0.0,0.0,0.0,0.0,0.0,0.0,0.0,2.2893,2.2893,0.0,0.0,0.0,0.0,0.0,0.0,2.2893,2.2893,2.2893,0.0,0.0,0.0,0.0,0.0,0.0,0.0,0.0,0.0,2.4559,2.4559,2.4586,2.4599,2.4599,2.4599,2.4999,2.5518,2.5518,2.5932,2.6386,2.6386,2.6386,2.6386,2.6386,2.6386,2.6386,2.6386,2.6386,2.6386,2.6386,2.6386,2.6386,2.6386,2.6386,2.6386,2.6386,2.6921,2.7309,2.7309,2.7817,2.8179,2.8179,2.8179,2.8299,2.8537,2.8591,2.8831,2.9366,2.9673,0.0,2.9028,2.9299,2.9446,2.9446,2.97,2.9833,2.9833,2.9833,2.9833,2.9833,2.9833,2.9847,2.9873,2.9873,2.9887,2.9913,2.9913,0.0,0.0,2.9913,2.9913,2.9913,2.9913,2.9913,2.9913,2.9913,2.9913,2.9913,0.0,0.0,0.0,0.0,0.0,0.0,2.1109,2.1109,2.1109,2.1109,2.1109,2.1109,2.1109,2.1109,2.1109,2.1109,0.0,0.0,0.0,0.0,0.0,0.0,0.0,0.0,0.0,0.0,2.2893,2.2893,2.2893,0.0,0.0,0.0,0.0,0.0,0.0,2.2893,2.2893,2.2893,0.0,0.0,0.0,0.0,0.0,0.0,0.0,0.0,0.0,0.0,2.4599,2.4599,2.4599,2.4599,2.4599,2.4917,2.5291,2.5464,2.5932,2.6386,2.6386,2.6386,2.6386,2.6386,2.6386,2.6386,2.6386,2.6386,2.6386,2.6386,2.6386,2.6386,2.6386,2.6386,2.6386,2.6386,2.6921,2.7309,2.7309,2.7817,2.8179,2.8179,2.8353,2.847,0.0,0.0,2.9299,2.9713,0.0,0.0,2.9535,2.9686,2.974,2.974,2.986,2.9913,2.9913,2.9913,2.9913,2.9913,2.9913,2.9913,2.9913,2.9913,2.9913,2.9913,2.9913,0.0,0.0,2.9913,2.9913,2.9913,2.9913,2.9913,2.9913,2.9913,2.9913,2.9913,0.0,0.0,0.0,0.0,0.0,2.1109,2.1109,2.1109,2.1109,2.1109,2.1109,2.1109,2.1109,2.1109,2.1109,2.1109,2.1109,0.0,0.0,0.0,0.0,0.0,0.0,0.0,0.0,0.0,2.2893,2.2893,2.2893,2.2893,0.0,0.0,2.2893,2.2893,0.0,0.0,0.0,0.0,0.0,0.0,0.0,0.0,0.0,0.0,0.0,0.0,0.0,0.0,0.0,0.0,0.0,2.4599,2.4599,2.4836,2.5144,2.5424,2.5865,2.6279,2.6373,2.6386,2.6386,2.6386,2.6386,2.6386,2.6386,2.6386,2.6386,2.6386,2.6386,2.6386,2.6386,2.6386,2.6386,2.6386,2.6921,2.7309,2.7309,2.7817,2.8179,2.8179,2.846,2.8644,2.8724,2.9272,2.97,2.99,0.0,0.0,2.9913,2.9913,2.9913,2.9913,2.9913,2.9913,2.9913,2.9913,2.9913,2.9913,2.9913,2.9913,2.9913,2.9913,2.9913,2.9913,0.0,0.0,0.0,2.9913,2.9913,2.9913,2.9913,2.9913,2.9913,2.9913,2.9913,2.9913,0.0,0.0,0.0,0.0,0.0,0.0,2.1109,2.1109,2.1109,2.1109,2.1109,2.1109,2.1109,2.1109,2.1109,2.1109,2.1109,0.0,0.0,0.0,0.0,0.0,0.0,0.0,0.0,0.0,2.2893,2.2893,2.2893,2.2893,2.2893,2.2893,2.2893,2.2893,0.0,0.0,0.0,0.0,0.0,0.0,0.0,0.0,2.4599,0.0,0.0,0.0,0.0,0.0,0.0,0.0,0.0,0.0,0.0,2.4836,2.5144,2.5424,2.5732,2.6065,2.6306,2.6386,2.6386,2.6386,2.6386,2.6386,2.6386,2.6386,2.6386,2.6386,2.6386,2.6386,2.6386,2.6386,2.6386,2.6386,2.6921,2.7309,2.7309,2.7817,2.8179,2.8179,2.846,2.8724,2.8961,2.9522,2.9913,2.9913,0.0,0.0,2.9913,2.9913,2.9913,2.9913,2.9913,2.9913,2.9913,2.9913,2.9913,2.9913,2.9913,2.9913,2.9913,2.9913,2.9913,0.0,0.0,0.0,0.0,2.9913,2.9913,2.9913,2.9913,2.9913,2.9913,2.9913,2.9913,2.9913,0.0,0.0,0.0,0.0,0.0,0.0,0.0,2.1109,2.1109,2.1109,2.1109,2.1109,2.1109,2.1109,2.1189,2.1422,2.1448,0.0,0.0,0.0,0.0,0.0,0.0,0.0,0.0,0.0,2.2893,2.2893,2.2893,2.2893,2.2893,2.2893,2.2893,2.2893,2.2893,2.2893,0.0,0.0,0.0,0.0,0.0,2.4519,2.4599,0.0,0.0,0.0,0.0,0.0,0.0,0.0,0.0,0.0,0.0,0.0,0.0,2.5424,2.5718,2.6065,2.6306,2.6386,2.6386,2.6386,2.6386,2.6386,2.6386,2.6386,2.6386,2.6386,2.6386,2.6386,2.6386,2.6386,2.6386,2.6386,2.6921,2.7309,2.7309,2.7817,2.8179,2.8179,2.8591,2.9055,0.0,0.0,2.9913,2.9913,0.0,0.0,2.9913,2.9913,2.9913,2.9913,2.9913,2.9913,2.9913,2.9913,2.9913,2.9913,2.9913,2.9913,2.9913,2.9913,0.0,0.0,0.0,0.0,0.0,2.9913,2.9913,2.9913,2.9913,2.9913,2.9913,2.9913,2.9913,2.9913,0.0,0.0,0.0,0.0,0.0,0.0,0.0,2.1109,2.1109,2.1109,2.1109,2.1109,2.1109,2.1203,2.1381,2.1569,2.1783,0.0,0.0,0.0,0.0,0.0,0.0,0.0,2.2893,2.2893,2.2893,2.2893,2.2893,2.2893,2.2893,2.2893,2.2893,2.2893,2.2893,2.2893,0.0,0.0,0.0,0.0,2.4479,2.4599,2.4599,0.0,0.0,0.0,0.0,0.0,0.0,0.0,0.0,0.0,0.0,0.0,0.0,0.0,2.5718,2.6065,2.6306,2.6386,2.6386,2.6386,2.6386,2.6386,2.6386,2.6386,2.6386,2.6386,2.6386,2.6386,2.6386,2.6386,2.6386,2.6386,2.6921,2.7309,2.7309,2.7817,2.8272,2.85,2.8804,2.9228,0.0,2.9913,2.9913,2.9913,0.0,0.0,2.9913,2.9913,2.9913,2.9913,2.9913,2.9913,2.9913,2.9913,2.9913,2.9913,2.9913,2.9913,2.9913,2.9913,0.0,0.0,0.0,0.0,0.0,2.9913,2.9913,2.9913,2.9913,2.9913,2.9913,2.9913,2.9913,2.9913,0.0,0.0,0.0,0.0,0.0,0.0,0.0,2.1109,2.1109,2.1109,2.1109,2.1122,2.1136,2.1422,2.1609,2.1649,0.0,0.0,0.0,0.0,0.0,0.0,0.0,0.0,2.2893,2.2893,2.2893,2.2893,2.2893,2.2893,2.2893,2.2893,2.2893,2.2893,2.2893,2.292,0.0,0.0,0.0,0.0,2.4492,2.4599,0.0,0.0,0.0,0.0,0.0,0.0,0.0,0.0,0.0,0.0,0.0,0.0,0.0,0.0,0.0,0.0,0.0,2.6386,2.6386,2.6386,2.6386,2.6386,2.6386,2.6386,0.0,2.6386,2.6386,2.6386,2.6386,2.6386,2.64,2.6413,2.6934,2.7309,2.7336,2.7831,2.8406,2.8921,2.9001,0.0,2.986,2.9913,2.9913,2.9913,0.0,0.0,2.9913,2.9913,2.9913,2.9913,2.9913,2.9913,2.9913,2.9913,2.9913,2.9913,2.9913,2.9913,2.9913,2.9913,0.0,0.0,0.0,0.0,0.0,2.9913,2.9913,2.9913,2.9913,2.9913,2.9913,2.9913,2.9913,2.9913,0.0,0.0,0.0,0.0,0.0,0.0,0.0,0.0,0.0,0.0,2.1109,2.1189,2.1462,2.1542,2.177,0.0,0.0,0.0,0.0,0.0,0.0,0.0,0.0,0.0,2.2893,2.2893,2.2893,2.2893,2.2893,2.2893,2.2893,2.2893,2.2893,2.2893,2.2893,2.3161,0.0,0.0,0.0,0.0,2.4572,2.4599,0.0,0.0,0.0,0.0,2.4599,2.4599,0.0,0.0,0.0,0.0,0.0,0.0,0.0,0.0,2.6105,2.6306,2.6373,0.0,2.6386,2.6386,2.6386,2.6386,0.0,2.6386,2.6386,2.6386,2.6386,2.6386,2.6386,2.6386,2.6466,2.668,2.7028,2.7389,2.7562,2.7951,2.8406,2.8921,2.9001,2.9228,2.986,2.9913,2.9913,0.0,0.0,2.9913,2.9913,2.9913,2.9913,2.9913,2.9913,2.9913,2.9913,2.9913,2.9913,2.9913,2.9913,2.9913,2.9913,2.9913,0.0,0.0,0.0,0.0,2.9913,2.9913,2.9913,2.9913,2.9913,2.9913,2.9913,2.9913,2.9913,2.9913,0.0,0.0,0.0,0.0,0.0,0.0,0.0,0.0,0.0,0.0,0.0,2.1462,2.1756,2.1903,0.0,0.0,0.0,0.0,0.0,0.0,0.0,0.0,0.0,2.2893,2.2893,2.2893,2.2893,2.2893,2.2893,2.2893,2.2893,2.2893,2.2893,2.2907,2.3041,2.334,0.0,0.0,0.0,2.4599,2.4599,0.0,0.0,0.0,0.0,0.0,2.4599,2.4599,0.0,2.4599,2.4693,2.4863,0.0,0.0,0.0,0.0,2.6198,2.6386,2.6386,2.6386,2.6386,2.6386,2.6386,2.6386,2.6386,2.6386,2.6386,2.6386,2.6386,2.6386,2.6386,2.6386,2.648,2.6774,2.7068,2.7456,2.7884,2.8085,2.8406,2.8921,2.9001,2.9228,0.0,2.9913,2.9913,0.0,0.0,2.9913,2.9913,2.9913,2.9913,2.9913,2.9913,2.9913,2.9913,2.9913,2.9913,2.9913,2.9913,2.9913,2.9913,2.9913,2.9913,0.0,0.0,0.0,2.9913,2.9913,2.9913,2.9913,2.9913,2.9913,2.9913,2.9913,2.9913,2.9913,0.0,0.0,0.0,0.0,0.0,0.0,0.0,0.0,0.0,0.0,0.0,0.0,0.0,0.0,0.0,0.0,0.0,0.0,0.0,0.0,0.0,0.0,2.2893,2.2893,2.2893,2.2893,2.2893,2.2893,2.2893,2.2893,2.2893,2.2893,2.292,2.2987,2.326,2.3554,0.0,0.0,0.0,2.4599,2.4599,0.0,0.0,0.0,0.0,0.0,0.0,0.0,0.0,2.4599,2.4836,2.5128,2.5168,0.0,0.0,0.0,0.0,0.0,2.6386,2.6386,2.6386,2.6386,2.6386,2.6386,2.6386,2.6386,2.6386,2.6386,2.6386,2.6386,2.6386,2.6426,2.6547,2.6841,2.7175,2.7617,2.8112,2.8179,2.8406,2.8921,2.9001,0.0,2.986,2.9913,2.9913,0.0,0.0,2.9913,2.9913,2.9913,2.9913,2.9913,2.9913,2.9913,2.9913,2.9913,2.9913,2.9913,2.9913,2.9913,2.9913,2.9913,2.9913,0.0,0.0,0.0,2.9913,2.9913,2.9913,2.9913,2.9913,2.9913,2.9913,2.9913,2.9913,2.9927,0.0,0.0,0.0,0.0,0.0,0.0,0.0,0.0,0.0,0.0,0.0,0.0,0.0,0.0,0.0,0.0,0.0,0.0,0.0,0.0,0.0,2.2893,2.2893,2.2893,2.2893,2.2893,2.2893,2.2893,2.2893,2.2893,2.2893,2.2893,2.3041,2.3238,2.3567,2.3861,2.4155,0.0,0.0,2.4599,2.4599,0.0,0.0,0.0,0.0,0.0,0.0,0.0,0.0,2.4599,2.4836,2.5117,2.5371,0.0,0.0,0.0,0.0,0.0,2.6386,2.6386,2.6386,2.6386,2.6386,2.6386,2.6386,2.6386,2.6386,2.6386,2.6386,2.6386,2.6386,2.6587,2.6854,2.7148,2.7697,2.8085,2.8179,2.8179,2.8406,2.8921,0.0,2.9228,2.986,2.9913,2.9913,0.0,0.0,2.9913,2.9913,2.9913,2.9913,2.9913,2.9913,2.9913,2.9913,2.9913,2.9913,2.9913,2.9913,2.9913,2.9913,2.9913,2.9913,2.9913,0.0,2.9913,2.9913,2.9913,2.9913,2.9913,2.9913,2.9913,2.9913,2.9913,2.9913,2.9953,0.0,0.0,0.0,0.0,0.0,0.0,0.0,0.0,0.0,0.0,0.0,0.0,0.0,0.0,0.0,0.0,0.0,0.0,0.0,0.0,2.2893,2.2893,2.2893,2.2893,2.2893,2.2893,2.2893,2.2893,2.2893,2.2893,2.2893,2.2893,2.3033,2.3305,2.3634,2.3928,2.4222,2.4479,2.4599,2.4599,0.0,0.0,0.0,0.0,0.0,0.0,0.0,0.0,0.0,0.0,2.5064,2.5371,2.5651,0.0,0.0,0.0,0.0,0.0,2.6386,2.6386,2.6386,2.6386,2.6386,2.6386,2.6386,2.6386,2.6386,2.6386,2.6386,2.6386,2.6386,2.6627,2.6974,2.7428,2.7898,2.8179,2.8179,2.8326,2.8551,0.0,0.0,2.9446,2.9873,2.9913,2.9913,0.0,0.0,0.0,2.9913,2.9913,2.9913,2.9913,2.9913,2.9913,2.9913,2.9913,2.9913,2.9913,2.9913,2.9913,2.9913,2.9913,2.9913,2.9913,0.0,2.9913,2.9913,2.9913,2.9913,2.9913,2.9913,2.9913,2.994,3.01,3.0154,3.0194,0.0,0.0,0.0,0.0,0.0,0.0,0.0,0.0,0.0,0.0,0.0,0.0,0.0,0.0,0.0,0.0,0.0,0.0,0.0,2.2893,2.2893,2.2893,2.2893,2.2893,2.2893,2.2893,2.2893,2.2893,2.2893,2.2893,2.2893,2.2974,2.314,2.3447,2.3741,2.4035,2.4315,2.4506,2.4599,2.4599,0.0,0.0,0.0,0.0,0.0,0.0,0.0,0.0,0.0,0.0,0.0,0.0,0.0,0.0,0.0,2.6386,2.6386,2.6386,2.6386,2.6386,2.6386,2.6386,2.6386,2.6386,2.6386,2.6386,2.6386,2.6386,2.6386,2.6413,2.648,2.6787,2.7201,2.7722,2.8031,2.8179,2.8179,2.8417,2.8711,2.8961,2.9299,2.9606,2.9887,2.9913,0.0,0.0,0.0,0.0,2.9913,2.9913,2.9913,2.9913,2.9913,2.9913,2.9913,2.9913,2.9913,2.9913,2.9913,2.9913,2.9913,2.9913,2.9913,2.9913,2.9913,2.9913,2.9913,2.9913,2.9913,2.9913,2.9913,2.9967,3.0047,3.0319,3.0493,3.0641,0.0,0.0,0.0,0.0,0.0,0.0,0.0,0.0,0.0,0.0,0.0,0.0,0.0,0.0,0.0,0.0,0.0,0.0,0.0,2.2893,2.2893,2.2893,2.2893,2.2893,2.2893,2.2893,2.2893,2.2893,2.2893,2.2893,2.2907,2.3153,2.3447,2.379,2.4035,2.4329,2.4572,2.4586,2.4599,2.4599,2.4599,0.0,0.0,0.0,0.0,0.0,0.0,0.0,0.0,0.0,0.0,0.0,0.0,0.0,2.6386,2.6386,2.6386,2.6386,2.6386,2.6386,2.6386,2.6386,2.6386,2.6386,2.6386,2.6386,2.6386,2.6386,2.6386,2.6466,2.6747,2.7255,2.7736,2.8098,2.8165,2.8179,2.8179,0.0,2.8711,2.8961,2.9299,2.9606,2.9887,2.9913,0.0,0.0,0.0,0.0,2.9913,2.9913,2.9913,2.9913,2.9913,2.9913,2.9913,2.9913,2.9913,2.9913,2.9913,2.9913,2.9913,2.9913,2.9913,2.9913,2.9913,2.9913,2.9913,2.9913,2.9913,2.9913,2.9913,3.0087,3.0373,3.04,3.0702,3.1169,0.0,0.0,0.0,0.0,0.0,0.0,0.0,0.0,0.0,0.0,0.0,0.0,0.0,0.0,0.0,0.0,0.0,0.0,0.0,2.2893,2.2893,2.2893,2.2893,2.2893,2.2893,2.2893,2.2893,2.2893,2.2893,2.3,2.3153,2.3238,2.3581,2.4048,2.4155,2.4369,2.4599,2.4599,2.4599,2.4599,2.4599,2.4599,0.0,0.0,0.0,0.0,0.0,0.0,0.0,0.0,2.5545,2.5838,2.6172,2.6306,2.6386,2.6386,2.6386,2.6386,2.6386,2.6386,2.6386,2.6386,2.6386,2.6386,2.6386,2.6386,2.6386,2.6386,2.6386,2.6533,2.7014,2.7428,2.7789,2.8138,2.8179,2.8179,2.8179,2.8564,2.8868,2.8988,2.9459,2.9793,2.99,0.0,0.0,0.0,0.0,0.0,2.9913,2.9913,2.9913,2.9913,2.9913,2.9913,2.9913,2.9913,2.9913,2.9913,2.9913,2.9913,2.9913,2.9913,2.9913,2.9913,2.9913,2.9913,2.9913,2.9913,2.9913,2.994,3.0114,3.0368,3.0464,2.9035,2.8603,2.8564,0.0,0.0,0.0,0.0,0.0,0.0,0.0,0.0,0.0,0.0,0.0,0.0,0.0,0.0,0.0,0.0,0.0,0.0,2.2893,2.2893,2.2893,2.2893,2.2893,2.2893,2.2893,2.2893,2.2893,2.2893,2.3,2.3113,2.3292,2.3479,2.3785,2.4209,2.4302,2.4412,2.4599,2.4599,2.4599,2.4599,2.4599,2.4599,0.0,0.0,0.0,0.0,0.0,0.0,0.0,0.0,2.5824,2.6051,2.6346,2.6386,2.6386,2.6386,2.6386,2.6386,2.6386,2.6386,2.6386,2.6386,2.6386,2.6386,2.6386,2.6386,2.6386,2.6386,2.6533,2.6854,2.7308,2.7642,2.7951,2.8152,2.8179,2.8179,2.8179,2.8657,2.9001,2.9001,2.9508,2.9913,2.9913,0.0,0.0,0.0,0.0,0.0,0.0,2.9913,2.9913,2.9913,2.9913,2.9913,2.9913,2.9913,2.9913,2.9913,2.9913,2.9913,2.9913,2.9913,2.9913,2.9913,2.9913,2.9913,2.9913,2.9913,2.9459,2.886,2.9066,2.8888,2.8283,2.6648,2.6144,2.5994,0.0,0.0,0.0,0.0,0.0,0.0,0.0,0.0,0.0,0.0,0.0,0.0,0.0,0.0,0.0,0.0,0.0,0.0,2.2893,2.2893,2.2893,2.2893,2.2893,2.2893,2.2893,2.2893,2.2893,2.2893,2.318,2.3305,2.3319,2.3928,2.4209,2.4222,2.4466,2.4599,2.4599,2.4599,2.4599,2.4599,2.4599,2.4599,2.4599,0.0,0.0,0.0,0.0,0.0,0.0,0.0,2.5998,2.6051,2.6346,2.6386,2.6386,2.6386,2.6386,2.6386,2.6386,2.6386,2.6386,2.6386,2.6386,2.6386,2.6386,2.6386,2.6386,2.6386,2.6854,2.7403,2.7642,2.7978,2.8179,2.8179,2.8179,2.8179,2.8179,2.8657,2.8988,2.9001,2.9508,2.9913,2.9913,0.0,0.0,0.0,0.0,0.0,0.0,2.9913,2.9913,2.9913,2.9913,2.9913,2.9913,2.9913,2.9913,2.9913,2.9913,2.9913,2.9913,2.9913,2.9913,2.9913,2.9913,2.9913,2.9913,2.9882,2.8556,2.6513,2.6467,2.523,2.3403,2.3403,2.3592,2.388,0.0,0.0,0.0,0.0,0.0,0.0,0.0,0.0,0.0,0.0,0.0,0.0,0.0,0.0,0.0,0.0,0.0,0.0,2.2893,2.2893,2.2893,2.2893,2.2893,2.2893,2.2893,2.3073,2.3193,2.3193,2.3487,2.3741,2.3955,2.4128,2.4315,2.4479,2.4559,2.4599,2.4599,2.4599,2.4599,2.4599,2.4599,2.4599,2.4599,0.0,0.0,0.0,0.0,0.0,0.0,0.0,0.0,0.0,2.636,2.6386,2.6386,2.6386,2.6386,2.6386,2.6386,2.6386,2.6386,2.6386,2.6386,2.6386,2.6386,2.6386,2.6453,2.6653,2.7161,2.7602,2.7682,2.7978,2.8179,2.8179,2.8179,2.8179,2.8179,2.8484,2.8775,2.8975,2.9379,2.9686,2.99,0.0,0.0,0.0,0.0,0.0,0.0,2.9913,2.9913,2.9913,2.9913,2.9913,2.9913,2.9913,2.9913,2.9913,2.9913,2.9913,2.9913,2.9913,2.9913,2.9913,2.9913,2.9913,2.9792,2.8186,2.7205,2.6608,2.4938,2.41,2.3537,2.1691,2.1045,2.0902,0.0,0.0,0.0,0.0,0.0,0.0,0.0,0.0,0.0,0.0,2.2893,2.2893,0.0,0.0,0.0,0.0,0.0,0.0,0.0,2.2893,2.2893,2.2893,2.3014,2.31,2.3255,2.3514,2.3674,2.3674,2.3861,2.4035,2.4209,2.4329,2.4439,2.4599,2.4599,2.4599,2.4599,2.4599,2.4599,2.4599,2.4599,2.4599,2.4613,0.0,0.0,0.0,0.0,0.0,0.0,0.0,0.0,0.0,2.6386,2.6386,2.6386,2.6386,2.6386,2.6386,2.6386,2.6386,2.6386,2.6386,2.6386,2.6413,2.6533,2.656,2.668,2.7081,2.7455,2.7736,2.7856,2.8058,2.8179,2.8179,2.8179,2.8179,2.8179,2.8417,2.8711,2.8961,2.9299,2.9606,2.9887,0.0,0.0,0.0,0.0,0.0,0.0,2.8436,2.8899,2.9869,2.9913,2.9913,2.9913,2.9913,2.9407,2.8436,2.9407,2.9362,2.8436,2.9451,2.9913,2.9913,2.9913,2.998,2.992,2.7476,2.6109,2.525,2.2816,2.1414,2.0617,1.901,1.8468,1.8228,0.0,0.0,0.0,0.0,0.0,0.0,0.0,0.0,0.0,0.0,2.2893,2.2893,0.0,0.0,0.0,0.0,0.0,0.0,0.0,2.292,2.2934,2.2934,2.3207,2.3514,2.3843,2.4075,2.4222,2.4249,2.4249,2.4249,2.4249,2.4479,2.4599,2.4599,2.4599,2.4599,2.4599,2.4599,2.4599,2.4599,2.4626,2.4639,2.4679,2.501,0.0,0.0,0.0,0.0,0.0,0.0,0.0,0.0,2.6386,2.6386,2.6386,2.6386,2.6386,2.6386,2.6386,2.6386,2.6386,2.6386,2.6413,2.6507,2.68,2.684,2.7054,2.7589,2.7722,2.7816,2.8138,2.8179,2.8179,2.8179,2.8179,2.8179,2.8179,2.8433,2.8684,2.8961,2.9285,2.9566,2.9887,0.0,0.0,0.0,0.0,0.0,0.0,2.5866,2.7012,2.9496,2.9541,2.9541,2.9541,2.9779,2.8674,2.6229,2.8719,2.8719,2.6604,2.8854,2.9913,2.9913,2.994,3.0114,3.0172,2.7355,2.5111,2.3115,2.0298,1.7893,1.6083,1.6083,1.6083,1.6083,0.0,0.0,0.0,0.0,0.0,0.0,0.0,0.0,0.0,0.0,0.0,0.0,0.0,0.0,0.0,0.0,0.0,0.0,0.0,2.3086,2.322,2.322,2.3514,2.3808,2.4102,2.4168,2.4315,2.4506,2.4506,2.4506,2.4506,2.4572,2.4599,2.4599,2.4599,2.4599,2.4599,2.4599,2.4599,2.4626,2.489,2.4983,2.501,2.5304,2.5558,0.0,0.0,0.0,0.0,0.0,0.0,0.0,2.6386,2.6386,2.6386,2.6386,2.6386,2.6386,2.6386,2.6386,2.6386,2.6386,2.656,2.68,2.7108,2.7348,2.7549,2.7669,2.7924,2.8112,2.8179,2.8179,2.8179,2.8179,2.8179,2.8179,2.8179,2.8245,2.8444,2.8935,2.9055,2.9339,2.986,0.0,0.0,0.0,0.0,0.0,2.3289,2.3289,2.4443,2.6921,2.7012,2.7012,2.7012,2.8944,2.8674,0.0,2.8719,2.9644,2.9137,2.9644,2.9913,2.9927,3.0167,3.0346,3.0062,2.581,2.3789,2.2933,1.8562,1.6538,1.6083,1.6083,1.6083,1.6083,0.0,0.0,0.0,0.0,0.0,0.0,0.0,0.0,0.0,0.0,0.0,0.0,0.0,0.0,0.0,0.0,0.0,0.0,0.0,0.0,2.3607,2.3741,2.3901,2.4115,2.4409,2.4372,2.4452,2.4599,2.4599,2.4599,2.4599,2.4599,2.4599,2.4599,2.4599,2.4599,2.4599,2.4599,2.4679,2.4863,2.5024,2.5157,2.5317,2.5611,2.5864,2.6011,2.6158,0.0,0.0,0.0,0.0,0.0,0.0,0.0,2.6386,2.6386,2.6386,2.6386,2.6386,2.6386,2.6426,2.656,2.6707,2.6934,2.7375,2.7589,2.7736,2.7924,2.8072,2.8179,2.8179,2.8179,2.8179,2.8179,2.8179,2.8179,2.8179,2.8179,2.8406,2.8921,2.9001,2.9228,2.986,0.0,0.0,0.0,0.0,1.952,2.0714,2.076,2.1912,2.4352,2.4443,2.4443,2.4443,2.5718,2.5127,2.2729,2.5218,2.7012,2.8166,2.9362,2.9913,2.9927,3.0234,3.048,3.0228,2.5399,2.3511,2.3138,1.8049,1.6083,1.6083,1.6083,1.6083,1.6083,0.0,0.0,0.0,0.0,0.0,0.0,0.0,0.0,0.0,0.0,0.0,0.0,0.0,0.0,0.0,0.0,0.0,0.0,0.0,0.0,0.0,2.4262,2.4275,2.4359,2.4599,2.4599,2.4599,2.4599,2.4599,2.4599,2.4599,2.4599,2.4599,2.4599,2.4653,2.4679,2.4679,2.4733,2.493,2.5157,2.5248,2.5371,2.5625,2.5957,2.6078,2.6105,2.6306,2.6386,2.6386,2.6386,0.0,0.0,0.0,0.0,2.6386,2.6386,2.6386,2.6386,2.6386,2.6386,2.6453,2.6747,2.6854,2.7041,2.7575,2.7736,2.7843,2.8138,2.8179,2.8179,2.8179,2.8179,2.8179,2.8179,2.8179,2.8179,2.8179,2.8232,2.8473,2.8935,2.9041,2.915,2.9264,0.0,0.0,0.0,0.0,1.6104,1.8135,1.8267,1.9381,2.182,2.1866,2.1866,2.1866,2.228,2.1314,1.8917,2.182,2.4261,2.6275,2.8816,2.9993,3.0007,3.0346,3.0595,3.0505,2.552,2.366,2.3394,1.8137,1.6083,1.6083,1.6083,1.6083,1.6083,0.0,0.0,0.0,0.0,0.0,0.0,0.0,0.0,0.0,0.0,2.2893,2.2893,0.0,0.0,0.0,0.0,0.0,0.0,2.375,0.0,0.0,2.4532,2.4546,2.4559,2.4599,2.4599,2.4599,2.4599,2.4599,2.4599,2.4599,2.4599,2.4599,2.4613,2.4903,2.5024,2.5037,2.5291,2.5424,2.5478,2.577,2.5904,2.5971,2.6265,2.6333,2.6333,2.6373,2.6386,2.6386,2.6386,2.6386,0.0,0.0,0.0,2.6386,2.6386,2.6386,2.6386,2.6386,2.6386,2.6453,2.6747,2.7014,2.7336,2.7629,2.7938,2.8138,2.8179,2.8179,2.8179,2.8179,2.8179,2.8179,2.8179,2.8179,2.8179,2.8179,2.8419,2.8671,2.8961,2.9272,2.8684,2.6885,0.0,0.0,0.0,1.6799,1.5321,1.569,1.569,1.6845,1.928,1.9372,1.9372,1.9372,2.1452,2.1314,1.8964,2.3518,2.5912,2.6287,2.9067,3.0346,3.036,3.0608,3.0902,3.0762,2.5869,2.385,2.3394,1.8137,1.6083,1.6083,1.6083,1.6083,1.6083,0.0,0.0,0.0,0.0,0.0,0.0,0.0,0.0,0.0,0.0,0.0,2.3126,0.0,0.0,0.0,2.3581,2.3848,2.4075,2.4249,2.4382,2.4466,2.4586,2.4599,2.4599,2.4599,2.4599,2.4599,2.4599,2.4599,2.4679,2.489,2.489,2.489,2.4903,2.5184,2.5317,2.5331,2.5464,2.5611,2.5772,2.5944,2.6091,2.6252,2.6346,2.6386,2.6386,2.6386,2.6386,2.6386,2.6386,2.6386,2.6386,2.6386,0.0,0.0,0.0,2.6386,2.6386,2.6386,2.6386,2.6493,2.6961,2.7215,2.7429,2.7884,2.8085,2.8179,2.8179,2.8179,2.8179,2.8179,2.8179,2.8179,2.8179,2.8179,2.8179,2.8179,2.8417,2.8711,2.8961,2.9299,2.8634,2.6387,0.0,0.0,0.0,1.6612,1.5181,1.5181,1.5181,1.569,1.6799,1.6845,1.6845,1.6845,1.7864,1.7864,1.6892,2.0437,2.2086,2.2234,2.6454,2.9097,3.0426,3.0835,3.0249,2.8753,2.5287,2.3043,2.1343,1.7551,1.6083,1.6083,1.6083,1.6083,1.6083,0.0,0.0,0.0,0.0,0.0,0.0,0.0,0.0,0.0,0.0,0.0,0.0,0.0,0.0,0.0,0.0,2.4142,2.4409,2.4586,2.4599,2.4599,2.4599,2.4599,2.4599,2.4599,2.4599,2.4639,2.4743,2.4743,2.4903,2.5197,2.5302,2.5342,2.5355,2.5531,2.5625,2.5625,2.5705,2.5865,2.6105,2.6105,2.6238,2.6386,2.6386,2.6386,2.6386,2.6386,0.0,0.0,0.0,2.6386,2.6386,2.6386,2.6386,0.0,0.0,0.0,2.6386,2.6386,2.6386,2.6533,2.7162,2.7309,2.7456,2.8045,2.8179,2.8179,2.8179,2.8179,2.8179,2.8179,2.8179,2.8179,2.8179,2.8179,2.8179,2.8179,2.847,2.8804,2.8975,2.878,2.776,2.548,2.306,0.0,0.0,1.6245,1.5181,1.5181,1.5181,1.5181,1.5181,1.5181,1.5181,1.5181,1.5181,1.5181,1.5228,1.7716,1.9259,2.0101,2.4679,2.7833,2.9617,3.0031,2.9155,2.7165,2.4148,2.1784,1.9733,1.7105,1.6083,1.6083,1.6083,1.6083,1.6083,0.0,0.0,0.0,0.0,0.0,0.0,0.0,0.0,0.0,0.0,0.0,0.0,2.379,2.4008,2.4182,2.4182,2.4412,2.4586,2.4599,2.4599,2.4599,2.4599,2.4599,0.0,2.4599,2.4599,2.477,2.5064,2.5064,2.5211,2.5491,2.5824,2.5957,2.5957,2.5971,2.5971,2.5998,2.6265,2.6346,2.6373,2.6373,2.6373,2.6386,2.6386,2.6386,2.6386,0.0,0.0,0.0,0.0,0.0,0.0,0.0,2.6386,2.6386,0.0,0.0,0.0,2.6386,2.6386,2.6533,2.7162,2.7309,2.7456,2.8045,2.8179,2.8179,2.8179,2.8179,2.8179,2.8179,2.8179,2.8179,2.8179,2.8179,2.8179,2.8179,2.8644,2.8975,2.9001,2.7444,2.5389,2.2923,2.0529,0.0,0.0,1.5275,1.5181,1.5181,1.5181,1.5181,1.5181,1.5181,1.5181,1.5181,1.5181,1.5181,1.5228,1.7716,2.0259,2.2879,2.5782,2.7216,2.7452,2.7475,2.7629,2.7372,2.2312,2.0126,1.9733,1.7105,1.6083,1.6083,1.6083,1.6083,1.6083,0.0,0.0,0.0,0.0,0.0,0.0,0.0,0.0,0.0,0.0,0.0,0.0,0.0,2.4302,2.4439,2.4439,2.4532,2.4599,2.4599,2.4599,2.4599,2.4599,2.4599,2.4693,2.4917,2.4917,2.5064,2.5358,2.5358,2.5504,2.5798,2.5944,2.6091,2.6279,2.6279,2.6279,2.6239,2.6346,2.6386,2.6386,2.6386,2.6386,2.6386,2.6386,0.0,0.0,0.0,0.0,0.0,0.0,0.0,0.0,0.0,0.0,2.6386,2.6386,2.6386,2.6386,2.6386,2.6386,2.648,2.6881,2.7121,2.7416,2.7804,2.8045,2.8179,2.8179,2.8179,2.8179,2.8179,2.8179,2.8179,2.8179,2.8179,2.8179,2.8179,2.8657,2.9001,2.9001,2.8741,2.6966,2.2979,2.1728,0.0,0.0,0.0,1.5181,1.5181,1.5181,1.5181,1.5181,1.5181,1.5181,1.5181,1.5181,1.5181,1.5228,1.6104,1.7952,2.0645,2.1745,2.3239,2.4896,2.3302,2.2683,2.2653,2.0755,1.9002,1.7402,1.6474,1.6083,1.6083,1.6083,1.6083,1.6083,0.0,0.0,0.0,0.0,0.0,0.0,0.0,0.0,0.0,2.3915,0.0,0.0,0.0,0.0,2.4599,2.4599,2.4599,2.4599,2.4599,2.4599,2.4639,2.4746,2.4783,2.4917,2.5224,2.5168,2.5277,2.5665,2.5558,2.5718,2.6145,2.6145,2.6238,2.6386,2.6386,2.6386,2.6386,2.6386,2.6386,2.6386,2.6386,2.6386,2.6386,2.6386,0.0,0.0,0.0,0.0,0.0,0.0,0.0,0.0,0.0,0.0,0.0,0.0,2.6386,2.6386,2.6386,2.6386,2.6453,2.6747,2.7041,2.7389,2.7629,2.7965,2.8179,2.8179,2.8179,2.8179,2.8179,2.8179,2.8179,2.8179,2.8179,2.8179,2.8179,2.8657,2.9001,2.9001,2.8785,2.7057,2.2979,2.1774,1.9613,0.0,0.0,0.0,1.5181,1.5181,1.5181,1.5181,1.5181,1.5181,1.5181,1.5181,1.5181,1.5228,1.6162,1.804,2.0698,2.1707,2.2777,2.3658,2.2011,2.0804,1.9929,1.9051,1.7692,1.6083,1.6083,1.6083,1.6083,1.6083,1.6083,1.6225,0.0,0.0,0.0,0.0,0.0,0.0,0.0,0.0,2.4222,2.4222,0.0,0.0,0.0,0.0,0.0,2.4599,2.4599,2.4599,2.4613,2.4613,2.4746,2.5115,2.509,2.5224,2.5518,2.5251,2.5422,2.6011,2.5678,2.5825,2.6386,2.6386,2.6386,2.6386,2.6386,2.6386,2.6386,2.6386,2.6386,2.6386,2.6386,2.6386,2.6386,0.0,0.0,0.0,2.6386,2.6386,0.0,2.6386,0.0,0.0,0.0,0.0,0.0,0.0,0.0,2.6386,0.0,0.0,0.0,2.6734,2.7041,2.7376,2.7629,2.7965,2.8179,2.8179,2.8179,2.8179,2.8179,2.8179,2.8179,2.8179,2.8179,2.8179,2.8179,2.8657,2.8988,2.9001,2.7412,2.5309,2.2739,2.0391,1.7949,0.0,1.5181,1.5181,1.5181,1.5181,1.5181,1.5181,1.5181,1.5228,1.5321,1.5321,1.5321,1.5462,1.8126,2.084,2.3601,2.6212,2.6126,2.388,2.3831,2.2312,1.9683,1.7154,1.6083,1.6083,1.6083,1.6083,1.6083,1.6083,1.6133,1.6573,0.0,0.0,0.0,0.0,0.0,2.4155,2.4369,2.4426,2.4479,0.0,0.0,0.0,2.4599,2.4599,2.4599,2.4599,2.4599,2.4693,2.4943,2.4957,2.509,2.5384,2.5398,2.5531,2.5864,2.5797,2.5931,2.6266,2.6186,2.6226,2.6386,2.6386,2.6386,2.6386,2.6386,2.6386,2.6386,2.6386,2.6386,2.6386,2.6386,2.6386,0.0,0.0,0.0,0.0,0.0,2.6386,2.6386,0.0,2.6386,2.6386,0.0,0.0,0.0,0.0,0.0,0.0,2.6386,0.0,0.0,0.0,0.0,0.0,2.7403,2.7817,2.8179,2.8179,2.8179,2.8179,2.8179,2.8179,2.8179,2.8179,2.8179,2.8179,2.8179,2.8484,2.8761,2.8975,2.8736,2.6986,2.2958,2.1912,1.9752,0.0,1.5181,1.5181,1.5181,1.5181,1.5181,1.5181,1.5181,1.6058,1.7856,1.7856,1.8731,2.0492,2.1477,2.3422,2.6058,2.5159,2.4438,2.3783,2.1881,1.9593,1.7105,1.6374,1.6083,1.6083,1.6083,1.6083,1.6083,1.6083,1.7303,1.9002,0.0,0.0,0.0,0.0,0.0,2.4399,2.4572,2.4599,2.4599,0.0,0.0,0.0,2.4599,2.4706,2.4823,2.4823,2.4893,2.5077,2.5251,2.5264,2.5398,2.5692,2.5692,2.5838,2.6172,2.6051,2.6131,2.6386,2.6305,2.6266,2.6386,2.6386,2.6386,2.6386,2.6386,2.6386,2.6386,2.6386,2.6386,2.6386,2.6386,0.0,0.0,2.6386,2.6386,0.0,0.0,0.0,2.6386,2.6386,2.6386,0.0,0.0,0.0,0.0,0.0,0.0,0.0,0.0,0.0,2.6386,2.6386,0.0,0.0,2.7309,2.7764,2.8179,2.8179,2.8179,2.8179,2.8179,2.8179,2.8179,2.8179,2.8179,2.8179,2.8179,2.8417,2.8711,2.8961,2.9299,2.8086,2.4467,2.4078,2.2004,1.7118,1.6752,1.6292,1.5275,1.5181,1.5181,1.5181,1.6198,1.7445,1.8871,1.9882,2.1129,2.252,2.3995,2.5537,2.711,2.7037,2.6455,2.5383,2.2751,2.0126,1.7642,1.6573,1.6083,1.6083,1.6083,1.6083,1.6225,1.7303,1.8714,2.0314,0.0,0.0,2.4599,2.4599,2.4599,2.4599,2.4599,2.4599,2.4599,0.0,2.4626,2.4666,2.4693,2.497,2.513,2.513,2.5371,2.5531,2.5558,2.5558,2.5692,2.6038,2.6038,2.6172,2.6386,2.6172,2.6172,2.6386,2.6172,2.6172,2.6386,2.6386,2.6386,2.6386,2.6386,2.6386,2.6386,2.6386,2.6386,2.6386,2.6386,2.6386,0.0,0.0,2.6386,2.6386,2.6386,2.6386,2.6386,2.6386,2.6386,0.0,0.0,0.0,0.0,0.0,2.6386,0.0,0.0,0.0,0.0,0.0,0.0,0.0,2.7309,2.7764,2.8179,2.8179,2.8179,2.8179,2.8179,2.8179,2.8179,2.8179,2.8179,2.8179,2.8179,2.8419,2.8671,2.8908,2.9232,2.8556,2.6385,2.6149,2.4126,1.928,1.8639,1.7538,1.5321,1.5181,1.5181,1.5181,1.7623,1.8917,1.8917,2.159,2.2923,2.2933,2.6051,2.7518,2.7635,3.0428,3.0258,2.7684,2.5335,2.2653,1.9831,1.7494,1.6374,1.6083,1.6083,1.6083,1.6424,1.9051,2.0166,2.1147,0.0,2.4559,2.4599,2.4599,2.4599,2.4599,2.4599,2.4599,2.4599,2.4599,2.4836,2.5077,2.5317,2.5398,2.5424,2.5424,2.5478,2.5611,2.5891,2.5904,2.6038,2.6293,2.6306,2.6333,2.6386,2.6333,2.6333,2.6386,2.6333,2.6333,2.6386,2.6386,2.6386,2.6386,2.6386,2.6386,2.6386,2.6386,2.6386,2.6386,2.6386,2.6386,2.6386,2.6386,2.6386,2.6386,2.6386,2.6386,2.6386,2.6386,2.6386,2.6386,0.0,0.0,0.0,0.0,0.0,0.0,0.0,0.0,0.0,0.0,0.0,0.0,2.7309,2.7764,2.8179,2.8179,2.8179,2.8179,2.8179,2.8179,2.8179,2.8179,2.8179,2.8179,2.8179,2.8232,2.8393,2.8657,2.8738,2.7995,2.6056,2.5879,2.3953,1.9271,1.7025,1.569,1.5228,1.5181,1.5181,1.5181,1.7623,1.8917,1.8917,2.3289,2.5491,2.5503,2.8582,3.0076,3.0102,3.1208,3.0258,2.778,2.7239,2.4366,1.9978,1.9446,1.7981,1.6083,1.6083,1.6083,1.6424,1.9051,2.1343,2.3588,2.4599,2.4599,2.4599,2.4599,2.4756,2.4863,2.4863,2.4946,2.5039,2.5039,2.5211,2.5344,2.5504,2.5651,2.5732,2.5732,2.5865,2.6012,2.6198,2.6212,2.6279,2.6386,2.6386,2.6386,2.6386,2.6386,2.6386,2.6386,2.6386,2.6386,2.6386,2.6386,2.6386,2.6386,2.6386,2.6386,2.6386,2.6386,2.6386,2.6386,2.6386,0.0,2.6386,2.6386,2.6386,2.6413,2.6547,2.6707,2.6867,2.6867,2.6734,0.0,0.0,2.6507,2.6386,0.0,2.6386,2.6386,0.0,0.0,0.0,2.6573,0.0,0.0,0.0,2.7871,2.8179,2.8179,2.8179,2.8179,2.8179,2.8179,2.8179,2.8179,2.8179,2.8179,2.8179,2.8179,2.8299,2.8577,2.8604,2.829,2.7467,2.7542,2.5723,2.1064,1.8414,1.6526,1.5275,1.5181,1.5784,1.7025,1.9427,2.1314,2.2546,2.6184,2.8076,2.8076,2.9893,3.0795,3.0808,3.1396,3.0985,2.9673,2.8368,2.5577,2.193,2.193,2.042,1.7939,1.6623,1.6083,1.6573,2.0519,2.2751,2.4463,2.4693,2.4679,2.4706,2.4759,2.501,2.5157,2.5157,2.5358,2.5531,2.5585,2.5239,2.515,2.564,2.5542,2.5596,2.6039,2.6292,2.6386,2.6386,2.6386,2.6386,2.6386,2.6386,2.6386,2.6386,2.6386,2.6386,2.6386,2.6386,2.6386,2.6386,2.6386,2.6386,2.6386,2.6386,2.6386,2.6386,2.6386,2.6386,2.6386,0.0,2.6386,2.6386,2.6386,2.6426,2.6507,2.68,2.7068,2.7309,2.7309,0.0,2.6907,2.6907,2.6747,0.0,0.0,0.0,0.0,0.0,0.0,0.0,0.0,0.0,2.7415,0.0,0.0,0.0,2.8179,2.8179,2.8179,2.8179,2.8179,0.0,2.8112,0.0,0.0,0.0,2.8152,0.0,2.8484,2.8524,2.8631,2.8881,2.882,2.7023,2.2749,2.0225,1.781,1.5321,1.5643,1.6845,1.8824,2.1682,2.393,2.5446,2.8436,2.9644,2.9182,3.0273,3.0795,3.0808,3.1396,3.1426,3.0843,2.8704,2.6023,2.314,2.314,2.1588,1.9101,1.7494,1.7154,1.8088,2.2321,2.422,2.5335,2.5077,2.5024,2.5117,2.5371,2.5438,2.5464,2.5464,2.5491,2.5611,2.5904,2.4231,2.3847,2.6056,2.4579,2.4234,2.6175,0.0,0.0,2.6386,0.0,2.6386,2.6386,2.6386,2.6386,2.6386,2.6386,2.6386,2.6386,2.6386,2.6386,2.6386,2.6386,2.6386,2.6386,2.6386,2.6386,2.6386,2.6386,2.6386,2.6386,2.6386,2.6386,0.0,2.6386,2.6547,2.6814,2.7148,2.7282,2.7309,0.0,2.7282,2.7255,0.0,2.7229,2.7202,0.0,0.0,0.0,0.0,0.0,0.0,0.0,2.7428,0.0,0.0,0.0,2.8179,2.8179,0.0,2.8179,0.0,0.0,0.0,0.0,0.0,0.0,2.7789,2.8018,2.8205,2.8232,2.8232,2.8366,2.8631,2.7184,2.5081,2.2333,2.0143,1.781,1.5321,1.7305,1.8592,1.8871,2.3381,2.4854,2.2923,2.7567,2.8809,2.6649,2.9481,3.0795,3.0808,3.1396,3.0449,2.8212,2.7924,2.4996,2.0412,2.0412,1.8912,1.6715,1.8764,2.0951,2.3101,2.3686,2.5383,2.778,2.5358,2.5331,2.5371,2.5491,2.5651,2.5772,2.5772,2.5919,2.6066,2.6225,2.4308,2.3341,2.4378,0.0,0.0,0.0,0.0,2.314,0.0,0.0,2.5052,2.6347,2.6386,2.6386,2.6386,2.6386,2.6386,2.6386,2.6386,2.6386,2.6386,2.6386,2.6386,2.6386,2.6386,2.6386,2.6386,2.6386,2.6386,0.0,0.0,0.0,0.0,2.664,2.6934,2.7348,2.7468,2.767,2.7817,0.0,2.7697,0.0,0.0,0.0,0.0,0.0,0.0,0.0,0.0,0.0,0.0,0.0,0.0,0.0,2.7965,0.0,2.8179,0.0,0.0,0.0,0.0,0.0,0.0,0.0,2.8098,0.0,0.0,0.0,2.8179,0.0,0.0,0.0,2.8577,2.8038,2.6721,2.4419,2.2242,1.9928,1.7491,1.6986,1.8042,2.0899,2.2969,2.4261,2.4626,2.8121,2.8674,2.6241,2.933,3.0795,3.0808,3.1396,3.108,2.9972,2.8452,2.6554,2.4511,2.4511,2.388,2.3004,2.4123,2.3335,2.1979,2.5045,2.6854,2.8164,2.4959,2.5254,2.5665,2.5745,2.5932,2.5909,2.5309,2.5359,2.529,2.4681,2.2688,2.1552,2.2166,2.0312,0.0,0.0,1.9907,2.0554,0.0,0.0,2.318,0.0,0.0,0.0,0.0,2.6386,2.6386,2.6386,2.6386,2.6386,2.6386,2.6386,2.6386,2.6386,2.6386,2.6386,2.6386,2.648,2.6507,2.6533,2.6827,2.6987,2.7068,2.7068,2.7321,2.7709,2.7789,2.8005,2.8179,2.8179,2.8045,0.0,2.7816,0.0,0.0,0.0,0.0,0.0,2.755,0.0,0.0,0.0,0.0,0.0,0.0,0.0,0.0,0.0,0.0,0.0,0.0,0.0,0.0,0.0,0.0,2.8152,0.0,2.8138,0.0,0.0,0.0,0.0,0.0,2.8751,2.8016,2.5858,2.4258,2.2393,2.0021,1.8824,1.9836,2.3381,2.4158,2.54,2.7193,2.8989,2.9028,2.736,2.9703,3.0835,3.0929,3.1436,3.1331,3.0544,2.8608,2.7384,2.6746,2.6746,2.6746,2.6806,2.754,2.548,2.2604,2.6409,2.826,2.9135,2.3596,2.468,2.6078,2.6319,2.6373,2.5687,2.3528,2.3208,2.2447,2.0393,0.0,0.0,0.0,0.0,0.0,0.0,0.0,1.9947,1.9988,0.0,2.0958,0.0,0.0,2.4191,0.0,0.0,2.6386,2.6386,2.6386,2.6386,2.6386,2.6386,2.6386,2.6386,2.6386,2.6386,2.6413,2.6694,2.6814,2.6827,2.7134,2.7415,2.7669,0.0,2.7682,2.7736,2.8072,0.0,0.0,2.8179,2.8179,0.0,0.0,0.0,0.0,0.0,0.0,0.0,0.0,0.0,0.0,2.8165,0.0,0.0,0.0,0.0,2.8179,0.0,0.0,0.0,0.0,0.0,0.0,0.0,0.0,0.0,0.0,0.0,0.0,0.0,0.0,0.0,0.0,2.8444,2.7719,2.5554,2.5579,2.4744,2.25,2.458,2.5912,2.6093,2.8391,2.9689,2.9779,2.9869,3.0015,3.025,3.0648,3.0942,3.1223,3.153,3.0306,2.7924,2.7828,2.6361,2.4026,2.4026,2.4026,2.4269,2.6806,2.7684,2.7588,2.7732,2.9386,3.1569,2.5409,2.5819,2.5385,2.2596,2.2086,2.2338,2.302,2.31,2.286,0.0,0.0,0.0,0.0,1.5761,1.4788,0.0,0.0,1.682,1.9704,1.8526,0.0,0.0,0.0,2.4151,0.0,0.0,0.0,2.6386,2.6386,2.6386,2.6386,2.6386,2.6386,2.6386,2.6386,2.6493,2.668,0.0,0.0,0.0,0.0,2.7736,2.8031,0.0,0.0,2.8045,2.8152,2.8179,0.0,2.8179,2.8179,2.8179,2.8179,2.8179,2.8179,2.8179,2.8179,0.0,0.0,0.0,2.8179,2.8179,0.0,0.0,0.0,0.0,0.0,0.0,0.0,0.0,0.0,0.0,0.0,0.0,0.0,0.0,0.0,0.0,0.0,0.0,0.0,0.0,0.0,0.0,2.838,2.7815,2.6556,2.5555,2.4979,2.4204,2.4489,2.6139,2.7012,2.7476,2.7476,2.9079,2.9131,2.7657,2.9762,3.0849,3.0955,3.145,3.1236,3.0258,2.856,2.826,2.8931,2.7191,2.748,2.9135,3.0055,3.0401,3.0401,3.0401,3.0938,3.1711,2.537,2.5251,2.4602,2.2579,2.2218,2.2166,2.2006,2.1965,0.0,0.0,1.722,0.0,1.6524,0.0,1.3728,0.0,1.3852,1.4582,1.7392,1.6246,0.0,2.2688,2.1552,0.0,0.0,0.0,0.0,0.0,2.6017,2.6386,2.6386,2.6386,2.6386,2.6386,2.6493,2.664,2.68,2.7041,2.7241,0.0,0.0,2.8018,0.0,0.0,2.8179,2.8179,0.0,2.8179,2.8179,2.8179,2.8179,2.8179,2.8179,2.8179,2.8179,2.8179,2.8179,2.8179,2.8179,2.8179,0.0,2.8179,2.8179,0.0,2.8179,0.0,0.0,0.0,0.0,0.0,0.0,0.0,0.0,0.0,0.0,0.0,0.0,2.8179,0.0,0.0,0.0,0.0,0.0,2.8366,2.8564,2.8815,2.768,2.7046,0.0,0.0,2.5866,2.7476,2.7521,2.7521,2.7521,2.9092,2.9131,2.7715,2.9808,3.0849,3.0969,3.145,3.1711,3.1616,2.9911,3.0163,3.1569,2.9864,3.0163,3.1711,3.1711,3.1711,3.1711,3.1711,3.1711,3.1711,2.3672,2.326,2.3952,2.6017,2.6228,0.0,0.0,0.0,1.8241,0.0,1.348,1.4176,1.6205,1.4623,1.4217,1.6237,1.4589,1.3452,1.3576,1.35,0.0,0.0,1.6664,1.7719,2.0028,0.0,0.0,0.0,0.0,2.6386,2.6386,2.6386,2.64,2.6426,2.6694,2.6841,2.6867,2.7455,2.7709,2.7749,2.8072,2.8179,2.8179,2.8179,2.8179,2.8179,2.8179,2.8179,2.8179,2.8179,2.8179,2.8179,2.8179,2.8179,2.8179,2.8179,2.8179,2.8179,2.8179,2.8179,2.8179,2.8179,0.0,0.0,0.0,0.0,2.8179,0.0,0.0,0.0,0.0,0.0,0.0,0.0,0.0,0.0,0.0,0.0,0.0,0.0,0.0,0.0,0.0,2.8179,2.8312,2.8577,2.8828,2.9165,0.0,2.9753,2.9913,2.9913,2.9913,2.9913,2.9913,2.9913,3.006,3.0386,3.0648,3.0942,3.1162,3.153,3.1711,3.1711,3.1711,3.1711,3.1711,3.1711,3.1711,3.1711,3.1711,3.1711,3.1711,3.1711,3.1711,3.1711,2.566,2.5528,2.574,0.0,2.3712,2.0635,0.0,0.0,0.0,0.0,1.4375,1.3604,1.4176,1.3728,1.3604,1.4176,1.3791,0.0,0.0,0.0,0.0,1.904,1.7678,1.8553,2.2218,2.282,0.0,2.5528,0.0,2.6386,2.6386,2.6386,2.6507,2.6707,2.6787,2.7068,2.7482,2.7629,2.7829,2.8072,2.8152,2.8179,0.0,0.0,2.8179,2.8179,2.8179,2.8179,2.8179,2.8179,2.8179,2.8179,2.8179,2.8179,2.8179,2.8179,2.8179,2.8179,2.8179,2.8179,2.8179,2.8179,2.8179,2.8179,0.0,0.0,0.0,0.0,0.0,0.0,0.0,0.0,0.0,0.0,0.0,0.0,0.0,0.0,0.0,2.8179,0.0,0.0,2.8179,2.8179,2.8312,2.8577,2.8828,2.9165,2.9472,0.0,0.0,2.9913,2.9913,2.9913,2.9913,2.9913,2.9953,3.0034,3.0555,3.0835,3.0929,3.1483,3.1711,3.1711,3.1711,3.1711,3.1711,3.1711,3.1711,3.1711,3.1711,3.1711,3.1711,3.1711,3.1711,3.1711,2.6386,0.0,0.0,2.3872,0.0,0.0,1.8231,1.722,0.0,1.5417,1.4242,0.0,1.4914,1.4133,1.3965,1.4922,1.4217,0.0,1.5471,0.0,0.0,1.7263,1.7179,1.8162,2.0518,2.2493,0.0,2.5367,0.0,2.6774,2.6774,2.6774,2.6854,2.7028,2.7148,2.7388,2.7709,2.7843,2.8031,2.8179,2.8179,0.0,0.0,2.8179,2.8179,2.8179,2.8179,2.8179,2.8179,2.8179,2.8179,2.8179,2.8179,2.8179,2.8179,2.8179,2.8179,2.8179,2.8179,2.8179,2.8179,2.8179,2.8179,2.8179,2.8179,2.8179,2.8179,0.0,0.0,0.0,0.0,0.0,0.0,0.0,0.0,0.0,0.0,0.0,0.0,0.0,2.8179,0.0,2.8179,2.8179,2.8259,2.839,2.8804,2.9068,0.0,0.0,0.0,2.9913,2.9913,2.9913,2.9913,2.9913,2.998,3.0114,3.0568,3.0862,3.0996,3.1463,3.1711,3.1711,3.1711,3.1711,3.1711,3.1711,3.1711,3.1711,3.1711,3.1711,3.1711,3.1711,3.1711,3.1711,2.6386,0.0,0.0,0.0,0.0,0.0,0.0,1.7641,0.0,1.3845,0.0,1.4415,1.6442,1.4942,1.4557,1.6501,0.0,1.3957,1.425,1.4307,1.4436,1.4714,1.6695,1.7908,1.8177,2.1983,0.0,0.0,0.0,2.7309,2.7309,2.7309,2.7322,2.7376,2.7589,2.7722,2.7776,2.8072,2.8179,2.8179,2.8179,2.8205,2.8245,2.8245,2.8272,2.8299,2.8299,2.8259,2.8179,2.8179,2.8179,2.8179,2.8179,2.8179,2.8179,2.8179,2.8179,2.8179,2.8179,2.8179,2.8179,2.8179,2.8179,2.8179,2.8179,2.8179,2.8179,2.8179,2.8179,2.8179,0.0,0.0,0.0,0.0,0.0,0.0,0.0,0.0,0.0,0.0,0.0,0.0,0.0,0.0,2.8179,2.8179,2.8698,0.0,0.0,0.0,0.0,2.9913,2.9913,2.9913,2.9913,0.0,3.006,3.0413,3.0662,3.0942,3.1189,3.153,3.1711,3.1711,3.1711,3.1711,3.1711,3.1711,3.1711,3.1711,3.1711,3.1711,3.1711,3.1711,3.1711,3.1711,2.6386,0.0,0.0,0.0,0.0,1.9818,1.7869,1.5619,1.4056,1.3783,1.3761,1.3939,1.4344,1.4052,1.3966,1.4351,1.4169,0.0,0.0,0.0,0.0,1.9647,2.0148,2.1115,2.2785,2.3614,2.4877,0.0,0.0,0.0,2.7309,2.7309,2.7429,2.7629,2.7682,2.7829,2.8112,2.8165,0.0,2.8179,2.8179,2.8339,2.8524,2.8524,2.8671,2.8841,2.8841,2.8564,2.8179,2.8179,2.8179,2.8179,2.8179,2.8179,2.8179,2.8179,2.8179,2.8179,2.8179,2.8179,2.8179,2.8179,2.8179,2.8179,2.8179,2.8179,2.8179,2.8179,2.8179,2.8179,2.8179,0.0,0.0,0.0,0.0,0.0,0.0,0.0,0.0,0.0,0.0,2.8179,0.0,0.0,0.0,0.0,0.0,0.0,0.0,0.0,0.0,0.0,2.9913,0.0,0.0,0.0,3.006,3.0413,3.0662,3.0942,3.1189,3.153,3.1711,3.1711,3.1711,3.1711,3.1711,3.1711,3.1711,3.1711,3.1711,3.1711,3.1711,3.1711,3.1711,3.1711,2.6814,0.0,0.0,0.0,0.0,0.0,0.0,1.4586,0.0,1.3953,1.396,1.3994,1.4068,1.4082,1.4082,1.4082,1.415,1.4666,1.5789,1.5944,1.6426,1.7463,1.8702,0.0,2.078,2.1917,2.3672,2.5933,0.0,0.0,2.7764,2.7764,2.7831,2.7965,2.7965,2.8045,2.8179,0.0,0.0,2.8419,2.8419,2.8564,2.8831,2.8831,2.8868,2.9001,2.9001,2.8815,2.8604,2.8604,2.8604,2.8604,2.8604,2.8604,2.8604,2.8604,2.8604,2.8604,2.8604,2.8604,2.8604,2.8604,2.8497,2.8417,2.8577,2.8406,2.8232,2.8393,2.8299,2.8179,2.8179,2.8179,0.0,0.0,0.0,0.0,0.0,0.0,0.0,0.0,0.0,0.0,0.0,0.0,0.0,0.0,0.0,0.0,0.0,0.0,0.0,0.0,0.0,0.0,0.0,0.0,0.0,3.0581,3.0728,3.1022,3.1463,3.1644,3.1711,3.1711,3.1711,3.1711,3.1711,3.1711,3.1711,3.1711,3.1711,3.1711,3.1711,3.1711,3.1711,3.1711,0.0,2.5091,0.0,0.0,1.843,0.0,1.4493,1.419,1.419,1.4173,1.4193,1.4211,1.4333,1.4373,1.438,1.4346,1.4346,1.4547,1.4999,1.5513,1.5998,1.6473,1.8758,2.0009,2.0009,2.1782,2.3598,0.0,0.0,0.0,0.0,2.8179,2.8179,2.8179,0.0,0.0,0.0,0.0,2.846,2.8698,2.8698,2.8828,2.9095,2.9095,2.9121,2.9188,2.9188,2.9188,2.9188,2.9188,2.9095,2.9001,2.9001,2.9001,2.9001,2.9001,2.9001,2.9001,2.9001,2.9001,2.9001,2.9001,2.8828,2.8764,2.8948,2.8671,2.8446,2.8644,2.8511,2.8379,2.8379,2.8379,0.0,0.0,0.0,0.0,0.0,0.0,0.0,0.0,0.0,0.0,2.8179,0.0,0.0,0.0,0.0,0.0,2.9001,0.0,0.0,0.0,0.0,2.9913,2.9913,0.0,3.0207,0.0,3.0795,3.1102,3.1711,3.1711,3.1711,3.1711,3.1711,3.1711,3.1711,3.1711,3.1711,3.1711,3.1711,3.1711,3.1711,3.1711,3.1711,3.1711,0.0,0.0,0.0,0.0,0.0,0.0,1.4819,1.459,1.4584,1.4312,1.4387,1.4475,1.4489,1.4572,1.4599,1.4502,1.4489,1.5312,1.7342,1.9401,2.148,2.3652,2.5981,2.7223,2.7223,2.7448,2.7659,0.0,0.0,0.0,0.0,0.0,0.0,0.0,0.0,0.0,0.0,2.8564,2.8738,2.8961,2.8961,2.9179,2.9446,2.9446,2.9606,2.9833,2.9833,2.9833,2.9833,2.9833,2.9442,2.9001,2.9001,2.9001,2.9001,2.9001,2.9001,2.9001,2.9001,2.9001,2.9001,2.9001,2.8975,2.8961,2.8988,2.8948,2.8921,2.8948,2.8935,2.8908,2.8908,2.8908,2.8871,0.0,0.0,0.0,0.0,0.0,0.0,0.0,0.0,0.0,0.0,2.8179,0.0,0.0,2.8815,0.0,0.0,0.0,0.0,2.9913,0.0,2.9913,2.9913,2.9913,3.0207,3.0795,3.0795,3.1102,3.1711,3.1711,3.1711,3.1711,3.1711,3.1711,3.1711,3.1711,3.1711,3.1711,3.1711,3.1711,3.1711,3.1711,3.1711,3.1711,0.0,0.0,0.0,0.0,0.0,0.0,0.0,1.4654,1.4654,1.4532,1.4566,1.4606,1.4606,1.466,1.4667,1.4606,1.4606,1.4979,1.5891,1.8182,1.9948,2.0876,2.325,2.4447,2.4298,2.4298,2.4875,0.0,0.0,0.0,0.0,0.0,0.0,0.0,0.0,2.8591,2.8828,2.8828,2.9032,2.9312,2.9312,2.9486,2.974,2.974,2.982,2.9913,2.9913,2.9913,2.9913,2.9913,2.9753,2.9522,2.9522,2.9522,2.9522,2.9522,2.9522,2.9522,2.9522,2.9522,2.9522,2.9522,2.9432,2.9352,2.9482,2.9242,2.9041,2.9272,2.9121,2.9001,2.9001,2.9001,2.8961,0.0,0.0,0.0,0.0,0.0,0.0,0.0,0.0,0.0,0.0,0.0,0.0,0.0,0.0,0.0,0.0,0.0,0.0,2.9913,0.0,2.9913,2.9913,3.01,3.0394,3.0795,3.0969,3.1263,3.1711,3.1711,3.1711,3.1711,3.1711,3.1711,3.1711,3.1711,3.1711,3.1711,3.1711,3.1711,3.1711,3.1711,3.1711,3.1711,2.0538,0.0,1.7856,0.0,1.5862,1.4808,1.4808,1.4841,1.4869,1.4869,1.4869,1.4809,1.4814,1.4796,1.4809,1.4808,1.4808,1.5055,1.5727,1.8051,1.9743,2.0504,2.2823,0.0,2.3863,2.3852,2.4525,2.5958,2.5958,0.0,0.0,0.0,0.0,0.0,2.8738,2.8898,2.9165,2.9165,2.9339,2.9606,2.9606,2.9726,2.9913,2.9913,2.9913,2.9913,2.9913,2.9913,2.9913,2.9913,2.9913,2.9913,2.9913,2.9913,2.9913,2.9913,2.9913,2.9913,2.9913,2.9913,2.9913,2.9913,2.9766,2.9659,2.9873,2.9548,2.9308,2.9566,2.9446,2.9255,2.9255,2.9255,2.9228,2.9135,0.0,0.0,0.0,0.0,0.0,0.0,2.9001,2.9001,2.9001,2.9001,0.0,0.0,0.0,0.0,0.0,0.0,0.0,0.0,0.0,0.0,0.0,3.0306,3.0541,3.0929,3.1129,3.1383,3.1711,3.1711,3.1711,3.1711,3.1711,3.1711,3.1711,3.1711,3.1711,3.1711,3.1711,3.1711,3.1711,3.1711,3.1711,3.1711,1.8682,1.8231,1.7472,1.5143,1.4869,1.5017,1.5017,1.5086,1.5174,1.5174,1.5174,1.5126,1.503,1.5092,1.512,1.5023,1.5017,1.5947,1.8194,2.0549,2.2966,0.0,0.0,2.8901,2.8901,2.8901,2.8901,2.8945,0.0,0.0,2.8988,0.0,2.8988,2.8988,2.8988,2.9205,2.9486,2.9486,2.9646,2.9913,2.9913,2.9913,2.9913,2.9913,2.9913,2.9913,2.9913,2.9913,2.9913,2.9913,2.9913,2.9913,2.9913,2.9913,2.9913,2.9913,2.9913,2.9913,2.9913,2.9913,2.9913,2.9913,2.9913,2.9913,2.9913,2.9913,2.99,2.9913,2.9913,2.99,2.99,2.99,2.9806,2.9526,0.0,0.0,0.0,0.0,0.0,0.0,2.9001,2.9001,2.9001,2.9001,0.0,0.0,0.0,0.0,0.0,0.0,0.0,2.9913,2.9913,0.0,3.04,3.04,3.0648,3.1223,3.1176,3.1383,3.1711,3.1711,3.1711,3.1711,3.1711,3.1711,3.1711,3.1711,3.1711,3.1711,3.1711,3.1711,3.1711,3.1711,3.1711,3.1711,1.6147,1.6032,1.5792,1.5164,1.5079,1.516,1.516,1.5153,1.5181,1.5181,1.5181,1.5167,1.512,1.5153,1.5856,0.0,1.7637,1.8669,0.0,2.3478,2.5161,2.5983,2.8316,2.9539,2.9352,2.9339,2.9245,2.9001,0.0,0.0,0.0,2.9001,2.9108,2.9339,2.9339,2.9499,2.978,2.978,2.9833,2.9913,2.9913,2.9913,2.9913,2.9913,2.9913,2.9913,2.9913,2.9913,2.9913,2.9913,2.9913,2.9913,2.9913,2.9913,2.9913,2.9913,2.9913,2.9913,2.9913,2.9913,2.9913,2.9913,2.9913,2.9913,2.9913,2.9913,2.9913,2.9913,2.9913,2.9913,2.9913,2.9913,2.9887,2.9793,2.978,0.0,0.0,0.0,0.0,0.0,0.0,2.9588,0.0,2.9588,0.0,0.0,0.0,0.0,0.0,0.0,0.0,0.0,2.9913,0.0,3.04,3.06,3.0849,3.1176,3.1436,3.1583,3.1711,3.1711,3.1711,3.1711,3.1711,3.1711,3.1711,3.1711,3.1711,3.1711,3.1711,3.1711,3.1711,3.1711,3.1711,3.1711,1.5031,1.5098,1.5079,1.5167,1.5181,1.5181,1.5181,1.5181,1.5181,1.5181,1.5181,1.5181,1.5181,1.5181,0.0,1.7398,1.7491,1.8546,2.0991,2.2602,2.4295,2.6139,2.7702,2.8867,2.9646,0.0,0.0,2.9322,2.9322,2.9322,2.9322,2.9322,2.9472,2.9646,2.9646,2.9753,2.9913,2.9913,2.9913,2.9913,2.9913,2.9913,2.9913,2.9913,2.9913,2.9913,2.9913,2.9913,2.9913,2.9913,2.9913,2.9913,2.9913,2.9913,2.9913,2.9913,2.9913,2.9913,2.9913,2.9913,2.9913,2.9913,2.9913,2.9913,2.9913,2.9913,2.9913,2.9913,2.9913,2.9913,2.9913,2.9913,2.9913,2.9913,2.9913,2.9913,2.9913,0.0,0.0,0.0,0.0,0.0,0.0,2.9913,0.0,0.0,0.0,0.0,0.0,0.0,0.0,2.9913,3.002,0.0,3.056,3.0808,3.1102,3.1396,3.1583,3.1711,3.1711,3.1711,3.1711,3.1711,3.1711,3.1711,3.1711,3.1711,3.1711,3.1711,3.1711,3.1711,3.1711,3.1711,3.1711,3.1711,1.5181,1.5181,0.0,0.0,1.5181,0.0,1.5181,1.5181,1.5181,1.5181,1.5181,1.5181,1.5181,1.5181,1.5181,1.5181,0.0,0.0,0.0,1.9419,2.1534,2.6229,2.6456,2.7521,2.9869,2.9913,2.9913,2.9913,2.9913,2.9913,2.9913,2.9913,2.9913,2.9913,2.9913,2.9913,2.9913,2.9913,2.9913,2.9913,2.9913,2.9913,2.9913,2.9913,2.9913,2.9913,2.9913,2.9913,2.9913,2.9913,2.9913,2.9913,2.9913,2.9913,2.9913,2.9913,2.9913,2.9913,2.9913,2.9913,2.9913,2.9913,2.9913,2.9913,2.9913,2.9913,2.9913,2.9913,2.9913,2.9913,2.9913,2.9913,2.9913,2.9913,2.9913,2.9913,2.9913,0.0,0.0,0.0,0.0,0.0,0.0,2.9913,2.9913,0.0,0.0,0.0,0.0,0.0,2.994,2.994,3.0266,3.056,3.0822,3.1089,3.137,3.1711,3.1711,3.1711,3.1711,3.1711,3.1711,3.1711,3.1711,3.1711,3.1711,3.1711,3.1711,3.1711,3.1711,3.1711,3.1711,3.1711,3.1711,3.1711,0.0,0.0,1.5181,1.5181,1.5181,1.5181,1.5181,1.5181,1.5181,1.5181,1.5181,1.5181,1.5181,1.5181,1.5181,1.5181,1.6939,1.9882,2.4204,2.4478,2.5809,2.8899,2.9034,2.9317,2.9869,2.9913,2.9913,2.9913,2.9913,2.9913,2.9913,2.9913,2.9913,2.9913,2.9913,2.9913,2.9913,2.9913,2.9913,2.9913,2.9913,2.9913,2.9913,2.9913,2.9913,2.9913,2.9913,2.9913,2.9913,2.9913,2.9913,2.9913,2.9913,2.9913,2.9913,2.9913,2.9913,2.9913,2.9913,2.9913,2.9913,2.9913,2.9913,2.9913,2.9913,2.9913,2.9913,2.9913,2.9913,2.9913,2.9913,2.9913,2.9913,2.9913,2.9913,2.9913,2.9913,2.9913,0.0,0.0,2.9913,2.9913,2.9913,2.9913,2.9913,0.0,0.0,0.0,0.0,3.0306,3.0306,3.0306,3.0373,3.0654,3.1116,3.1196,3.137,3.1711,3.1711,3.1711,3.1711,3.1711,3.1711,3.1711,3.1711,3.1711,3.1711,3.1711,3.1711,3.1711,3.1711,3.1711,3.1711,3.1711,3.1711,3.1711,1.5181,1.5181,1.5181,1.5181,1.5242,1.5289,1.5289,1.5343,1.5391,1.5391,1.533,1.5289,1.5289,1.6242,1.6892,1.6892,1.8135,2.0021,2.2683,2.3884,2.5639,2.8121,2.8211,2.8764,2.9869,2.9913,2.9913,2.9913,2.9913,2.9913,2.9913,2.9913,2.9913,2.9913,2.9913,2.9913,2.9913,2.9913,2.9913,2.9913,2.9913,2.9913,2.9913,2.9913,2.9913,2.9913,2.9913,2.9913,2.9913,2.9913,2.9913,2.9913,2.9913,2.9913,2.9913,2.9913,2.9913,2.9913,2.9913,2.9913,2.9913,2.9913,2.9913,2.9913,2.9913,2.9913,2.9913,2.9913,2.9913,2.9913,2.9913,2.9913,2.9913,2.9913,2.9913,2.9913,2.9913,2.9913,0.0,2.9913,2.9913,2.9913,2.9913,2.9913,2.9913,2.9913,3.0047,0.0,3.04,3.0533,3.0555,3.0555,3.0688,3.0902,3.1223,3.1356,3.1517,3.1711,3.1711,3.1711,3.1711,3.1711,3.1711,3.1711,3.1711,3.1711,3.1711,3.1711,3.1711,3.1711,3.1711,3.1711,3.1711,3.1711,3.1711,3.1711,1.5181,1.5201,1.5215,1.5215,1.5343,1.5445,1.5445,1.5506,1.5593,1.5593,1.5479,1.5445,1.5445,1.7561,1.8985,1.8913,1.9648,2.0048,2.0021,2.1912,2.4158,2.6649,2.6785,2.7747,2.9869,2.9913,2.9913,2.9913,2.9913,2.9913,2.9913,2.9913,2.9913,2.9913,2.9913,2.9913,2.9913,2.9913,2.9913,2.9913,2.9913,2.9913,2.9913,2.9913,2.9913,2.9913,2.9913,2.9913,2.9913,2.9913,2.9913,2.9913,2.9913,2.9913,2.9913,2.9913,2.9913,2.9913,2.9913,2.9913,2.9913,2.9913,2.9913,2.9913,2.9913,2.9913,2.9913,2.9913,2.9913,2.9913,2.9913,2.9913,2.9913,2.9913,2.9913,2.9913,2.9913,0.0,2.9913,2.9913,2.9913,2.9913,2.9913,2.9913,2.994,2.998,3.0266,3.044,3.0533,3.0728,3.0875,3.0929,3.1116,3.1203,3.1289,3.1543,3.1711,3.1711,3.1711,3.1711,3.1711,3.1711,3.1711,3.1711,3.1711,3.1711,3.1711,3.1711,3.1711,3.1711,3.1711,3.1711,3.1711,3.1711,3.1711,3.1711,1.5181,1.5289,1.5377,1.5377,1.5499,1.5553,1.5553,1.5573,1.5593,1.5593,1.5566,1.5553,1.5553,1.785,1.9324,1.9077,2.3014,2.5352,2.5093,2.54,2.674,2.9227,2.9317,2.9496,2.9869,2.9913,2.9913,2.9913,2.9913,2.9913,2.9913,2.9913,2.9913,2.9913,2.9913,2.9913,2.9913,2.9913,2.9913,2.9913,2.9913,2.9913,2.9913,2.9913,2.9913,2.9913,2.9913,2.9913,2.9913,2.9913,2.9913,2.9913,2.9913,2.9913,2.9913,2.9913,2.9913,2.9913,2.9913,2.9913,2.9913,2.9913,2.9913,2.9913,2.9913,2.9913,2.9913,2.9913,2.9913,2.9913,2.9913,2.9913,2.9913,2.9913,2.9913,2.9913,2.9913,0.0,2.9913,2.9913,2.9913,2.9913,2.9913,2.9913,3.002,3.0319,3.0386,3.0614,3.1062,3.1129,3.1276,3.153,3.133,3.1343,3.1597,3.165,3.1711,3.1711,3.1711,3.1711,3.1711,3.1711,3.1711,3.1711,3.1711,3.1711,3.1711,3.1711,3.1711,3.1711,3.1711,3.1711,3.1711,3.1711,3.1711,3.1711,1.5303,1.5432,1.5533,1.5533,1.5655,1.5757,1.5757,1.5825,1.5879,1.5879,1.7011,1.7866,1.7866,2.1296,2.3549,2.34,2.677,2.8837,2.8711,2.8375,2.8719,2.9869,2.9913,2.9913,2.9913,2.9913,2.9913,2.9913,2.9913,2.9913,2.9913,2.9913,2.9913,2.9913,2.9913,2.9913,2.9913,2.9913,2.9913,2.9913,2.9913,2.9913,2.9913,2.9913,2.9913,2.9913,2.9913,2.9913,2.9913,2.9913,2.9913,2.9913,2.9913,2.9913,2.9913,2.9913,2.9913,2.9913,2.9913,2.9913,2.9913,2.9913,2.9913,2.9913,2.9913,2.9913,2.9913,2.9913,2.9913,2.9913,2.9913,2.9913,2.9913,2.9913,2.9913,0.0,0.0,2.9913,2.9913,2.9913,2.9913,2.9913,2.9913,3.006,3.0207,3.04,3.0648,3.0942,3.1209,3.1383,3.153,3.1711,3.153,3.153,3.1711,3.1711,3.1711,3.1711,3.1711,3.1711,3.1711,3.1711,3.1711,3.1711,3.1711,3.1711,3.1711,3.1711,3.1711,3.1711,3.1711,3.1711,3.1711,3.1711,3.1711,3.1711,1.5466,1.5588,1.5689,1.5689,1.5811,1.5956,1.5956,1.6008,1.6083,1.6083,1.8317,1.9873,1.9873,2.4287,2.7251,2.7146,2.9458,3.0862,3.0795,3.0368,3.0087,3.002,2.9953,2.9913,2.9913,2.9913,2.9913,2.9913,2.9913,2.9913,2.9913,2.9913,2.9913,2.9913,2.9913,2.9913,2.9913,2.9913,2.9913,2.9913,2.9913,2.9913,2.9913,2.9913,2.9913,2.9913,2.9913,2.9913,2.9913,2.9913,2.9913,2.9913,2.9913,2.9913,2.9913,2.9913,2.9913,2.9913,2.9913,2.9913,2.9913,2.9913,2.9913,2.9913,2.9913,2.9913,2.9913,2.9913,2.9913,2.9913,2.9913,2.9913,2.9913,2.9913,0.0,0.0,0.0,2.9913,2.9913,2.9913,2.9913,2.994,3.0007,3.0266,3.0467,3.06,3.0969,3.1203,3.133,3.1543,3.1711,3.1711,3.1711,3.1711,3.1711,3.1711,3.1711,3.1711,3.1711,3.1711,3.1711,3.1711,3.1711,3.1711,3.1711,3.1711,3.1711,3.1711,3.1711,3.1711,3.1711,3.1711,3.1711,3.1711,3.1711,3.1711,1.5573,1.5737,1.5888,1.5888,1.601,1.6112,1.6112,1.6076,1.6083,1.6083,1.8361,2.0002,2.0002,2.4615,2.7627,2.7286,2.9657,3.1076,3.0808,3.0755,3.0608,3.0386,3.006,2.9913,2.9913,2.9913,2.9913,2.9913,2.9913,2.9913,2.9913,2.9913,2.9913,2.9913,2.9913,2.9913,2.9913,2.9913,2.9913,2.9913,2.9913,2.9913,2.9913,2.9913,2.9913,2.9913,2.9913,2.9913,2.9913,2.9913,2.9913,2.9913,2.9913,2.9913,2.9913,2.9913,2.9913,2.9913,2.9913,2.9913,2.9913,2.9913,2.9913,2.9913,2.9913,2.9913,2.9913,2.9913,2.9913,2.9913,2.9913,2.9913,2.9913,2.9913,0.0,0.0,2.9913,2.9913,2.9913,2.9913,2.9913,3.002,3.0346,3.04,3.0627,3.1116,3.1196,3.1343,3.1671,3.1711,3.1711,3.1711,3.1711,3.1711,3.1711,3.1711,3.1711,3.1711,3.1711,3.1711,3.1711,3.1711,3.1711,3.1711,3.1711,3.1711,3.1711,3.1711,3.1711,3.1711,3.1711,3.1711,3.1711,3.1711,3.1711,3.1711,1.5771,1.5893,1.5995,1.5995,1.6092,1.6083,1.6083,1.7494,1.8517,1.8517,2.2223,2.4851,2.4851,2.8068,3.0159,3.0057,3.0923,3.145,3.1343,3.1343,3.1176,3.0648,3.0515,3.0368,3.0194,3.0194,3.01,2.9913,2.9913,2.9913,2.9913,2.9913,2.9913,2.9913,2.9913,2.9913,2.9913,2.9913,2.9913,2.9913,2.9913,2.9913,2.9913,2.9913,2.9913,2.9913,2.9913,2.9913,2.9913,2.9913,2.9913,2.9913,2.9913,2.9913,2.9913,2.9913,2.9913,2.9913,2.9913,2.9913,2.9913,2.9913,2.9913,2.9913,2.9913,2.9913,2.9913,2.9913,2.9913,2.9913,2.9913,2.9913,2.9913,2.9913,0.0,2.9913,2.9913,2.9913,2.9913,2.9913,3.0074,3.0279,3.04,3.0688,3.0982,3.1162,3.1396,3.1557,3.1711,3.1711,3.1711,3.1711,3.1711,3.1711,3.1711,3.1711,3.1711,3.1711,3.1711,3.1711,3.1711,3.1711,3.1711,3.1711,3.1711,3.1711,3.1711,3.1711,3.1711,3.1711,3.1711,3.1711,3.1711,3.1711,3.1711,3.1711,1.5976,1.6058,1.6083,1.6083,1.6083,1.6083,1.6083,1.8327,1.9978,1.9978,2.456,2.778,2.778,3.0115,3.1711,3.1711,3.1711,3.1711,3.1711,3.1711,3.145,3.0955,3.0835,3.0702,3.0547,3.0453,3.0306,3.006,2.9967,2.9913,2.9913,2.9913,2.9913,2.9913,2.9913,2.9913,2.9913,2.9913,2.9913,2.9913,2.9913,2.9913,2.9913,2.9913,2.9913,2.9913,2.9913,2.9913,2.9913,2.9913,2.9913,2.9913,2.9913,2.9913,2.9913,2.9913,2.9913,2.9913,2.9913,2.9913,2.9913,2.9913,2.9913,2.9913,2.9913,2.9913,2.9913,2.9913,2.9913,2.9913,2.9913,2.9913,2.9913,2.9913,2.9913,2.9913,2.9913,2.9913,2.9953,3.0047,3.0279,3.048,3.0608,3.0996,3.1263,3.1356,3.1557,3.1711,3.1711,3.1711,3.1711,3.1711,3.1711,3.1711,3.1711,3.1711,3.1711,3.1711,3.1711,3.1711,3.1711,3.1711,3.1711,3.1711,3.1711,3.1711,3.1711,3.1711,3.1711,3.1711,3.1711,3.1711,3.1711,3.1711,3.1711,3.1711,1.6083,1.6083,1.6083,1.6083,1.6083,1.6133,1.6133,1.8377,2.0027,2.0077,2.4608,2.7828,2.7828,3.0163,3.1711,3.1711,3.1711,3.1711,3.1711,3.1711,3.153,3.1236,3.0955,3.0795,3.0795,3.056,3.0413,3.04,3.006,2.9913,2.9913,2.9913,2.9913,2.9913,2.9913,2.9913,2.9913,2.9913,2.9913,2.9913,2.9913,2.9913,2.9913,2.9913,2.9913,2.9913,2.9913,2.9913,2.9913,2.9913,2.9913,2.9913,2.9913,2.9913,2.9913,2.9913,2.9913,2.9913,2.9913,2.9913,2.9913,2.9913,2.9913,2.9913,2.9913,2.9913,2.9913,2.9913,2.9913,2.9913,2.9913,2.9913,2.9913,2.9913,2.9913,2.9913,2.9913,2.9913,3.0034,3.0373,3.0413,3.0641,3.1169,3.1176,3.1356,3.165,3.1711,3.1711,3.1711,3.1711,3.1711,3.1711,3.1711,3.1711,3.1711,3.1711,3.1711,3.1711,3.1711,3.1711,3.1711,3.1711,3.1711,3.1711,3.1711,3.1711,3.1711,3.1711,3.1711,3.1711,3.1711,3.1711,3.1711,3.1711,3.1711,3.1711,1.6083,1.6083,1.6083,1.6083,1.6083,1.6715,1.8566,2.1049,2.3394,2.5238,2.8452,3.0544,3.0544,3.1223,3.1711,3.1711,3.1711,3.1711,3.1711,3.1711,3.1671,3.1543,3.145,3.1316,3.1102,3.1009,3.0768,3.04,3.0319,3.0114,2.9913,2.9913,2.9913,2.9913,2.9913,2.9913,2.9913,2.9913,2.9913,2.9913,2.9913,2.9913,2.9913,2.9913,2.9913,2.9913,2.9913,2.9913,2.9913,2.9913,2.9913,2.9913,2.9913,2.9913,2.9913,2.9913,2.9913,2.9913,2.9913,2.9913,2.9913,2.9913,2.9913,2.9913,2.9913,2.9913,2.9913,2.9913,2.9913,2.9913,2.9913,2.9913,2.9913,2.9913,2.9913,2.9993,3.0194,3.0266,3.0386,3.0635,3.0849,3.1036,3.1162,3.141,3.157,3.1711,3.1711,3.1711,3.1711,3.1711,3.1711,3.1711,3.1711,3.1711,3.1711,3.1711,3.1711,3.1711,3.1711,3.1711,3.1711,3.1711,3.1711,3.1711,3.1711,3.1711,3.1711,3.1711,3.1711,3.1711,3.1711,3.1711,3.1711,3.1711,3.1711,3.1711,1.6083,1.6083,1.6083,1.6083,1.6083,1.6616,1.8228,2.1539,2.4463,2.6071,2.9421,3.1711,3.1711,3.1711,3.1711,3.1711,3.1711,3.1711,3.1711,3.1711,3.1711,3.1711,3.1711,3.1631,3.141,3.1289,3.0996,3.0574,3.0467,3.0207,2.9913,2.9913,2.9913,2.9913,2.9913,2.9913,2.9913,2.9913,2.9913,2.9913,2.9913,2.9913,2.9913,2.9913,2.9913,2.9913,2.9913,2.9913,2.9913,2.9913,2.9913,2.9913,2.9913,2.9913,2.9913,2.9913,2.9913,2.9913,2.9913,2.9913,2.9913,2.9913,2.9913,2.9913,2.9913,2.9913,2.9913,2.9913,2.9913,2.9913,2.9913,2.9913,2.9913,2.9913,3.002,3.0154,3.0386,3.0507,3.0635,3.0929,3.1116,3.1276,3.1383,3.1557,3.1711,3.1711,3.1711,3.1711,3.1711,3.1711,3.1711,3.1711,3.1711,3.1711,3.1711,3.1711,3.1711,3.1711,3.1711,3.1711,3.1711,3.1711,3.1711,3.1711,3.1711,3.1711,3.1711,3.1711,3.1711,3.1711,3.1711,3.1711,3.1711,3.1711,3.1711,3.1711,1.6083,1.6083,1.6083,1.6083,1.6083,1.6182,1.6424,2.047,2.3734,2.4172,2.8392,3.1426,3.1664,3.1711,3.1711,3.1711,3.1711,3.1711,3.1711,3.1711,3.1711,3.1711,3.1711,3.1711,3.1711,3.1396,3.1116,3.0795,3.0574,3.0234,2.9913,2.9913,2.9913,2.9913,2.9913,2.9913,2.9913,2.9913,2.9913,2.9913,2.9913,2.9913,2.9913,2.9913,2.9913,2.9913,2.9913,2.9913,2.9913,2.9913,2.9913,2.9913,2.9913,2.9913,2.9913,2.9913,2.994,2.9953,2.9953,2.998,2.9993,2.9993,2.9993,2.998,2.9927,2.9913,2.9913,2.9913,2.994,2.9953,2.9953,2.998,2.9993,2.9993,3.0221,3.0453,3.048,3.0662,3.0942,3.1236,3.1216,3.137,3.1684,3.1711,3.1711,3.1711,3.1711,3.1711,3.1711,3.1711,3.1711,3.1711,3.1711,3.1711,3.1711,3.1711,3.1711,3.1711,3.1711,3.1711,3.1711,3.1711,3.1711,3.1711,3.1711,3.1711,3.1711,3.1711,3.1711,3.1711,3.1711,3.1711,3.1711,3.1711,3.1711,3.1711,1.6083,1.6083,1.6083,1.6083,1.6083,1.6765,1.8862,2.0126,2.2321,2.6409,2.7924,2.9434,3.1474,3.1711,3.1711,3.1711,3.1711,3.1711,3.1711,3.1711,3.1711,3.1711,3.1711,3.1711,3.1711,3.161,3.1316,3.0795,3.0728,3.0434,2.9913,2.9913,2.9913,2.9913,2.9913,2.9913,2.9913,2.9913,2.9913,2.9913,2.9913,2.9913,2.9913,2.9913,2.9913,2.9913,2.9913,2.9913,2.9913,2.9913,2.9913,2.9913,2.9913,2.9913,2.9913,2.9913,3.0087,3.0306,3.0306,3.0434,3.0608,3.0608,3.0608,3.0488,3.002,2.9913,2.9913,2.9913,3.01,3.0306,3.0306,3.0448,3.0608,3.0608,3.0662,3.0782,3.1009,3.1089,3.1236,3.153,3.157,3.1597,3.1711,3.1711,3.1711,3.1711,3.1711,3.1711,3.1711,3.1711,3.1711,3.1711,3.1711,3.1711,3.1711,3.1711,3.1711,3.1711,3.1711,3.1711,3.1711,3.1711,3.1711,3.1711,3.1711,3.1711,3.1711,3.1711,3.1711,3.1711,3.1711,3.1711,3.1711,3.1711,3.1711,3.1711,1.6083,1.6083,1.6083,1.6083,1.6083,1.6573,1.7932,1.9199,2.1,2.3734,2.6264,2.8308,2.9673,3.0938,3.1711,3.1711,3.1711,3.1711,3.1711,3.1711,3.1711,3.1711,3.1711,3.1711,3.1711,3.1711,3.1383,3.0795,3.0795,3.0488,2.9913,2.9913,2.9913,2.9913,2.9913,2.9913,2.9913,2.9913,2.9913,2.9913,2.9913,2.9913,2.9913,2.9913,2.9913,2.9913,2.9913,2.9913,2.9913,2.9913,2.9913,2.9913,2.9913,3.0007,3.0127,3.0127,3.0341,3.0614,3.0614,3.0675,3.0795,3.0795,3.0795,3.0715,3.0408,3.0327,3.0327,3.0327,3.0461,3.0614,3.0614,3.0688,3.0795,3.0795,3.0902,3.1049,3.1162,3.1343,3.149,3.1698,3.1711,3.1711,3.1711,3.1711,3.1711,3.1711,3.1711,3.1711,3.1711,3.1711,3.1711,3.1711,3.1711,3.1711,3.1711,3.1711,3.1711,3.1711,3.1711,3.1711,3.1711,3.1711,3.1711,3.1711,3.1711,3.1711,3.1711,3.1711,3.1711,3.1711,3.1711,3.1711,3.1711,3.1711,3.1711,3.1711,1.6083,1.6083,1.6083,1.6083,1.6083,1.6083,1.6083,1.7932,1.9634,2.0559,2.4463,2.748,2.8368,3.0401,3.1711,3.1711,3.1711,3.1711,3.1711,3.1711,3.1711,3.1711,3.1711,3.1711,3.1711,3.1711,3.1383,3.0795,3.0795,3.0488,2.9913,2.9913,2.9913,2.9913,2.9913,2.9913,2.9913,2.9913,2.9913,2.9913,2.9913,2.9913,2.9913,2.9913,2.9913,2.9913,2.9913,2.9913,2.9913,2.9913,2.9953,2.9993,2.9993,3.0194,3.048,3.048,3.0635,3.0862,3.0862,3.0902,3.0942,3.0942,3.0942,3.0942,3.0942,3.0862,3.0795,3.0795,3.0835,3.0862,3.0862,3.0915,3.0942,3.0942,3.1142,3.1303,3.1303,3.1517,3.1711,3.1711,3.1711,3.1711,3.1711,3.1711,3.1711,3.1711,3.1711,3.1711,3.1711,3.1711,3.1711,3.1711,3.1711,3.1711,3.1711,3.1711,3.1711,3.1711,3.1711,3.1711,3.1711,3.1711,3.1711,3.1711,3.1711,3.1711,3.1711,3.1711,3.1711,3.1711,3.1711,3.1711,3.1711,3.1711,3.1711,3.1711,1.6083,1.6083,1.6083,1.6083,1.6083,1.6083,1.6083,1.6374,1.8228,2.276,2.3977,2.6157,3.0687,3.1474,3.1711,3.1711,3.1711,3.1711,3.1711,3.1711,3.1711,3.1711,3.1711,3.1711,3.1711,3.1711,3.1383,3.0795,3.0795,3.0488,2.9913,2.9913,2.9913,2.9913,2.9913,2.9913,2.9913,2.9913,2.9913,2.9913,2.9913,2.9913,2.9913,2.9913,2.9913,2.9913,2.9913,2.9913,2.9913,2.9913,3.0087,3.0346,3.0346,3.0501,3.0742,3.0742,3.0942,3.1169,3.1169,3.1356,3.1604,3.1604,3.1604,3.1604,3.1604,3.1156,3.0795,3.0795,3.0996,3.1169,3.1169,3.1383,3.1604,3.1604,3.1631,3.161,3.161,3.1684,3.1711,3.1711,3.1711,3.1711,3.1711,3.1711,3.1711,3.1711,3.1711,3.1711,3.1711,3.1711,3.1711,3.1711,3.1711,3.1711,3.1711,3.1711,3.1711,3.1711,3.1711,3.1711,3.1711,3.1711,3.1711,3.1711,3.1711,3.1711,3.1711,3.1711,3.1711,3.1711,3.1711,3.1711,3.1711,3.1711,3.1711,3.1711,1.6083,1.6083,1.6083,1.6083,1.6083,1.6083,1.6083,1.6083,1.6913,1.9257,2.2077,2.4802,2.7083,2.9959,3.1711,3.1711,3.1711,3.1711,3.1711,3.1711,3.1711,3.1711,3.1711,3.1711,3.1711,3.1711,3.1463,3.1036,3.0875,3.0488,2.9913,2.9913,2.9913,2.9913,2.9913,2.9913,2.9913,2.9913,2.9913,2.9913,2.9913,2.9913,2.9913,2.9913,2.9913,2.994,3.01,3.0167,3.0194,3.0354,3.0488,3.0595,3.0595,3.0795,3.1036,3.1036,3.1249,3.1476,3.1476,3.157,3.1711,3.1711,3.1711,3.1711,3.1711,3.1463,3.1276,3.1276,3.1383,3.1476,3.1476,3.1583,3.1711,3.1711,3.1711,3.1711,3.1711,3.1711,3.1711,3.1711,3.1711,3.1711,3.1711,3.1711,3.1711,3.1711,3.1711,3.1711,3.1711,3.1711,3.1711,3.1711,3.1711,3.1711,3.1711,3.1711,3.1711,3.1711,3.1711,3.1711,3.1711,3.1711,3.1711,3.1711,3.1711,3.1711,3.1711,3.1711,3.1711,3.1711,3.1711,3.1711,3.1711,3.1711,3.1711,3.1711]},{"header":{"parameterUnit":"m.s-1","parameterCategory":1,"la1":30.6,"la2":28.766,"lo1":-90.7593,"lo2":-88.6598,"dy":0.0162,"dx":0.0183,"nx":116,"ny":114,"refTime":"2023-09-28T18:00:00:Z","depth":0,"parameterNumber":3,"parameterNumberName":"V-component_of_WINDS"},"data":[0.0,0.0,0.0,0.0,0.0,0.0,0.0,0.0,0.0,0.0,0.0,0.0,0.0,0.0,0.0,0.0,0.0,0.0,0.0,0.0,0.0,0.0,0.0,0.0,0.0,0.0,0.0,0.0,0.0,0.0,0.0,0.0,0.0,0.0,0.0,0.0,0.0,0.0,0.0,0.0,0.0,0.0,0.0,0.0,0.0,0.0,0.0,0.0,0.0,0.0,0.0,0.0,0.0,0.0,0.0,0.0,0.0,0.0,0.0,0.0,0.0,0.0,0.0,0.0,0.0,0.0,0.0,0.0,0.0,0.0,0.0,0.0,0.0,0.0,0.0,0.0,0.0,0.0,0.0,0.0,0.0,0.0,0.0,0.0,0.0,0.0,0.0,0.0,0.0,0.0,0.0,0.0,0.0,0.0,0.0,0.0,0.0,0.0,0.0,0.0,0.0,0.0,0.0,0.0,0.0,0.0,0.0,0.0,0.0,0.0,0.0,0.0,0.0,0.0,0.0,0.0,0.0,0.0,0.0,0.0,0.0,0.0,0.0,0.0,0.0,0.0,0.0,0.0,0.0,0.0,0.0,0.0,0.0,0.0,0.0,0.0,0.0,0.0,0.0,0.0,0.0,0.0,0.0,0.0,0.0,0.0,0.0,0.0,0.0,0.0,0.0,0.0,0.0,0.0,0.0,0.0,0.0,0.0,0.0,0.0,0.0,0.0,0.0,0.0,0.0,0.0,0.0,0.0,0.0,0.0,0.0,0.0,0.0,0.0,0.0,0.0,0.0,0.0,0.0,0.0,0.0,0.0,0.0,0.0,0.0,0.0,0.0,0.0,0.0,0.0,0.0,0.0,0.0,0.0,0.0,0.0,0.0,0.0,0.0,0.0,0.0,0.0,0.0,0.0,0.0,0.0,0.0,0.0,0.0,0.0,0.0,0.0,0.0,0.0,0.0,0.0,0.0,0.0,0.0,0.0,0.0,0.0,0.0,0.0,0.0,0.0,0.0,0.0,0.0,0.0,0.0,0.0,0.0,0.0,0.0,0.0,0.0,0.0,0.0,0.0,0.0,0.0,0.0,0.0,0.0,0.0,0.0,0.0,0.0,0.0,0.0,0.0,0.0,0.0,0.0,0.0,0.0,0.0,0.0,0.0,0.0,0.0,0.0,0.0,0.0,0.0,0.0,0.0,0.0,0.0,0.0,0.0,0.0,0.0,0.0,0.0,0.0,0.0,0.0,0.0,0.0,0.0,0.0,0.0,0.0,0.0,0.0,0.0,0.0,0.0,0.0,0.0,0.0,0.0,0.0,0.0,0.0,0.0,0.0,0.0,0.0,0.0,0.0,0.0,0.0,0.0,0.0,0.0,0.0,0.0,0.0,0.0,0.0,0.0,0.0,0.0,0.0,0.0,0.0,0.0,0.0,0.0,0.0,0.0,0.0,0.0,0.0,0.0,0.0,0.0,0.0,0.0,0.0,0.0,0.0,0.0,0.0,0.0,0.0,0.0,0.0,0.0,0.0,0.0,0.0,0.0,0.0,0.0,0.0,0.0,0.0,0.0,0.0,0.0,0.0,0.0,0.0,0.0,0.0,0.0,0.0,0.0,0.0,0.0,0.0,0.0,0.0,0.0,0.0,0.0,0.0,0.0,0.0,0.0,0.0,0.0,0.0,0.0,0.0,0.0,0.0,0.0,0.0,0.0,0.0,0.0,0.0,0.0,0.0,0.0,0.0,0.0,0.0,0.0,0.0,0.0,0.0,0.0,0.0,0.0,0.0,0.0,0.0,0.0,0.0,0.0,0.0,0.0,0.0,0.0,0.0,0.0,0.0,0.0,0.0,0.0,0.0,0.0,0.0,0.0,0.0,0.0,0.0,0.0,0.0,0.0,0.0,0.0,0.0,0.0,0.0,0.0,0.0,0.0,0.0,0.0,0.0,0.0,0.0,0.0,0.0,0.0,0.0,0.0,0.0,0.0,0.0,0.0,0.0,0.0,0.0,0.0,0.0,0.0,0.0,0.0,0.0,0.0,0.0,0.0,0.0,0.0,0.0,0.0,0.0,0.0,0.0,0.0,0.0,0.0,0.0,0.0,0.0,0.0,0.0,0.0,0.0,0.0,0.0,0.0,0.0,0.0,0.0,0.0,0.0,0.0,0.0,0.0,0.0,0.0,0.0,0.0,0.0,0.0,0.0,0.0,0.0,0.0,0.0,0.0,0.0,0.0,0.0,0.0,0.0,0.0,0.0,0.0,0.0,0.0,0.0,0.0,0.0,0.0,0.0,0.0,0.0,0.0,0.0,0.0,0.0,0.0,0.0,0.0,0.0,0.0,0.0,0.0,0.0,0.0,0.0,0.0,0.0,0.0,0.0,0.0,0.0,0.0,0.0,0.0,0.0,0.0,0.0,0.0,0.0,0.0,0.0,0.0,0.0,0.0,0.0,0.0,0.0,0.0,0.0,0.0,0.0,0.0,0.0,0.0,0.0,0.0,0.0,0.0,0.0,0.0,0.0,0.0,0.0,0.0,0.0,0.0,0.0,0.0,0.0,0.0,0.0,0.0,0.0,0.0,0.0,0.0,0.0,0.0,0.0,0.0,0.0,0.0,0.0,0.0,0.0,0.0,0.0,0.0,0.0,0.0,0.0,0.0,0.0,0.0,0.0,0.0,0.0,0.0,0.0,0.0,0.0,0.0,0.0,0.0,0.0,0.0,0.0,0.0,0.0,0.0,0.0,0.0,0.0,0.0,0.0,0.0,0.0,0.0,0.0,0.0,0.0,0.0,0.0,0.0,0.0,0.0,0.0,0.0,0.0,0.0,0.0,0.0,0.0,0.0,0.0,0.0,0.0,0.0,0.0,0.0,0.0,0.0,0.0,0.0,0.0,0.0,0.0,0.0,0.0,0.0,0.0,0.0,0.0,0.0,0.0,0.0,0.0,0.0,0.0,0.0,0.0,0.0,0.0,0.0,0.0,0.0,0.0,0.0,0.0,0.0,0.0,0.0,0.0,0.0,0.0,0.0,0.0,0.0,0.0,0.0,0.0,0.0,0.0,0.0,0.0,0.0,0.0,0.0,0.0,0.0,0.0,0.0,0.0,0.0,0.0,0.0,0.0,0.0,0.0,0.0,0.0,0.0,0.0,0.0,0.0,0.0,0.0,0.0,0.0,0.0,0.0,0.0,0.0,0.0,0.0,0.0,0.0,0.0,0.0,0.0,0.0,0.0,0.0,0.0,0.0,0.0,0.0,0.0,0.0,0.0,0.0,0.0,0.0,0.0,0.0,0.0,0.0,0.0,0.0,0.0,0.0,0.0,0.0,0.0,0.0,0.0,0.0,0.0,0.0,0.0,0.0,0.0,0.0,0.0,0.0,0.0,0.0,0.0,0.0,0.0,0.0,0.0,0.0,0.0,0.0,0.0,0.0,0.0,0.0,0.0,0.0,0.0,0.0,0.0,0.0,0.0,0.0,0.0,0.0,0.0,0.0,0.0,0.0,0.0,0.0,0.0,0.0,0.0,0.0,0.0,0.0,0.0,0.0,0.0,0.0,0.0,0.0,0.0,0.0,0.0,0.0,0.0,0.0,0.0,0.0,0.0,0.0,0.0,0.0,0.0,0.0,0.0,0.0,0.0,0.0,0.0,0.0,0.0,0.0,0.0,0.0,0.0,0.0,0.0,0.0,0.0,0.0,0.0,0.0,0.0,0.0,0.0,0.0,0.0,0.0,0.0,0.0,0.0,0.0,0.0,0.0,0.0,0.0,0.0,0.0,0.0,0.0,0.0,0.0,0.0,0.0,0.0,0.0,0.0,0.0,0.0,0.0,0.0,0.0,0.0,0.0,0.0,0.0,0.0,0.0,0.0,0.0,0.0,0.0,0.0,0.0,0.0,0.0,0.0,0.0,0.0,0.0,0.0,0.0,0.0,0.0,0.0,0.0,0.0,0.0,0.0,0.0,0.0,0.0,0.0,0.0,0.0,0.0,0.0,0.0,0.0,0.0,0.0,0.0,0.0,0.0,0.0,0.0,0.0,0.0,0.0,0.0,0.0,0.0,0.0,0.0,0.0,0.0,0.0,0.0,0.0,0.0,0.0,0.0,0.0,0.0,0.0,0.0,0.0,0.0,0.0,0.0,0.0,0.0,0.0,0.0,0.0,0.0,0.0,0.0,0.0,0.0,0.0,0.0,0.0,0.0,0.0,0.0,0.0,0.0,0.0,0.0,0.0,0.0,0.0,0.0,0.0,0.0,0.0,0.0,0.0,0.0,0.0,0.0,0.0,0.0,0.0,0.0,0.0,0.0,0.0,0.0,0.0,0.0,0.0,0.0,0.0,0.0,0.0,0.0,0.0,0.0,0.0,0.0,0.0,0.0,0.0,0.0,0.0,0.0,0.0,0.0,0.0,0.0,0.0,0.0,0.0,0.0,0.0,0.0,0.0,0.0,0.0,0.0,0.0,0.0,0.0,0.0,0.0,0.0,0.0,0.0,0.0,0.0,0.0,0.0,0.0,0.0,0.0,0.0,0.0,0.0,0.0,0.0,0.0,0.0,0.0,0.0,0.0,0.0,0.0,0.0,0.0,0.0,0.0,0.0,0.0,0.0,0.0,0.0,0.0,0.0,0.0,0.0,0.0,0.0,0.0,0.0,0.0,0.0,0.0,0.0,0.0,0.0,0.0,0.0,0.0,0.0,0.0,0.0,0.0,0.0,0.0,0.0,0.0,0.0,0.0,0.0,0.0,0.0,0.0,0.0,0.0,0.0,0.0,0.0,0.0,0.0,0.0,0.0,0.0,0.0,0.0,0.0,0.0,0.0,0.0,0.0,0.0,0.0,0.0,0.0,0.0,0.0,0.0,0.0,0.0,0.0,0.0,0.0,0.0,0.0,0.0,0.0,0.0,0.0,0.0,0.0,0.0,0.0,0.0,0.0,0.0,0.0,0.0,0.0,0.0,0.0,0.0,0.0,0.0,0.0,0.0,0.0,0.0,0.0,0.0,0.0,0.0,0.0,0.0,0.0,0.0,0.0,0.0,0.0,0.0,0.0,0.0,0.0,0.0,0.0,0.0,0.0,0.0,0.0,0.0,0.0,0.0,0.0,0.0,0.0,0.0,0.0,0.0,0.0,0.0,0.0,0.0,0.0,0.0,0.0,0.0,0.0,0.0,0.0,0.0,0.0,0.0,0.0,0.0,0.0,0.0,0.0,0.0,0.0,0.0,0.0,0.0,0.0,0.0,0.0,0.0,0.0,0.0,0.0,0.0,0.0,0.0,0.0,0.0,0.0,0.0,0.0,0.0,0.0,0.0,0.0,0.0,0.0,0.0,0.0,0.0,0.0,0.0,0.0,0.0,0.0,0.0,0.0,0.0,0.0,0.0,0.0,0.0,0.0,0.0,0.0,0.0,0.0,0.0,0.0,0.0,0.0,0.0,0.0,0.0,0.0,0.0,0.0,0.0,0.0,0.0,0.0,0.0,0.0,0.0,0.0,0.0,0.0,0.0,0.0,0.0,0.0,0.0,0.0,0.0,0.0,0.0,0.0,0.0,0.0,0.0,0.0,0.0,0.0,0.0,0.0,0.0,0.0,0.0,0.0,0.0,0.0,0.0,0.0,0.0,0.0,0.0,0.0,0.0,0.0,0.0,0.0,0.0,0.0,0.0,0.0,0.0,0.0,0.0,0.0,0.0,0.0,0.0,0.0,0.0,0.0,0.0,0.0,0.0,0.0,0.0,0.0,0.0,0.0,0.0,0.0,0.0,0.0,0.0,0.0,0.0,0.0,0.0,0.0,0.0,0.0,0.0,0.0,0.0,0.0,0.0,0.0,0.0,0.0,0.0,0.0,0.0,0.0,0.0,0.0,0.0,0.0,0.0,0.0,0.0,0.0,0.0,0.0,0.0,0.0,0.0,0.0,0.0,0.0,0.0,0.0,0.0,0.0,0.0,0.0,0.0,0.0,0.0,0.0,0.0,0.0,0.0,0.0,0.0,0.0,0.0,0.0,0.0,0.0,0.0,0.0,0.0,0.0,0.0,0.0,0.0,0.0,0.0,0.0,0.0,0.0,0.0,0.0,0.0,0.0,0.0,0.0,0.0,0.0,0.0,0.0,0.0,5.6467,0.0,0.0,0.0,0.0,0.0,0.0,0.0,0.0,0.0,0.0,0.0,0.0,0.0,0.0,0.0,0.0,0.0,0.0,0.0,0.0,0.0,0.0,0.0,0.0,0.0,0.0,0.0,0.0,0.0,0.0,0.0,0.0,0.0,0.0,0.0,0.0,0.0,0.0,5.3214,5.3214,5.3214,5.3214,5.3214,5.3214,5.3214,0.0,0.0,0.0,0.0,0.0,0.0,0.0,0.0,0.0,0.0,0.0,0.0,0.0,0.0,0.0,0.0,0.0,0.0,0.0,0.0,0.0,0.0,0.0,0.0,0.0,0.0,0.0,0.0,0.0,0.0,0.0,0.0,0.0,0.0,0.0,0.0,0.0,0.0,0.0,0.0,0.0,0.0,0.0,0.0,0.0,0.0,0.0,0.0,0.0,0.0,0.0,0.0,0.0,0.0,0.0,0.0,0.0,0.0,0.0,0.0,0.0,0.0,0.0,0.0,0.0,0.0,0.0,0.0,0.0,0.0,0.0,5.7187,0.0,0.0,0.0,0.0,0.0,0.0,0.0,0.0,0.0,0.0,0.0,0.0,0.0,0.0,0.0,0.0,0.0,0.0,0.0,0.0,0.0,0.0,0.0,5.1022,5.1059,5.1206,5.183,5.2197,0.0,0.0,0.0,0.0,0.0,0.0,5.3214,5.3214,5.3214,5.3214,5.3214,5.3214,5.3214,5.3214,5.3214,5.3214,5.3214,0.0,0.0,0.0,0.0,0.0,0.0,0.0,0.0,0.0,0.0,0.0,0.0,0.0,0.0,0.0,0.0,0.0,0.0,0.0,0.0,0.0,0.0,0.0,0.0,0.0,0.0,0.0,0.0,0.0,0.0,0.0,0.0,0.0,0.0,0.0,0.0,0.0,0.0,0.0,0.0,0.0,0.0,0.0,0.0,0.0,0.0,0.0,0.0,0.0,0.0,0.0,0.0,0.0,0.0,0.0,0.0,0.0,0.0,0.0,0.0,0.0,0.0,0.0,5.8143,5.8217,5.8217,5.8364,5.8437,5.8437,5.8437,5.8327,5.8251,0.0,0.0,0.0,0.0,0.0,0.0,0.0,0.0,0.0,0.0,0.0,0.0,0.0,0.0,0.0,0.0,0.0,0.0,0.0,0.0,5.1059,5.1767,5.184,5.2123,5.281,5.2994,5.3031,5.3031,0.0,0.0,0.0,0.0,5.3214,5.3214,5.3214,5.3214,5.3214,5.3214,5.3214,5.3214,5.3214,5.3214,5.3214,5.3214,5.3214,5.3214,0.0,0.0,0.0,0.0,0.0,0.0,0.0,0.0,0.0,0.0,0.0,0.0,0.0,0.0,0.0,0.0,0.0,0.0,0.0,0.0,0.0,0.0,0.0,0.0,0.0,0.0,0.0,0.0,0.0,0.0,0.0,0.0,0.0,0.0,0.0,0.0,0.0,0.0,0.0,0.0,0.0,5.6004,5.6116,0.0,0.0,0.0,0.0,0.0,0.0,0.0,0.0,0.0,0.0,0.0,0.0,0.0,5.8296,5.7861,5.796,5.7997,5.7997,5.8719,5.9049,5.9086,5.9783,6.0089,6.0089,6.0089,0.0,5.9086,5.9878,0.0,0.0,0.0,0.0,0.0,0.0,0.0,0.0,0.0,0.0,0.0,0.0,0.0,0.0,0.0,0.0,0.0,0.0,0.0,0.0,0.0,5.2674,5.2821,5.3177,5.3214,5.3214,5.3214,5.3214,0.0,0.0,5.3214,5.3214,5.3214,5.3214,5.3214,5.3214,5.3214,5.3214,5.3214,5.3214,5.3214,5.3214,5.3214,5.3214,5.3214,5.3214,0.0,0.0,0.0,0.0,0.0,0.0,0.0,0.0,0.0,0.0,0.0,0.0,0.0,0.0,0.0,0.0,0.0,0.0,0.0,0.0,0.0,0.0,0.0,0.0,0.0,0.0,0.0,0.0,0.0,0.0,0.0,0.0,0.0,0.0,0.0,0.0,0.0,0.0,0.0,5.6313,5.6283,5.6504,5.6952,5.7417,0.0,0.0,0.0,0.0,0.0,0.0,0.0,0.0,0.0,5.8315,5.8747,5.8884,5.8694,5.9134,5.9355,5.9355,5.9722,5.9857,5.9893,6.0224,6.0419,6.0419,6.0896,6.086,6.0529,6.0456,6.0419,6.0419,0.0,0.0,0.0,0.0,6.108,6.1153,0.0,0.0,0.0,0.0,0.0,0.0,0.0,0.0,0.0,0.0,0.0,0.0,5.3214,5.3214,5.3214,5.3214,5.3214,5.3214,5.3214,5.3214,5.3214,5.3214,5.3214,5.3214,5.3214,5.3214,5.3214,5.3214,5.3214,5.3214,5.3214,5.3214,5.3214,5.3214,5.3214,5.3214,5.3214,5.3214,5.3214,5.3214,0.0,0.0,0.0,0.0,0.0,0.0,0.0,0.0,0.0,0.0,0.0,0.0,0.0,0.0,0.0,0.0,0.0,0.0,0.0,0.0,0.0,0.0,0.0,0.0,0.0,0.0,0.0,0.0,0.0,0.0,0.0,0.0,0.0,0.0,0.0,0.0,0.0,5.6729,5.6789,5.7087,5.7428,5.7877,0.0,0.0,0.0,0.0,0.0,0.0,5.8327,5.851,5.8621,5.8621,5.9196,5.9526,5.9526,6.0114,6.0419,6.0419,6.0603,6.0713,6.0713,6.0933,6.0994,6.1031,6.1667,6.1924,6.1851,6.1263,6.0994,6.0994,6.0994,6.0994,6.108,6.1704,6.1924,6.1998,0.0,0.0,0.0,0.0,0.0,0.0,0.0,0.0,0.0,0.0,0.0,5.3214,5.3214,5.3214,5.3214,5.3214,5.3214,5.3214,5.3214,5.3214,5.3214,5.3214,5.3214,5.3214,5.3214,5.3214,5.3214,5.3214,5.3214,5.3214,5.3214,5.3214,5.3214,5.3214,5.3214,5.3214,5.3214,5.3214,5.3214,5.3214,5.3214,0.0,0.0,0.0,0.0,0.0,0.0,0.0,0.0,0.0,0.0,0.0,0.0,0.0,0.0,0.0,0.0,0.0,0.0,0.0,0.0,0.0,0.0,0.0,0.0,0.0,0.0,0.0,0.0,0.0,0.0,0.0,0.0,0.0,0.0,0.0,0.0,0.0,0.0,5.7935,5.7958,0.0,0.0,0.0,0.0,5.8042,5.8742,5.9159,5.9159,5.9857,6.0272,6.0272,6.0309,6.0346,6.0346,6.0382,6.0419,6.0419,6.1153,6.152,6.1569,6.2316,6.2683,6.2683,6.2719,6.2756,6.2756,6.2683,6.2683,6.2683,6.2683,6.2683,6.2683,6.2719,6.2756,6.2756,0.0,0.0,0.0,0.0,0.0,0.0,0.0,0.0,5.3214,5.3214,5.3214,5.3214,5.3214,5.3214,5.3214,5.3214,5.3214,5.3214,5.3214,5.3214,5.3214,5.3214,5.3214,5.3214,5.3214,5.3214,5.3214,5.3214,5.3214,5.3214,5.3214,5.3214,5.3214,5.3214,5.3214,5.3214,5.3214,5.3214,5.3214,5.3214,5.3214,5.3214,0.0,0.0,0.0,0.0,0.0,0.0,0.0,0.0,0.0,0.0,0.0,0.0,0.0,0.0,0.0,0.0,0.0,0.0,0.0,0.0,0.0,0.0,0.0,0.0,0.0,0.0,0.0,0.0,0.0,0.0,0.0,0.0,0.0,0.0,0.0,0.0,0.0,5.8719,5.8756,0.0,5.9501,5.9538,5.9538,5.9538,5.982,5.9967,5.9967,6.0224,6.0419,6.0419,6.0896,6.1153,6.1153,6.1704,6.2242,6.2768,6.3075,6.3466,6.398,6.4261,6.4407,6.4407,6.4407,6.4407,6.4407,6.4407,6.3783,6.2793,6.2793,6.3123,6.3649,6.3649,6.398,6.4407,0.0,0.0,0.0,0.0,0.0,0.0,0.0,0.0,5.3214,5.3214,5.3214,5.3214,5.3214,5.3214,5.3214,5.3214,5.3214,5.3214,5.3214,5.3214,5.3214,5.3214,5.3214,5.3214,5.3214,5.3214,5.3214,5.3214,5.3214,5.3214,5.3214,5.3214,5.3214,5.3214,5.3214,5.3214,5.3214,5.3214,5.3214,5.3214,5.3214,5.3214,5.3214,0.0,0.0,0.0,0.0,0.0,0.0,0.0,0.0,0.0,0.0,0.0,0.0,0.0,0.0,0.0,0.0,0.0,0.0,0.0,0.0,0.0,0.0,0.0,0.0,0.0,0.0,0.0,0.0,0.0,0.0,0.0,0.0,0.0,0.0,0.0,5.9024,5.9526,5.96,5.982,6.0346,6.0419,6.0419,6.0419,6.0639,6.0933,6.1178,6.1484,6.1777,6.2022,6.2585,6.2842,6.2842,6.338,6.393,6.4494,6.4494,6.4787,6.5288,6.5288,6.5288,6.5288,6.5288,6.5288,6.5288,6.5288,6.4811,6.4004,6.3747,6.4016,6.4494,6.4494,6.4861,6.5288,0.0,0.0,0.0,0.0,0.0,0.0,5.3214,5.3214,5.3214,5.3214,5.3214,5.3214,5.3214,5.3214,5.3214,5.3214,5.3214,5.3214,5.3214,5.3214,5.3214,5.3214,5.3214,5.3214,5.3214,5.3214,5.3214,5.3214,5.3214,5.3214,5.3214,5.3214,5.3214,5.3214,5.3214,5.3214,5.3214,5.3214,5.3214,5.3214,5.3214,5.3214,5.3214,0.0,0.0,0.0,0.0,0.0,0.0,0.0,0.0,0.0,0.0,0.0,0.0,0.0,0.0,0.0,0.0,0.0,0.0,0.0,0.0,0.0,0.0,0.0,0.0,0.0,0.0,0.0,0.0,0.0,0.0,0.0,0.0,0.0,6.0419,6.0419,6.0419,6.0419,6.0456,6.0456,6.0529,6.0529,6.0529,6.0554,6.1263,6.2071,6.2829,6.3686,6.4494,6.5288,6.5325,6.5325,6.5325,6.5362,6.5398,6.5398,6.5398,6.5435,6.5435,6.5435,6.5435,6.5435,6.5435,6.5435,6.5435,6.5435,6.5912,6.6512,6.5668,6.5362,6.5398,6.5398,6.5435,6.5435,0.0,0.0,0.0,0.0,0.0,0.0,5.3214,5.3214,5.3214,5.3214,5.3214,5.3214,5.3214,5.3214,5.3214,5.3214,5.3214,5.3214,5.3214,5.3214,5.3214,5.3214,5.3214,5.3214,5.3214,5.3214,5.3214,5.3214,5.3214,5.3214,5.3214,5.3214,5.3214,5.3214,5.3214,5.3214,5.3214,5.3214,5.3214,5.3214,5.3214,5.3214,5.3214,0.0,0.0,0.0,0.0,0.0,0.0,0.0,0.0,0.0,0.0,0.0,0.0,0.0,0.0,0.0,0.0,0.0,0.0,0.0,0.0,0.0,0.0,0.0,0.0,0.0,0.0,0.0,0.0,0.0,0.0,0.0,0.0,6.1728,6.0566,6.0419,6.0639,6.119,6.1263,6.1741,6.2952,6.3062,6.3319,6.3894,6.4163,6.4371,6.4591,6.4848,6.5081,6.5288,6.5888,6.6182,6.6182,6.6733,6.732,6.7894,6.7894,6.8238,6.8788,6.8788,6.8788,6.8788,6.8788,6.8788,6.8788,6.8788,6.8898,6.8898,6.6953,6.688,6.7894,6.7894,6.8274,6.8788,0.0,0.0,0.0,0.0,0.0,0.0,5.3214,5.3214,5.3214,5.3214,5.3214,5.3214,5.3214,5.3214,5.3214,5.3214,5.3214,5.3214,5.3214,5.3214,5.3214,5.3214,5.3214,5.3214,5.3214,5.3214,5.3214,5.3214,5.3214,5.3214,5.3214,5.3214,5.3214,5.3214,5.3214,5.3214,5.3214,5.3214,5.3214,5.3214,5.3581,5.3508,5.3214,5.3214,5.3398,5.3691,5.3691,5.4216,5.4913,5.4913,0.0,0.0,0.0,0.0,0.0,0.0,0.0,0.0,0.0,0.0,0.0,0.0,0.0,0.0,0.0,0.0,0.0,0.0,0.0,0.0,0.0,0.0,0.0,0.0,6.3086,6.3025,6.2071,6.1961,6.2108,6.2597,6.2952,6.3539,6.4494,6.4604,6.4934,6.5742,6.5802,6.6096,6.6756,6.6793,6.694,6.732,6.776,6.8017,6.8017,6.8458,6.8949,6.9412,6.9412,6.9633,7.011,7.011,7.011,0.0,7.011,7.011,7.011,7.011,7.0293,0.0,0.0,0.0,0.0,0.0,6.9706,7.011,0.0,0.0,0.0,0.0,0.0,0.0,5.3214,5.3214,5.3214,5.3214,5.3214,5.3214,5.3214,5.3214,5.3214,5.3214,5.3214,5.3214,5.3214,5.3214,5.3214,5.3214,5.3214,5.3214,5.3214,5.3214,5.3214,5.3214,5.3214,5.3251,5.3324,5.3324,5.3398,5.3471,5.3471,5.3471,5.3471,5.3471,5.3471,5.3544,5.4252,5.4069,5.3361,5.3434,5.3911,5.4546,5.4546,5.506,5.5732,5.5732,0.0,0.0,0.0,0.0,0.0,0.0,0.0,0.0,0.0,0.0,0.0,0.0,0.0,0.0,0.0,0.0,0.0,0.0,0.0,0.0,0.0,0.0,0.0,0.0,6.3686,6.4286,6.436,6.447,6.447,6.4396,6.5007,6.5508,6.5692,6.5692,6.6022,6.6843,6.6916,6.754,6.8972,0.0,0.0,0.0,0.0,7.022,7.022,7.033,7.0367,7.0367,7.0367,7.0367,7.0367,7.0367,7.0367,7.0367,7.0367,7.0367,7.0367,7.0367,7.0807,7.1344,7.066,7.0367,7.0367,7.0367,7.0367,7.0367,0.0,0.0,0.0,0.0,0.0,0.0,5.3214,5.3214,5.3214,5.3214,5.3214,5.3214,5.3214,5.3214,5.3214,5.3214,5.3214,5.3214,5.3214,5.3214,5.3214,5.3214,5.3214,5.3214,5.3214,5.3214,5.3214,5.3214,5.3214,5.3544,5.4179,5.4179,5.4509,5.5144,5.5144,5.5144,5.5144,5.5144,5.5144,5.5144,5.5328,5.4887,5.4252,5.4887,5.5218,5.5365,5.5365,5.5868,5.6565,5.6565,5.7005,5.7556,5.7703,5.7776,0.0,0.0,0.0,0.0,0.0,0.0,0.0,0.0,0.0,0.0,0.0,0.0,0.0,0.0,0.0,0.0,0.0,0.0,0.0,6.3833,6.453,6.5301,6.5925,6.6599,6.6746,6.6109,6.6182,6.6769,6.8091,6.8187,6.8531,6.9339,6.9412,6.9522,6.9853,6.9853,6.9926,7.011,7.0734,7.105,7.105,7.1725,7.2055,7.2055,0.0,0.0,7.2055,7.2055,7.2055,7.2055,7.2055,7.2055,7.2055,7.2055,7.2129,7.2261,7.2092,7.2055,7.2055,7.2055,7.2055,7.2055,0.0,0.0,0.0,0.0,0.0,0.0,5.3214,5.3214,5.3214,5.3214,5.3214,5.3214,5.3214,5.3214,5.3214,5.3214,5.3214,5.3214,5.3214,5.3581,5.3801,5.3801,5.4179,5.4399,5.4399,5.4399,5.4399,5.4399,5.4399,5.462,5.4997,5.4997,5.5218,5.5585,5.5585,5.5585,5.5585,5.5585,5.5585,5.5622,5.6051,5.5978,5.5611,5.5585,5.5842,5.6198,5.6198,5.6712,5.7409,5.7409,5.7666,5.7997,5.7997,5.829,5.8682,0.0,0.0,0.0,0.0,0.0,0.0,0.0,0.0,0.0,0.0,0.0,0.0,0.0,0.0,6.3576,6.3967,0.0,6.4824,6.5228,6.5962,6.6769,6.7577,6.8385,6.8605,6.7797,6.8054,6.8605,6.9412,6.9486,6.9816,7.066,7.0697,7.0881,7.1284,7.1284,7.1284,7.1284,7.1688,7.1894,7.1894,7.2312,7.2496,7.2496,7.2496,7.2496,7.2496,7.2496,7.2496,7.2496,7.2496,7.2496,7.2496,7.2496,7.2496,7.2496,7.2496,7.2496,7.2496,7.2496,7.2496,7.2496,0.0,0.0,0.0,0.0,0.0,0.0,0.0,5.3214,5.3214,5.3214,5.3324,5.3434,5.3434,5.3581,5.3654,5.3654,5.3654,5.3654,5.3654,5.4289,5.462,5.462,5.5254,5.5585,5.5585,5.5585,5.5585,5.5585,5.5585,5.5695,5.5842,5.5842,5.5915,5.6062,5.6062,5.6062,5.6062,5.6062,5.6062,5.6136,5.6785,5.7031,5.6957,5.6308,5.6455,5.7031,5.7031,5.7446,5.7997,5.7997,5.8107,5.8217,5.8217,5.8792,5.9453,5.9636,6.0114,0.0,0.0,0.0,0.0,0.0,0.0,0.0,0.0,6.305,6.3306,6.4163,6.447,6.4751,6.5398,6.5802,6.6206,6.688,6.765,6.8471,6.9252,6.9926,7.0146,6.9669,7.0036,7.0403,7.055,7.055,7.0844,7.149,7.1527,7.1821,7.2459,7.2496,7.2496,7.2496,7.2496,7.2496,7.2496,7.2496,7.2496,7.2496,7.2496,7.2496,7.2496,7.2496,7.2496,7.2496,7.2496,7.2496,7.2496,7.2496,7.2606,7.2716,7.2716,7.2826,7.2936,7.2606,7.2496,7.2496,0.0,0.0,0.0,0.0,0.0,0.0,0.0,0.0,5.3214,5.3214,5.3801,5.4289,5.4289,5.4913,5.5328,5.5328,5.5328,5.5328,5.5328,5.5438,5.5475,5.5475,5.5548,5.5585,5.5585,5.5585,5.5585,5.5585,5.5585,5.5989,5.6675,5.6675,5.7042,5.774,5.774,5.774,5.774,5.774,5.774,5.774,5.7813,5.7886,5.785,5.7776,5.7776,5.7886,5.7886,5.7923,5.7997,5.7997,5.8462,5.9086,5.9086,5.96,6.0419,6.1117,6.141,6.163,6.2462,6.2683,6.2683,6.2793,6.2793,6.3013,0.0,6.3943,6.4163,6.4995,6.5742,6.6256,6.6366,6.754,6.8531,6.8641,6.9302,7.011,7.0903,7.1123,7.138,7.2018,7.1527,7.1454,7.2165,7.2239,7.2275,7.2349,7.2386,7.2422,7.2496,7.2496,7.2496,7.2496,7.2496,7.2496,7.2496,7.2496,7.2496,7.2496,7.2496,7.2496,7.2496,7.2496,7.2496,7.2496,7.2496,7.2496,7.2496,7.2496,7.2936,7.356,7.356,7.4001,7.4463,7.3046,7.2496,7.2496,0.0,0.0,0.0,0.0,0.0,0.0,0.0,0.0,5.4583,5.4583,5.4887,5.5108,5.5108,5.5401,5.5585,5.5585,5.5585,5.5585,5.5585,5.6051,5.6308,5.6308,5.6748,5.7017,5.7017,5.7017,5.7017,5.7017,5.7017,5.7152,5.7483,5.7483,5.7666,5.7997,5.7997,5.7997,5.7997,5.7997,5.7997,5.7997,5.7997,5.7997,5.7997,5.7997,5.829,5.8646,5.818,5.829,0.0,5.8682,5.9233,5.9893,5.9893,6.0456,6.1153,6.1484,6.1924,6.2365,6.2719,6.2793,6.2903,6.3429,6.3576,6.3759,6.4604,6.5154,6.5705,6.6512,6.7357,6.8054,6.8495,6.9155,6.9743,7.0206,7.0573,7.1101,7.1894,7.2004,7.2129,7.2459,7.2202,7.2114,7.2459,7.2496,7.2496,7.2496,7.2496,7.2496,7.2496,7.2496,7.2496,7.2496,7.2496,7.2496,7.2496,7.2496,7.2753,7.3193,7.3193,7.345,7.3891,7.3891,7.3891,7.3891,7.3891,7.3891,7.3891,7.3891,7.4096,7.4404,7.4404,7.461,7.483,7.4133,7.3891,7.3891,0.0,0.0,0.0,0.0,0.0,0.0,0.0,0.0,0.0,0.0,5.5805,5.6025,5.6246,5.6246,5.6246,5.6246,5.6246,5.6246,5.6246,5.6822,5.7152,5.7152,5.7703,5.7997,5.7997,5.7997,5.7997,5.7997,5.7997,5.7997,5.7997,5.7997,5.7997,5.7997,5.7997,5.7997,5.7997,5.7997,5.7997,5.7997,5.7997,5.8143,5.8327,5.8327,5.8841,5.9416,5.8621,5.8829,5.9526,5.9526,6.0077,6.075,6.075,6.1263,6.1924,6.1924,6.2511,6.316,6.316,6.3306,6.3637,6.4273,6.4617,6.4971,6.5778,6.6586,6.7393,6.8214,6.9009,6.9729,7.033,7.0624,7.0954,7.1527,7.1637,7.1821,7.2422,7.2496,7.2496,7.2496,7.2496,7.2496,7.2496,7.2496,7.2496,7.2496,7.2716,7.2826,7.2826,7.3046,7.3156,7.3156,7.3156,7.3156,7.3156,7.3156,7.345,7.4037,7.4037,7.4331,7.4903,7.4903,7.4903,7.4903,7.4903,7.4903,7.4903,7.4903,7.5014,7.5234,7.5234,7.538,7.5564,7.5564,7.527,7.4903,0.0,0.0,0.0,0.0,0.0,0.0,0.0,0.0,0.0,0.0,0.0,0.0,0.0,5.7923,5.7923,5.7923,5.7923,5.7923,5.7923,5.796,5.796,5.796,5.7997,5.7997,5.7997,5.7997,5.7997,5.7997,5.7997,5.7997,5.7997,5.7997,5.7997,5.7997,5.7997,5.7997,5.7997,5.7997,5.7997,5.7997,5.7997,5.8474,5.9159,5.9159,5.9673,6.0272,5.9453,5.9673,6.037,6.037,6.0896,6.1557,6.1557,6.2108,6.2756,6.2756,6.3392,6.4066,6.4066,6.464,6.5215,6.5251,6.5852,6.6623,6.7444,6.8238,6.9082,6.9853,7.066,7.1233,7.127,7.1894,7.2459,7.2459,7.2459,7.2459,7.2496,7.2496,7.2496,7.2496,7.2496,7.2496,0.0,7.2496,7.2496,7.2496,7.323,7.367,7.367,7.4404,7.483,7.483,7.483,7.483,7.483,7.483,7.483,7.4867,7.4867,7.4867,7.4903,7.4903,7.4903,7.4903,7.4903,7.4903,7.4903,7.4903,7.5359,7.6056,7.6056,7.6518,7.7252,7.7252,7.6225,7.4903,0.0,0.0,0.0,0.0,0.0,0.0,0.0,0.0,0.0,0.0,0.0,0.0,0.0,0.0,0.0,0.0,5.7997,5.7997,5.7997,5.7997,5.7997,5.7997,5.7997,5.7997,5.7997,5.7997,5.7997,5.7997,5.7997,5.7997,5.7997,5.7997,5.7997,5.7997,5.7997,5.7997,5.8033,5.8572,5.8792,5.8829,5.9391,5.9758,6.0003,6.0003,6.0493,6.1153,0.0,6.097,6.119,6.119,6.1741,6.2401,6.2401,6.2572,6.2903,6.3503,6.387,6.4213,6.4751,6.5081,6.5545,6.6623,6.7113,6.7664,6.8972,6.9926,7.0573,7.083,7.1541,7.2078,7.2078,7.2312,7.2496,7.2496,7.2496,7.2496,7.2496,7.2496,7.2716,7.323,7.3303,0.0,0.0,0.0,0.0,7.3303,7.4037,7.4515,7.4515,7.4757,7.4903,7.4903,7.4903,7.4903,7.4903,7.4903,7.516,7.5689,7.6225,7.6481,7.6481,7.6481,7.6481,7.6481,7.6481,7.6481,7.6481,7.6481,7.6665,7.6885,7.6885,7.7069,7.7289,7.7289,7.6959,7.6481,0.0,0.0,0.0,0.0,0.0,0.0,0.0,0.0,0.0,0.0,0.0,0.0,0.0,0.0,0.0,0.0,0.0,5.7997,5.7997,5.7997,5.7997,5.7997,5.7997,5.7997,5.7997,5.7997,5.8143,5.8437,5.8143,5.8143,5.8437,5.8437,5.8437,5.8437,5.8731,5.8841,5.8877,5.9416,5.9636,5.9673,6.0187,6.0566,6.0823,6.0823,6.1337,0.0,6.2034,6.2034,6.2034,6.2034,6.2365,6.2793,6.2793,6.3013,6.3429,6.4273,6.4714,6.5118,6.5925,6.6366,6.6916,6.8251,6.8752,6.9265,7.0293,7.116,7.1711,7.1711,7.2151,7.2496,7.2496,7.2496,7.2496,7.2496,7.2496,7.2606,7.2899,7.2936,7.323,7.4037,7.4147,7.4331,0.0,0.0,0.0,7.4147,7.4882,7.5322,7.5322,7.5601,7.5747,7.5747,7.5747,7.5747,7.5747,7.5747,7.6004,7.6533,7.7069,7.7289,7.7289,7.7289,7.7289,7.7289,7.7289,7.7289,7.7289,7.7289,7.7289,7.7289,7.7289,7.7289,7.7289,7.7289,7.7289,7.7289,0.0,0.0,0.0,0.0,0.0,0.0,0.0,0.0,0.0,0.0,0.0,0.0,0.0,0.0,0.0,0.0,0.0,0.0,5.7997,5.7997,5.7997,5.7997,5.7997,5.8033,5.807,5.807,5.8474,5.9269,5.851,5.851,5.9269,5.9269,5.9269,5.9306,6.004,6.0419,6.0419,6.0456,6.0456,6.0456,6.0529,6.097,6.1667,6.1667,6.2144,6.2793,6.2793,6.2793,6.2793,6.2793,6.2829,6.2866,6.2866,6.3466,6.4323,6.5118,6.5925,6.6733,6.7554,6.8348,6.9142,6.9963,7.0734,7.1307,7.1344,7.1931,7.2496,7.2496,7.2496,7.2496,7.2496,7.2496,7.2496,7.2496,7.2532,7.2826,7.3611,7.3758,7.4074,0.0,0.0,0.0,0.0,0.0,0.0,7.5087,0.0,7.6166,7.6166,7.6885,7.7289,7.7289,7.7289,7.7289,7.7289,7.7289,7.7289,7.7289,7.7289,7.7289,7.7289,7.7289,7.7289,7.7289,7.7289,7.7289,7.7289,7.7362,7.7362,7.7362,7.7399,7.7436,7.7436,7.7436,7.7436,7.7436,0.0,0.0,0.0,0.0,0.0,0.0,0.0,0.0,0.0,0.0,0.0,0.0,0.0,0.0,0.0,0.0,0.0,0.0,5.7997,5.7997,5.7997,5.7997,5.7997,5.829,5.8866,5.8902,5.9269,6.0077,5.9905,5.9905,6.0077,6.0077,6.0077,6.0114,6.0297,6.0419,6.0456,6.1043,6.13,6.1337,6.1949,6.2316,6.2499,6.2499,6.2609,6.2793,6.2793,6.2793,6.2793,6.2793,6.3246,6.3759,6.3759,6.4347,6.5154,6.5962,6.6769,6.759,6.8385,6.9192,7.0,7.0793,7.116,7.1454,7.2041,7.2349,7.2496,7.2496,7.2496,7.2496,7.2496,7.2496,7.2496,7.2496,7.301,7.345,7.3685,7.4221,7.4882,7.5689,7.5799,7.6041,7.6628,7.6885,0.0,0.0,7.6885,7.6995,7.6995,7.7179,7.7289,7.7289,7.7289,7.7289,7.7289,7.7289,7.7289,7.7289,7.7289,7.7289,7.7289,7.7289,7.7289,7.7289,7.7289,7.7289,7.7362,7.7986,7.8259,7.8332,7.8919,7.914,7.914,7.914,7.914,7.914,0.0,0.0,0.0,0.0,0.0,0.0,0.0,0.0,0.0,0.0,0.0,0.0,0.0,0.0,0.0,0.0,0.0,0.0,0.0,5.7997,5.8143,5.851,5.8547,5.8902,5.971,5.9747,6.0114,6.0933,6.0566,6.0566,6.0933,6.0933,6.0933,6.0933,6.13,6.1435,6.1471,6.1961,6.2144,0.0,0.0,6.2793,6.2793,6.2793,6.2793,6.2793,6.2793,6.305,6.3429,6.3783,6.398,6.4213,6.4947,6.5705,6.6512,6.732,6.8128,6.8935,6.9743,7.0293,7.0807,7.1637,7.1821,7.1931,7.2422,7.2496,7.2496,7.2496,7.2496,7.2496,7.2496,7.2496,7.2496,7.2496,7.3193,7.3817,7.4184,7.4918,7.5711,7.6518,7.6628,0.0,7.7252,7.7289,7.7289,0.0,7.7289,7.7289,7.7289,7.7289,7.7289,7.7289,7.7289,7.7289,7.7289,7.7289,7.7289,7.7289,7.7289,7.7509,7.7876,7.7876,7.806,7.8405,0.0,7.8405,7.8442,7.8919,7.914,7.9192,7.9633,7.9816,7.9816,7.9816,7.9816,7.9816,0.0,0.0,0.0,0.0,0.0,0.0,0.0,0.0,0.0,0.0,0.0,0.0,0.0,0.0,0.0,0.0,0.0,0.0,0.0,0.0,5.8462,5.9159,5.9306,5.9747,6.0529,6.0566,6.097,6.1741,6.108,6.108,6.1741,6.1741,6.1741,6.1777,6.2499,6.2793,6.2793,6.2793,6.2793,6.2793,6.2793,6.2793,6.2793,0.0,6.2866,6.2976,6.3086,6.3613,6.4383,6.5191,6.5007,6.4653,6.6072,6.715,6.7994,6.8715,6.9559,7.0403,7.1123,7.138,7.1637,7.2349,7.2496,7.2496,7.2496,7.2496,7.2496,7.2496,7.2496,7.2496,7.2496,7.2496,7.2496,7.2496,7.3266,7.4111,7.4793,7.5674,7.6533,7.7215,7.7289,7.7289,7.7289,7.7289,7.7362,7.7472,7.7472,7.7436,7.7326,7.7289,7.7362,7.7472,7.7582,7.7619,7.7619,7.7619,7.7619,7.7619,7.7619,7.8023,7.8772,7.8772,7.9155,7.9816,0.0,0.0,7.9816,7.9926,7.9963,7.9963,8.0073,8.011,8.011,8.011,8.011,8.011,0.0,0.0,0.0,0.0,0.0,0.0,0.0,0.0,0.0,0.0,5.7997,5.7997,0.0,0.0,0.0,0.0,0.0,0.0,0.0,0.0,0.0,5.9184,5.982,6.0566,6.1374,6.1374,6.1777,6.2572,6.2462,6.2462,6.2572,6.2572,6.2572,6.2609,6.2756,6.2793,6.2793,6.2793,6.2793,6.2793,6.2793,6.2793,6.2793,6.2793,0.0,0.0,6.464,6.4958,6.5215,6.6035,6.6182,6.6109,6.6402,6.7504,6.8715,6.8862,6.9949,7.1123,7.127,7.1784,7.2349,7.2459,7.2496,7.2496,7.2496,7.2496,7.2496,7.2496,7.2496,7.2496,7.2496,7.2496,7.2496,7.2496,7.3729,7.472,7.4867,7.6188,7.7142,7.7289,7.7289,7.7289,7.7289,7.7289,0.0,0.0,7.8369,7.8075,7.7362,7.7289,7.7619,7.8369,7.9029,7.9376,7.9376,7.9376,7.9376,7.9376,7.9376,7.9449,7.9596,7.9596,7.9669,7.9816,7.9816,0.0,7.9853,8.0534,8.0791,8.0865,8.1525,8.1799,8.1799,8.1799,8.1799,8.1799,0.0,0.0,0.0,0.0,0.0,0.0,0.0,5.7997,5.7997,5.7997,5.7997,5.7997,5.7997,5.7997,5.7997,0.0,0.0,0.0,0.0,0.0,0.0,6.0419,6.0823,6.141,6.2218,6.2218,6.2389,6.2793,0.0,6.2793,6.2793,6.2793,6.2793,6.2793,6.2793,6.2793,6.2793,6.2793,6.2793,6.2793,6.2793,6.2793,6.2866,6.3306,0.0,0.0,6.5632,6.5925,6.6035,6.6843,6.71,6.71,6.71,6.8238,6.9522,6.9522,7.0646,7.1931,7.1931,7.2202,7.2496,7.2496,7.2496,7.2496,7.2496,7.2496,7.2496,7.2496,7.2496,7.2496,7.2496,7.2496,7.2496,7.2496,7.3839,7.4903,7.4903,7.6298,7.7289,7.7289,7.7289,7.7289,7.7289,7.7693,7.8148,7.8552,7.8993,7.9029,7.8626,7.8589,7.8772,7.9229,7.9596,7.9816,7.9816,7.9816,7.9816,7.9816,7.9816,8.0036,8.0424,8.0424,8.0645,8.1064,8.1064,0.0,8.1101,8.1452,8.1636,8.1672,8.2039,8.2186,8.2186,8.2186,8.2186,8.2186,0.0,0.0,0.0,0.0,0.0,0.0,0.0,5.7997,5.7997,5.7997,5.7997,5.7997,5.7997,5.7997,5.7997,0.0,0.0,0.0,0.0,0.0,0.0,0.0,0.0,0.0,6.2793,0.0,0.0,6.2793,6.2793,0.0,0.0,0.0,0.0,0.0,6.2793,6.2793,6.2793,6.2793,6.2793,0.0,0.0,6.3086,6.3196,0.0,0.0,0.0,0.0,6.6769,6.6843,6.748,6.77,6.77,6.77,6.8802,7.011,7.011,7.1248,7.2496,7.2496,7.2496,7.2496,7.2496,7.2496,7.2496,7.2496,7.2496,7.2496,7.2496,7.2496,7.2496,7.2496,7.2496,7.2496,7.2496,7.3839,7.4903,7.4903,7.6298,7.7289,7.7289,7.7289,7.7362,7.7546,7.8222,0.0,7.9103,7.9853,0.0,7.9816,7.9963,8.0073,8.0073,8.022,8.033,8.033,8.033,8.033,8.033,8.033,8.0645,8.1269,8.1269,8.1599,8.2186,8.2186,0.0,0.0,8.2186,8.2186,8.2186,8.2186,8.2186,8.2186,8.2186,8.2186,8.2186,0.0,0.0,0.0,0.0,0.0,0.0,0.0,5.7997,5.7997,5.7997,5.7997,5.7997,5.7997,5.7997,5.7997,0.0,0.0,0.0,0.0,0.0,0.0,0.0,0.0,0.0,0.0,0.0,0.0,6.2793,6.2793,0.0,0.0,0.0,0.0,0.0,0.0,6.2793,6.2793,6.2793,0.0,0.0,0.0,0.0,0.0,0.0,0.0,0.0,0.0,6.759,6.759,6.7664,6.77,6.77,6.77,6.8802,7.011,7.011,7.1248,7.2496,7.2496,7.2496,7.2496,7.2496,7.2496,7.2496,7.2496,7.2496,7.2496,7.2496,7.2496,7.2496,7.2496,7.2496,7.2496,7.2496,7.3839,7.4903,7.4903,7.6298,7.7289,7.7289,7.7289,7.7619,7.8405,7.8552,7.9213,8.0681,8.1525,0.0,7.989,8.0498,8.0901,8.0901,8.1599,8.1966,8.1966,8.1966,8.1966,8.1966,8.1966,8.2003,8.2076,8.2076,8.2113,8.2186,8.2186,0.0,0.0,8.2186,8.2186,8.2186,8.2186,8.2186,8.2186,8.2186,8.2186,8.2186,0.0,0.0,0.0,0.0,0.0,0.0,5.7997,5.7997,5.7997,5.7997,5.7997,5.7997,5.7997,5.7997,5.7997,5.7997,0.0,0.0,0.0,0.0,0.0,0.0,0.0,0.0,0.0,0.0,6.2793,6.2793,6.2793,0.0,0.0,0.0,0.0,0.0,0.0,6.2793,6.2793,6.2793,0.0,0.0,0.0,0.0,0.0,0.0,0.0,0.0,0.0,0.0,6.77,6.77,6.77,6.77,6.77,6.8458,6.9486,6.9963,7.1248,7.2496,7.2496,7.2496,7.2496,7.2496,7.2496,7.2496,7.2496,7.2496,7.2496,7.2496,7.2496,7.2496,7.2496,7.2496,7.2496,7.2496,7.3839,7.4903,7.4903,7.6298,7.7289,7.7289,7.7766,7.8222,0.0,0.0,8.0498,8.1636,0.0,0.0,8.1285,8.1562,8.1709,8.1709,8.2039,8.2186,8.2186,8.2186,8.2186,8.2186,8.2186,8.2186,8.2186,8.2186,8.2186,8.2186,8.2186,0.0,0.0,8.2186,8.2186,8.2186,8.2186,8.2186,8.2186,8.2186,8.2186,8.2186,0.0,0.0,0.0,0.0,0.0,5.7997,5.7997,5.7997,5.7997,5.7997,5.7997,5.7997,5.7997,5.7997,5.7997,5.7997,5.7997,0.0,0.0,0.0,0.0,0.0,0.0,0.0,0.0,0.0,6.2793,6.2793,6.2793,6.2793,0.0,0.0,6.2793,6.2793,0.0,0.0,0.0,0.0,0.0,0.0,0.0,0.0,0.0,0.0,0.0,0.0,0.0,0.0,0.0,0.0,0.0,6.77,6.77,6.8238,6.9082,6.9853,7.1064,7.2202,7.2459,7.2496,7.2496,7.2496,7.2496,7.2496,7.2496,7.2496,7.2496,7.2496,7.2496,7.2496,7.2496,7.2496,7.2496,7.2496,7.3839,7.4903,7.4903,7.6298,7.7289,7.7289,7.806,7.8699,7.8919,8.0424,8.1599,8.215,0.0,0.0,8.2186,8.2186,8.2186,8.2186,8.2186,8.2186,8.2186,8.2186,8.2186,8.2186,8.2186,8.2186,8.2186,8.2186,8.2186,8.2186,0.0,0.0,0.0,8.2186,8.2186,8.2186,8.2186,8.2186,8.2186,8.2186,8.2186,8.2186,0.0,0.0,0.0,0.0,0.0,0.0,5.7997,5.7997,5.7997,5.7997,5.7997,5.7997,5.7997,5.7997,5.7997,5.7997,5.7997,0.0,0.0,0.0,0.0,0.0,0.0,0.0,0.0,0.0,6.2793,6.2793,6.2793,6.2793,6.2793,6.2793,6.2793,6.2793,0.0,0.0,0.0,0.0,0.0,0.0,0.0,0.0,6.77,0.0,0.0,0.0,0.0,0.0,0.0,0.0,0.0,0.0,0.0,6.8238,6.9082,6.9853,7.0697,7.149,7.2275,7.2496,7.2496,7.2496,7.2496,7.2496,7.2496,7.2496,7.2496,7.2496,7.2496,7.2496,7.2496,7.2496,7.2496,7.2496,7.3839,7.4903,7.4903,7.6298,7.7289,7.7289,7.806,7.8919,7.9706,8.1248,8.2186,8.2186,0.0,0.0,8.2186,8.2186,8.2186,8.2186,8.2186,8.2186,8.2186,8.2186,8.2186,8.2186,8.2186,8.2186,8.2186,8.2186,8.2186,0.0,0.0,0.0,0.0,8.2186,8.2186,8.2186,8.2186,8.2186,8.2186,8.2186,8.2186,8.2186,0.0,0.0,0.0,0.0,0.0,0.0,0.0,5.7997,5.7997,5.7997,5.7997,5.7997,5.7997,5.7997,5.8217,5.8756,5.8829,0.0,0.0,0.0,0.0,0.0,0.0,0.0,0.0,0.0,6.2793,6.2793,6.2793,6.2793,6.2793,6.2793,6.2793,6.2793,6.2793,6.2793,0.0,0.0,0.0,0.0,0.0,6.748,6.77,0.0,0.0,0.0,0.0,0.0,0.0,0.0,0.0,0.0,0.0,0.0,0.0,6.9853,7.066,7.149,7.2275,7.2496,7.2496,7.2496,7.2496,7.2496,7.2496,7.2496,7.2496,7.2496,7.2496,7.2496,7.2496,7.2496,7.2496,7.2496,7.3839,7.4903,7.4903,7.6298,7.7289,7.7289,7.8552,7.9963,0.0,0.0,8.2186,8.2186,0.0,0.0,8.2186,8.2186,8.2186,8.2186,8.2186,8.2186,8.2186,8.2186,8.2186,8.2186,8.2186,8.2186,8.2186,8.2186,0.0,0.0,0.0,0.0,0.0,8.2186,8.2186,8.2186,8.2186,8.2186,8.2186,8.2186,8.2186,8.2186,0.0,0.0,0.0,0.0,0.0,0.0,0.0,5.7997,5.7997,5.7997,5.7997,5.7997,5.7997,5.8253,5.8646,5.9159,5.9747,0.0,0.0,0.0,0.0,0.0,0.0,0.0,6.2793,6.2793,6.2793,6.2793,6.2793,6.2793,6.2793,6.2793,6.2793,6.2793,6.2793,6.2793,0.0,0.0,0.0,0.0,6.737,6.77,6.77,0.0,0.0,0.0,0.0,0.0,0.0,0.0,0.0,0.0,0.0,0.0,0.0,0.0,7.066,7.149,7.2275,7.2496,7.2496,7.2496,7.2496,7.2496,7.2496,7.2496,7.2496,7.2496,7.2496,7.2496,7.2496,7.2496,7.2496,7.2496,7.3839,7.4903,7.4903,7.6298,7.7546,7.817,7.914,8.044,0.0,8.2186,8.2186,8.2186,0.0,0.0,8.2186,8.2186,8.2186,8.2186,8.2186,8.2186,8.2186,8.2186,8.2186,8.2186,8.2186,8.2186,8.2186,8.2186,0.0,0.0,0.0,0.0,0.0,8.2186,8.2186,8.2186,8.2186,8.2186,8.2186,8.2186,8.2186,8.2186,0.0,0.0,0.0,0.0,0.0,0.0,0.0,5.7997,5.7997,5.7997,5.7997,5.8033,5.807,5.8756,5.9269,5.938,0.0,0.0,0.0,0.0,0.0,0.0,0.0,0.0,6.2793,6.2793,6.2793,6.2793,6.2793,6.2793,6.2793,6.2793,6.2793,6.2793,6.2793,6.2866,0.0,0.0,0.0,0.0,6.7407,6.77,0.0,0.0,0.0,0.0,0.0,0.0,0.0,0.0,0.0,0.0,0.0,0.0,0.0,0.0,0.0,0.0,0.0,7.2496,7.2496,7.2496,7.2496,7.2496,7.2496,7.2496,0.0,7.2496,7.2496,7.2496,7.2496,7.2496,7.2532,7.2569,7.3876,7.4903,7.4977,7.6335,7.7913,7.9596,7.9816,0.0,8.2039,8.2186,8.2186,8.2186,0.0,0.0,8.2186,8.2186,8.2186,8.2186,8.2186,8.2186,8.2186,8.2186,8.2186,8.2186,8.2186,8.2186,8.2186,8.2186,0.0,0.0,0.0,0.0,0.0,8.2186,8.2186,8.2186,8.2186,8.2186,8.2186,8.2186,8.2186,8.2186,0.0,0.0,0.0,0.0,0.0,0.0,0.0,0.0,0.0,0.0,5.7997,5.8217,5.8866,5.9086,5.971,0.0,0.0,0.0,0.0,0.0,0.0,0.0,0.0,0.0,6.2793,6.2793,6.2793,6.2793,6.2793,6.2793,6.2793,6.2793,6.2793,6.2793,6.2793,6.3527,0.0,0.0,0.0,0.0,6.7627,6.77,0.0,0.0,0.0,0.0,6.77,6.77,0.0,0.0,0.0,0.0,0.0,0.0,0.0,0.0,7.16,7.2275,7.2459,0.0,7.2496,7.2496,7.2496,7.2496,0.0,7.2496,7.2496,7.2496,7.2496,7.2496,7.2496,7.2496,7.2716,7.3303,7.4258,7.5124,7.5726,7.6665,7.7913,7.9596,7.9816,8.044,8.2039,8.2186,8.2186,0.0,0.0,8.2186,8.2186,8.2186,8.2186,8.2186,8.2186,8.2186,8.2186,8.2186,8.2186,8.2186,8.2186,8.2186,8.2186,8.2186,0.0,0.0,0.0,0.0,8.2186,8.2186,8.2186,8.2186,8.2186,8.2186,8.2186,8.2186,8.2186,8.2186,0.0,0.0,0.0,0.0,0.0,0.0,0.0,0.0,0.0,0.0,0.0,5.8866,5.9673,6.0077,0.0,0.0,0.0,0.0,0.0,0.0,0.0,0.0,0.0,6.2793,6.2793,6.2793,6.2793,6.2793,6.2793,6.2793,6.2793,6.2793,6.2793,6.2829,6.3196,6.4127,0.0,0.0,0.0,6.77,6.77,0.0,0.0,0.0,0.0,0.0,6.77,6.77,0.0,6.77,6.7958,6.8311,0.0,0.0,0.0,0.0,7.1857,7.2496,7.2496,7.2496,7.2496,7.2496,7.2496,7.2496,7.2496,7.2496,7.2496,7.2496,7.2496,7.2496,7.2496,7.2496,7.2753,7.356,7.4368,7.5307,7.6481,7.7032,7.7913,7.9596,7.9816,8.044,0.0,8.2186,8.2186,0.0,0.0,8.2186,8.2186,8.2186,8.2186,8.2186,8.2186,8.2186,8.2186,8.2186,8.2186,8.2186,8.2186,8.2186,8.2186,8.2186,8.2186,0.0,0.0,0.0,8.2186,8.2186,8.2186,8.2186,8.2186,8.2186,8.2186,8.2186,8.2186,8.2186,0.0,0.0,0.0,0.0,0.0,0.0,0.0,0.0,0.0,0.0,0.0,0.0,0.0,0.0,0.0,0.0,0.0,0.0,0.0,0.0,0.0,0.0,6.2793,6.2793,6.2793,6.2793,6.2793,6.2793,6.2793,6.2793,6.2793,6.2793,6.2866,6.305,6.3906,6.4714,0.0,0.0,0.0,6.77,6.77,0.0,0.0,0.0,0.0,0.0,0.0,0.0,0.0,6.77,6.8238,6.8921,6.9032,0.0,0.0,0.0,0.0,0.0,7.2496,7.2496,7.2496,7.2496,7.2496,7.2496,7.2496,7.2496,7.2496,7.2496,7.2496,7.2496,7.2496,7.2606,7.2936,7.3744,7.4661,7.5747,7.7105,7.7289,7.7913,7.9596,7.9816,0.0,8.2039,8.2186,8.2186,0.0,0.0,8.2186,8.2186,8.2186,8.2186,8.2186,8.2186,8.2186,8.2186,8.2186,8.2186,8.2186,8.2186,8.2186,8.2186,8.2186,8.2186,0.0,0.0,0.0,8.2186,8.2186,8.2186,8.2186,8.2186,8.2186,8.2186,8.2186,8.2186,8.2223,0.0,0.0,0.0,0.0,0.0,0.0,0.0,0.0,0.0,0.0,0.0,0.0,0.0,0.0,0.0,0.0,0.0,0.0,0.0,0.0,0.0,6.2793,6.2793,6.2793,6.2793,6.2793,6.2793,6.2793,6.2793,6.2793,6.2793,6.2793,6.3196,6.3956,6.4751,6.5558,6.6366,0.0,0.0,6.77,6.77,0.0,0.0,0.0,0.0,0.0,0.0,0.0,0.0,6.77,6.8238,6.9009,6.9706,0.0,0.0,0.0,0.0,0.0,7.2496,7.2496,7.2496,7.2496,7.2496,7.2496,7.2496,7.2496,7.2496,7.2496,7.2496,7.2496,7.2496,7.3046,7.378,7.4588,7.5968,7.7032,7.7289,7.7289,7.7913,7.9596,0.0,8.044,8.2039,8.2186,8.2186,0.0,0.0,8.2186,8.2186,8.2186,8.2186,8.2186,8.2186,8.2186,8.2186,8.2186,8.2186,8.2186,8.2186,8.2186,8.2186,8.2186,8.2186,8.2186,0.0,8.2186,8.2186,8.2186,8.2186,8.2186,8.2186,8.2186,8.2186,8.2186,8.2186,8.2296,0.0,0.0,0.0,0.0,0.0,0.0,0.0,0.0,0.0,0.0,0.0,0.0,0.0,0.0,0.0,0.0,0.0,0.0,0.0,0.0,6.2793,6.2793,6.2793,6.2793,6.2793,6.2793,6.2793,6.2793,6.2793,6.2793,6.2793,6.2793,6.3282,6.4139,6.4934,6.5742,6.6549,6.737,6.77,6.77,0.0,0.0,0.0,0.0,0.0,0.0,0.0,0.0,0.0,0.0,6.8862,6.9706,7.0477,0.0,0.0,0.0,0.0,0.0,7.2496,7.2496,7.2496,7.2496,7.2496,7.2496,7.2496,7.2496,7.2496,7.2496,7.2496,7.2496,7.2496,7.3156,7.4111,7.5359,7.6518,7.7289,7.7289,7.7693,7.8442,0.0,0.0,8.0901,8.2076,8.2186,8.2186,0.0,0.0,0.0,8.2186,8.2186,8.2186,8.2186,8.2186,8.2186,8.2186,8.2186,8.2186,8.2186,8.2186,8.2186,8.2186,8.2186,8.2186,8.2186,0.0,8.2186,8.2186,8.2186,8.2186,8.2186,8.2186,8.2186,8.226,8.27,8.2847,8.2957,0.0,0.0,0.0,0.0,0.0,0.0,0.0,0.0,0.0,0.0,0.0,0.0,0.0,0.0,0.0,0.0,0.0,0.0,0.0,6.2793,6.2793,6.2793,6.2793,6.2793,6.2793,6.2793,6.2793,6.2793,6.2793,6.2793,6.2793,6.3013,6.3576,6.442,6.5228,6.6035,6.6806,6.7444,6.77,6.77,0.0,0.0,0.0,0.0,0.0,0.0,0.0,0.0,0.0,0.0,0.0,0.0,0.0,0.0,0.0,7.2496,7.2496,7.2496,7.2496,7.2496,7.2496,7.2496,7.2496,7.2496,7.2496,7.2496,7.2496,7.2496,7.2496,7.2569,7.2753,7.3597,7.4735,7.6166,7.6885,7.7289,7.7289,7.8075,7.8883,7.9706,8.0498,8.1342,8.2113,8.2186,0.0,0.0,0.0,0.0,8.2186,8.2186,8.2186,8.2186,8.2186,8.2186,8.2186,8.2186,8.2186,8.2186,8.2186,8.2186,8.2186,8.2186,8.2186,8.2186,8.2186,8.2186,8.2186,8.2186,8.2186,8.2186,8.2186,8.2333,8.2553,8.3161,8.3638,8.4042,0.0,0.0,0.0,0.0,0.0,0.0,0.0,0.0,0.0,0.0,0.0,0.0,0.0,0.0,0.0,0.0,0.0,0.0,0.0,6.2793,6.2793,6.2793,6.2793,6.2793,6.2793,6.2793,6.2793,6.2793,6.2793,6.2793,6.2829,6.3613,6.442,6.5251,6.6035,6.6843,6.7627,6.7664,6.77,6.77,6.77,0.0,0.0,0.0,0.0,0.0,0.0,0.0,0.0,0.0,0.0,0.0,0.0,0.0,7.2496,7.2496,7.2496,7.2496,7.2496,7.2496,7.2496,7.2496,7.2496,7.2496,7.2496,7.2496,7.2496,7.2496,7.2496,7.2716,7.3487,7.4882,7.6203,7.7069,7.7252,7.7289,7.7289,0.0,7.8883,7.9706,8.0498,8.1342,8.2113,8.2186,0.0,0.0,0.0,0.0,8.2186,8.2186,8.2186,8.2186,8.2186,8.2186,8.2186,8.2186,8.2186,8.2186,8.2186,8.2186,8.2186,8.2186,8.2186,8.2186,8.2186,8.2186,8.2186,8.2186,8.2186,8.2186,8.2186,8.2663,8.3308,8.3381,8.4352,8.5637,0.0,0.0,0.0,0.0,0.0,0.0,0.0,0.0,0.0,0.0,0.0,0.0,0.0,0.0,0.0,0.0,0.0,0.0,0.0,6.2793,6.2793,6.2793,6.2793,6.2793,6.2793,6.2793,6.2793,6.2793,6.2793,6.3086,6.3613,6.3956,6.4787,6.6072,6.6366,6.6953,6.77,6.77,6.77,6.77,6.77,6.77,0.0,0.0,0.0,0.0,0.0,0.0,0.0,0.0,7.0183,7.0991,7.1784,7.2275,7.2496,7.2496,7.2496,7.2496,7.2496,7.2496,7.2496,7.2496,7.2496,7.2496,7.2496,7.2496,7.2496,7.2496,7.2496,7.2899,7.4221,7.5359,7.635,7.7179,7.7289,7.7289,7.7289,7.8479,7.9449,7.9779,8.0938,8.1856,8.215,0.0,0.0,0.0,0.0,0.0,8.2186,8.2186,8.2186,8.2186,8.2186,8.2186,8.2186,8.2186,8.2186,8.2186,8.2186,8.2186,8.2186,8.2186,8.2186,8.2186,8.2186,8.2186,8.2186,8.2186,8.2186,8.226,8.2737,8.3434,8.4272,8.5229,8.5952,8.6623,0.0,0.0,0.0,0.0,0.0,0.0,0.0,0.0,0.0,0.0,0.0,0.0,0.0,0.0,0.0,0.0,0.0,0.0,6.2793,6.2793,6.2793,6.2793,6.2793,6.2793,6.2793,6.2793,6.2793,6.2793,6.3086,6.3503,6.4103,6.4617,6.5461,6.6512,6.6769,6.7187,6.77,6.77,6.77,6.77,6.77,6.77,0.0,0.0,0.0,0.0,0.0,0.0,0.0,0.0,7.083,7.1454,7.2261,7.2496,7.2496,7.2496,7.2496,7.2496,7.2496,7.2496,7.2496,7.2496,7.2496,7.2496,7.2496,7.2496,7.2496,7.2496,7.2899,7.3656,7.5028,7.5946,7.6665,7.7215,7.7289,7.7289,7.7289,7.8736,7.9816,7.9816,8.1211,8.2186,8.2186,0.0,0.0,0.0,0.0,0.0,0.0,8.2186,8.2186,8.2186,8.2186,8.2186,8.2186,8.2186,8.2186,8.2186,8.2186,8.2186,8.2186,8.2186,8.2186,8.2186,8.2186,8.2186,8.2186,8.2186,8.2475,8.2934,8.3524,8.4495,8.577,8.6823,8.7384,8.7754,0.0,0.0,0.0,0.0,0.0,0.0,0.0,0.0,0.0,0.0,0.0,0.0,0.0,0.0,0.0,0.0,0.0,0.0,6.2793,6.2793,6.2793,6.2793,6.2793,6.2793,6.2793,6.2793,6.2793,6.2793,6.3686,6.4139,6.4176,6.5742,6.6512,6.6549,6.7333,6.77,6.77,6.77,6.77,6.77,6.77,6.77,6.77,0.0,0.0,0.0,0.0,0.0,0.0,0.0,7.1307,7.1454,7.2261,7.2496,7.2496,7.2496,7.2496,7.2496,7.2496,7.2496,7.2496,7.2496,7.2496,7.2496,7.2496,7.2496,7.2496,7.2496,7.378,7.516,7.5946,7.6738,7.7289,7.7289,7.7289,7.7289,7.7289,7.8736,7.9779,7.9816,8.1211,8.2186,8.2186,0.0,0.0,0.0,0.0,0.0,0.0,8.2186,8.2186,8.2186,8.2186,8.2186,8.2186,8.2186,8.2186,8.2186,8.2186,8.2186,8.2186,8.2186,8.2186,8.2186,8.2186,8.2186,8.2186,8.2239,8.3081,8.441,8.4425,8.5862,8.7915,8.7915,8.843,8.9122,0.0,0.0,0.0,0.0,0.0,0.0,0.0,0.0,0.0,0.0,0.0,0.0,0.0,0.0,0.0,0.0,0.0,0.0,6.2793,6.2793,6.2793,6.2793,6.2793,6.2793,6.2793,6.3392,6.3723,6.3723,6.453,6.5228,6.5815,6.6292,6.6806,6.737,6.759,6.77,6.77,6.77,6.77,6.77,6.77,6.77,6.77,0.0,0.0,0.0,0.0,0.0,0.0,0.0,0.0,0.0,7.2422,7.2496,7.2496,7.2496,7.2496,7.2496,7.2496,7.2496,7.2496,7.2496,7.2496,7.2496,7.2496,7.2496,7.2679,7.323,7.4625,7.5836,7.6056,7.6738,7.7289,7.7289,7.7289,7.7289,7.7289,7.8259,7.9192,7.9743,8.0718,8.1562,8.215,0.0,0.0,0.0,0.0,0.0,0.0,8.2186,8.2186,8.2186,8.2186,8.2186,8.2186,8.2186,8.2186,8.2186,8.2186,8.2186,8.2186,8.2186,8.2186,8.2186,8.2186,8.2186,8.2272,8.3331,8.4354,8.5363,8.6435,8.7645,8.8809,8.9277,8.9593,8.9867,0.0,0.0,0.0,0.0,0.0,0.0,0.0,0.0,0.0,0.0,6.2793,6.2793,0.0,0.0,0.0,0.0,0.0,0.0,0.0,6.2793,6.2793,6.2793,6.3123,6.3466,6.3783,6.4604,6.5044,6.5044,6.5558,6.6035,6.6512,6.6843,6.726,6.77,6.77,6.77,6.77,6.77,6.77,6.77,6.77,6.77,6.7737,0.0,0.0,0.0,0.0,0.0,0.0,0.0,0.0,0.0,7.2496,7.2496,7.2496,7.2496,7.2496,7.2496,7.2496,7.2496,7.2496,7.2496,7.2496,7.2569,7.2899,7.2973,7.3303,7.4404,7.5432,7.6203,7.6533,7.6959,7.7289,7.7289,7.7289,7.7289,7.7289,7.8075,7.8883,7.9706,8.0498,8.1342,8.2113,0.0,0.0,0.0,0.0,0.0,0.0,8.2585,8.2465,8.2203,8.2186,8.2186,8.2186,8.2186,8.2327,8.2585,8.2327,8.2343,8.2585,8.2311,8.2186,8.2186,8.2186,8.237,8.2766,8.3938,8.5231,8.6629,8.7827,8.8983,8.9973,9.0406,9.0518,9.0606,0.0,0.0,0.0,0.0,0.0,0.0,0.0,0.0,0.0,0.0,6.2793,6.2793,0.0,0.0,0.0,0.0,0.0,0.0,0.0,6.2866,6.2903,6.2903,6.3759,6.4604,6.5398,6.6145,6.6549,6.6623,6.6623,6.6623,6.6623,6.737,6.77,6.77,6.77,6.77,6.77,6.77,6.77,6.77,6.7774,6.7811,6.7921,6.8715,0.0,0.0,0.0,0.0,0.0,0.0,0.0,0.0,7.2496,7.2496,7.2496,7.2496,7.2496,7.2496,7.2496,7.2496,7.2496,7.2496,7.2569,7.2826,7.3634,7.3868,7.4331,7.5799,7.6166,7.6423,7.7179,7.7289,7.7289,7.7289,7.7289,7.7289,7.7289,7.7986,7.8809,7.9706,8.0461,8.1232,8.2113,0.0,0.0,0.0,0.0,0.0,0.0,8.3303,8.298,8.2295,8.2279,8.2279,8.2279,8.2235,8.2544,8.3189,8.2528,8.2528,8.3111,8.2481,8.2186,8.2186,8.226,8.2737,8.3464,8.4347,8.5978,8.7991,8.8803,8.9956,9.121,9.121,9.121,9.121,0.0,0.0,0.0,0.0,0.0,0.0,0.0,0.0,0.0,0.0,0.0,0.0,0.0,0.0,0.0,0.0,0.0,0.0,0.0,6.3429,6.3796,6.3796,6.4604,6.5411,6.6219,6.6402,6.6806,6.7444,6.7444,6.7444,6.7444,6.7627,6.77,6.77,6.77,6.77,6.77,6.77,6.77,6.7774,6.8385,6.8641,6.8715,6.9522,7.022,0.0,0.0,0.0,0.0,0.0,0.0,0.0,7.2496,7.2496,7.2496,7.2496,7.2496,7.2496,7.2496,7.2496,7.2496,7.2496,7.2973,7.3634,7.4478,7.5139,7.5689,7.6019,7.6592,7.7105,7.7289,7.7289,7.7289,7.7289,7.7289,7.7289,7.7289,7.7472,7.8148,7.9633,7.9963,8.0608,8.2039,0.0,0.0,0.0,0.0,0.0,8.3979,8.3979,8.3691,8.3009,8.298,8.298,8.298,8.245,8.2544,0.0,8.2528,8.2284,8.2423,8.2284,8.2186,8.2223,8.2884,8.3234,8.3586,8.6097,8.7447,8.8079,8.998,9.089,9.121,9.121,9.121,9.121,0.0,0.0,0.0,0.0,0.0,0.0,0.0,0.0,0.0,0.0,0.0,0.0,0.0,0.0,0.0,0.0,0.0,0.0,0.0,0.0,6.4861,6.5228,6.5668,6.6256,6.7063,6.7076,6.7297,6.77,6.77,6.77,6.77,6.77,6.77,6.77,6.77,6.77,6.77,6.77,6.7921,6.8311,6.8752,6.9119,6.9559,7.0367,7.094,7.1344,7.1747,0.0,0.0,0.0,0.0,0.0,0.0,0.0,7.2496,7.2496,7.2496,7.2496,7.2496,7.2496,7.2606,7.2973,7.3377,7.4001,7.5212,7.5799,7.6203,7.6592,7.6995,7.7289,7.7289,7.7289,7.7289,7.7289,7.7289,7.7289,7.7289,7.7289,7.7913,7.9596,7.9816,8.044,8.2039,0.0,0.0,0.0,0.0,8.4974,8.4651,8.4639,8.4349,8.3717,8.3691,8.3691,8.3691,8.3308,8.3488,8.4092,8.3461,8.298,8.2678,8.2343,8.2186,8.2223,8.3067,8.3601,8.4191,8.6789,8.8128,8.8671,9.0483,9.121,9.121,9.121,9.121,9.121,0.0,0.0,0.0,0.0,0.0,0.0,0.0,0.0,0.0,0.0,0.0,0.0,0.0,0.0,0.0,0.0,0.0,0.0,0.0,0.0,0.0,6.6659,6.6696,6.704,6.77,6.77,6.77,6.77,6.77,6.77,6.77,6.77,6.77,6.77,6.7847,6.7921,6.7921,6.8068,6.8495,6.9119,6.9252,6.9706,7.0403,7.1197,7.1527,7.16,7.2275,7.2496,7.2496,7.2496,0.0,0.0,0.0,0.0,7.2496,7.2496,7.2496,7.2496,7.2496,7.2496,7.2679,7.3487,7.378,7.4294,7.5763,7.6203,7.6497,7.7179,7.7289,7.7289,7.7289,7.7289,7.7289,7.7289,7.7289,7.7289,7.7289,7.7436,7.8096,7.9633,7.9926,8.0635,8.2212,0.0,0.0,0.0,0.0,8.5846,8.532,8.5252,8.5006,8.4372,8.436,8.436,8.436,8.4252,8.4502,8.511,8.4372,8.3744,8.3175,8.266,8.2406,8.2443,8.3234,8.4058,8.4963,8.7202,8.8493,8.925,9.0664,9.121,9.121,9.121,9.121,9.121,0.0,0.0,0.0,0.0,0.0,0.0,0.0,0.0,0.0,0.0,6.2793,6.2793,0.0,0.0,0.0,0.0,0.0,0.0,6.5141,0.0,0.0,6.7517,6.7554,6.759,6.77,6.77,6.77,6.77,6.77,6.77,6.77,6.77,6.77,6.7737,6.8421,6.8752,6.8788,6.9486,6.9853,7.0,7.0683,7.105,7.1233,7.2041,7.2349,7.2349,7.2459,7.2496,7.2496,7.2496,7.2496,0.0,0.0,0.0,7.2496,7.2496,7.2496,7.2496,7.2496,7.2496,7.2679,7.3487,7.4221,7.4977,7.5909,7.6628,7.7179,7.7289,7.7289,7.7289,7.7289,7.7289,7.7289,7.7289,7.7289,7.7289,7.7289,7.7949,7.8772,7.9706,8.0424,8.1423,8.2898,0.0,0.0,0.0,8.5673,8.6069,8.5962,8.5962,8.5664,8.4989,8.4968,8.4968,8.4968,8.4467,8.4502,8.51,8.3915,8.3289,8.3212,8.3235,8.3234,8.3271,8.4095,8.4903,8.5825,8.8036,8.9008,8.925,9.0664,9.121,9.121,9.121,9.121,9.121,0.0,0.0,0.0,0.0,0.0,0.0,0.0,0.0,0.0,0.0,0.0,6.3539,0.0,0.0,0.0,6.4787,6.5521,6.6145,6.6623,6.699,6.7333,6.7664,6.77,6.77,6.77,6.77,6.77,6.77,6.77,6.7921,6.8385,6.8385,6.8385,6.8421,6.9192,6.9559,6.9596,6.9963,7.0367,7.0807,7.116,7.1564,7.2004,7.2386,7.2496,7.2496,7.2496,7.2496,7.2496,7.2496,7.2496,7.2496,7.2496,0.0,0.0,0.0,7.2496,7.2496,7.2496,7.2496,7.2789,7.4074,7.4647,7.5234,7.6481,7.7032,7.7289,7.7289,7.7289,7.7289,7.7289,7.7289,7.7289,7.7289,7.7289,7.7289,7.7289,7.8075,7.8883,7.9706,8.0498,8.1565,8.3057,0.0,0.0,0.0,8.571,8.6094,8.6094,8.6094,8.5962,8.5673,8.5664,8.5664,8.5664,8.5417,8.5417,8.5655,8.4718,8.4263,8.4264,8.4061,8.3762,8.3454,8.4719,8.5717,8.656,8.8367,8.9301,8.9763,9.082,9.121,9.121,9.121,9.121,9.121,0.0,0.0,0.0,0.0,0.0,0.0,0.0,0.0,0.0,0.0,0.0,0.0,0.0,0.0,0.0,0.0,6.6329,6.7063,6.7664,6.77,6.77,6.77,6.77,6.77,6.77,6.77,6.7811,6.7981,6.7981,6.8421,6.9229,6.9398,6.9509,6.9545,7.0146,7.0403,7.0403,7.0624,7.1064,7.16,7.16,7.1967,7.2496,7.2496,7.2496,7.2496,7.2496,0.0,0.0,0.0,7.2496,7.2496,7.2496,7.2496,0.0,0.0,0.0,7.2496,7.2496,7.2496,7.2899,7.45,7.4903,7.5307,7.6922,7.7289,7.7289,7.7289,7.7289,7.7289,7.7289,7.7289,7.7289,7.7289,7.7289,7.7289,7.7289,7.8222,7.914,7.9743,8.0851,8.2073,8.334,8.4042,0.0,0.0,8.582,8.6094,8.6094,8.6094,8.6094,8.6094,8.6094,8.6094,8.6094,8.6094,8.6094,8.6085,8.5408,8.5114,8.516,8.4843,8.456,8.4366,8.5546,8.6508,8.7317,8.8766,8.9657,9.0171,9.0905,9.121,9.121,9.121,9.121,9.121,0.0,0.0,0.0,0.0,0.0,0.0,0.0,0.0,0.0,0.0,0.0,0.0,6.5251,6.5962,6.6439,6.6439,6.7187,6.7664,6.77,6.77,6.77,6.77,6.77,0.0,6.77,6.77,6.8054,6.8862,6.8862,6.9265,7.0036,7.083,7.1197,7.1197,7.1233,7.1233,7.1307,7.2041,7.2386,7.2459,7.2459,7.2459,7.2496,7.2496,7.2496,7.2496,0.0,0.0,0.0,0.0,0.0,0.0,0.0,7.2496,7.2496,0.0,0.0,0.0,7.2496,7.2496,7.2899,7.45,7.4903,7.5307,7.6922,7.7289,7.7289,7.7289,7.7289,7.7289,7.7289,7.7289,7.7289,7.7289,7.7289,7.7289,7.7289,7.8699,7.9743,7.9816,8.1726,8.3368,8.408,8.4696,0.0,0.0,8.6077,8.6094,8.6094,8.6094,8.6094,8.6094,8.6094,8.6094,8.6094,8.6094,8.6094,8.6085,8.5408,8.5203,8.5386,8.5494,8.5991,8.6736,8.681,8.7294,8.8153,8.9487,9.0084,9.0171,9.0905,9.121,9.121,9.121,9.121,9.121,0.0,0.0,0.0,0.0,0.0,0.0,0.0,0.0,0.0,0.0,0.0,0.0,0.0,6.6769,6.726,6.726,6.7517,6.77,6.77,6.77,6.77,6.77,6.77,6.7958,6.8458,6.8458,6.8862,6.9669,6.9669,7.0073,7.0881,7.116,7.1564,7.2078,7.2078,7.2078,7.2092,7.2386,7.2496,7.2496,7.2496,7.2496,7.2496,7.2496,0.0,0.0,0.0,0.0,0.0,0.0,0.0,0.0,0.0,0.0,7.2496,7.2496,7.2496,7.2496,7.2496,7.2496,7.2753,7.3854,7.4515,7.5197,7.6261,7.6922,7.7289,7.7289,7.7289,7.7289,7.7289,7.7289,7.7289,7.7289,7.7289,7.7289,7.7289,7.8736,7.9816,7.9816,8.1445,8.2994,8.4105,8.4396,0.0,0.0,0.0,8.6094,8.6094,8.6094,8.6094,8.6094,8.6094,8.6094,8.6094,8.6094,8.6094,8.6085,8.5846,8.5838,8.5994,8.6609,8.7109,8.7544,8.8507,8.9111,8.9401,8.9901,9.0367,9.0848,9.11,9.121,9.121,9.121,9.121,9.121,0.0,0.0,0.0,0.0,0.0,0.0,0.0,0.0,0.0,6.5705,0.0,0.0,0.0,0.0,6.77,6.77,6.77,6.77,6.77,6.77,6.7811,6.8104,6.8091,6.8458,6.9302,6.9032,6.9449,7.0513,7.022,7.066,7.1711,7.1711,7.1967,7.2496,7.2496,7.2496,7.2496,7.2496,7.2496,7.2496,7.2496,7.2496,7.2496,7.2496,0.0,0.0,0.0,0.0,0.0,0.0,0.0,0.0,0.0,0.0,0.0,0.0,7.2496,7.2496,7.2496,7.2496,7.2679,7.3487,7.4294,7.5124,7.5909,7.6702,7.7289,7.7289,7.7289,7.7289,7.7289,7.7289,7.7289,7.7289,7.7289,7.7289,7.7289,7.8736,7.9816,7.9816,8.1429,8.2965,8.4105,8.4384,8.4953,0.0,0.0,0.0,8.6094,8.6094,8.6094,8.6094,8.6094,8.6094,8.6094,8.6094,8.6094,8.6085,8.6153,8.6259,8.6423,8.7061,8.7676,8.8291,8.932,8.9889,9.0127,9.0357,9.0752,9.121,9.121,9.121,9.121,9.121,9.121,9.1145,0.0,0.0,0.0,0.0,0.0,0.0,0.0,0.0,6.6549,6.6549,0.0,0.0,0.0,0.0,0.0,6.77,6.77,6.77,6.7737,6.7737,6.8104,6.8885,6.8935,6.9302,7.011,6.9376,6.9729,7.1344,7.055,7.0954,7.2496,7.2496,7.2496,7.2496,7.2496,7.2496,7.2496,7.2496,7.2496,7.2496,7.2496,7.2496,7.2496,0.0,0.0,0.0,7.2496,7.2496,0.0,7.2496,0.0,0.0,0.0,0.0,0.0,0.0,0.0,7.2496,0.0,0.0,0.0,7.345,7.4294,7.5087,7.5909,7.6702,7.7289,7.7289,7.7289,7.7289,7.7289,7.7289,7.7289,7.7289,7.7289,7.7289,7.7289,7.8736,7.9779,7.9816,8.1778,8.3433,8.4129,8.4729,8.536,0.0,8.6094,8.6094,8.6094,8.6094,8.6094,8.6094,8.6094,8.6085,8.6069,8.6069,8.6069,8.6043,8.6201,8.6389,8.6567,8.6751,8.7674,8.9122,8.9135,8.9487,9.0181,9.0895,9.121,9.121,9.121,9.121,9.121,9.121,9.1201,9.1082,0.0,0.0,0.0,0.0,0.0,6.6366,6.6953,6.7223,6.737,0.0,0.0,0.0,6.77,6.77,6.77,6.77,6.77,6.7958,6.8531,6.8568,6.8935,6.9743,6.9779,7.0146,7.094,7.0756,7.1123,7.2165,7.1945,7.2055,7.2496,7.2496,7.2496,7.2496,7.2496,7.2496,7.2496,7.2496,7.2496,7.2496,7.2496,7.2496,0.0,0.0,0.0,0.0,0.0,7.2496,7.2496,0.0,7.2496,7.2496,0.0,0.0,0.0,0.0,0.0,0.0,7.2496,0.0,0.0,0.0,0.0,0.0,7.516,7.6298,7.7289,7.7289,7.7289,7.7289,7.7289,7.7289,7.7289,7.7289,7.7289,7.7289,7.7289,7.8259,7.9155,7.9743,8.0866,8.2289,8.4029,8.4349,8.492,0.0,8.6094,8.6094,8.6094,8.6094,8.6094,8.6094,8.6094,8.5855,8.5379,8.5379,8.5151,8.4745,8.5347,8.5725,8.59,8.7022,8.8119,8.9148,8.9633,9.0241,9.0905,9.1118,9.121,9.121,9.121,9.121,9.121,9.121,9.0867,9.0367,0.0,0.0,0.0,0.0,0.0,6.715,6.7627,6.77,6.77,0.0,0.0,0.0,6.77,6.7994,6.8201,6.8201,6.8508,6.8898,6.9376,6.9412,6.9779,7.0587,7.0587,7.0991,7.1784,7.1454,7.1674,7.2496,7.2151,7.2165,7.2496,7.2496,7.2496,7.2496,7.2496,7.2496,7.2496,7.2496,7.2496,7.2496,7.2496,0.0,0.0,7.2496,7.2496,0.0,0.0,0.0,7.2496,7.2496,7.2496,0.0,0.0,0.0,0.0,0.0,0.0,0.0,0.0,0.0,7.2496,7.2496,0.0,0.0,7.4903,7.6151,7.7289,7.7289,7.7289,7.7289,7.7289,7.7289,7.7289,7.7289,7.7289,7.7289,7.7289,7.8075,7.8883,7.9706,8.0498,8.1714,8.3603,8.3797,8.4325,8.557,8.5682,8.5811,8.6077,8.6094,8.6094,8.6094,8.5828,8.5504,8.5121,8.485,8.4548,8.4229,8.5079,8.5526,8.5656,8.6907,8.7902,8.8705,8.9376,9.0084,9.0762,9.1082,9.121,9.121,9.121,9.121,9.1145,9.0867,9.0467,9.0001,0.0,0.0,6.77,6.77,6.77,6.77,6.77,6.77,6.77,0.0,6.7774,6.7884,6.7958,6.8605,6.9045,6.9045,6.9706,7.0146,7.022,7.022,7.0587,7.1417,7.1417,7.1784,7.2496,7.1784,7.1784,7.2496,7.1784,7.1784,7.2496,7.2496,7.2496,7.2496,7.2496,7.2496,7.2496,7.2496,7.2496,7.2496,7.2496,7.2496,0.0,0.0,7.2496,7.2496,7.2496,7.2496,7.2496,7.2496,7.2496,0.0,0.0,0.0,0.0,0.0,7.2496,0.0,0.0,0.0,0.0,0.0,0.0,0.0,7.4903,7.6151,7.7289,7.7289,7.7289,7.7289,7.7289,7.7289,7.7289,7.7289,7.7289,7.7289,7.7289,7.7949,7.8772,7.9559,8.0314,8.1344,8.2894,8.3092,8.362,8.4989,8.5172,8.5485,8.6069,8.6094,8.6094,8.6094,8.5428,8.511,8.511,8.4432,8.408,8.4117,8.5044,8.5484,8.5529,8.6524,8.7411,8.8137,8.8719,8.9401,9.0149,9.0791,9.1118,9.121,9.121,9.121,9.1109,9.0357,9.0035,8.9809,0.0,6.759,6.77,6.77,6.77,6.77,6.77,6.77,6.77,6.77,6.8238,6.8898,6.9559,6.9779,6.9853,6.9853,7.0,7.0367,7.1013,7.105,7.1417,7.2239,7.2275,7.2349,7.2496,7.2349,7.2349,7.2496,7.2349,7.2349,7.2496,7.2496,7.2496,7.2496,7.2496,7.2496,7.2496,7.2496,7.2496,7.2496,7.2496,7.2496,7.2496,7.2496,7.2496,7.2496,7.2496,7.2496,7.2496,7.2496,7.2496,7.2496,0.0,0.0,0.0,0.0,0.0,0.0,0.0,0.0,0.0,0.0,0.0,0.0,7.4903,7.6151,7.7289,7.7289,7.7289,7.7289,7.7289,7.7289,7.7289,7.7289,7.7289,7.7289,7.7289,7.7436,7.7876,7.8736,7.8956,7.9885,8.2015,8.2235,8.302,8.4951,8.5589,8.5962,8.6085,8.6094,8.6094,8.6094,8.5428,8.511,8.511,8.3979,8.3378,8.3415,8.4351,8.4784,8.4858,8.6329,8.7411,8.8107,8.8235,8.899,9.0116,9.0273,9.0656,9.121,9.121,9.121,9.1109,9.0357,8.9763,8.9199,6.77,6.77,6.77,6.77,6.8017,6.8311,6.8311,6.8655,6.8912,6.8912,6.9265,6.9633,7.0073,7.0477,7.0697,7.0697,7.1064,7.1468,7.1857,7.1894,7.2078,7.2496,7.2496,7.2496,7.2496,7.2496,7.2496,7.2496,7.2496,7.2496,7.2496,7.2496,7.2496,7.2496,7.2496,7.2496,7.2496,7.2496,7.2496,7.2496,7.2496,0.0,7.2496,7.2496,7.2496,7.2569,7.2936,7.3377,7.3692,7.3692,7.345,0.0,0.0,7.2826,7.2496,0.0,7.2496,7.2496,0.0,0.0,0.0,7.301,0.0,0.0,0.0,7.6445,7.7289,7.7289,7.7289,7.7289,7.7289,7.7289,7.7289,7.7289,7.7289,7.7289,7.7289,7.7289,7.7619,7.8516,7.8589,7.9201,8.077,8.1281,8.2366,8.4484,8.526,8.5766,8.6077,8.6094,8.5945,8.5589,8.4995,8.4502,8.4141,8.3204,8.2708,8.2708,8.3979,8.4609,8.4646,8.6261,8.7197,8.757,8.796,8.8649,8.9621,8.9621,9.0017,9.0704,9.1073,9.121,9.1082,8.9995,8.9376,8.8963,6.7958,6.7921,6.7994,6.8141,6.8715,6.9119,6.9119,6.9669,7.0146,7.0293,7.0418,7.0533,7.0564,7.1264,7.1659,7.1541,7.2114,7.2496,7.2496,7.2496,7.2496,7.2496,7.2496,7.2496,7.2496,7.2496,7.2496,7.2496,7.2496,7.2496,7.2496,7.2496,7.2496,7.2496,7.2496,7.2496,7.2496,7.2496,7.2496,7.2496,0.0,7.2496,7.2496,7.2496,7.2606,7.2826,7.3634,7.4368,7.4903,7.4903,0.0,7.3927,7.3927,7.3487,0.0,0.0,0.0,0.0,0.0,0.0,0.0,0.0,0.0,7.5322,0.0,0.0,0.0,7.7289,7.7289,7.7289,7.7289,7.7289,0.0,7.7105,0.0,0.0,0.0,7.7215,0.0,7.8259,7.8369,7.8662,7.9486,8.0546,8.1948,8.3803,8.4648,8.5389,8.6069,8.5971,8.5664,8.5131,8.4408,8.3798,8.3392,8.2585,8.2284,8.2407,8.3884,8.4609,8.4646,8.6261,8.7081,8.7248,8.7851,8.856,8.9276,8.9276,8.9704,9.0346,9.0791,9.0895,9.0674,8.9525,8.903,8.8719,6.8898,6.8752,6.9009,6.9706,6.9889,6.9963,6.9963,7.0036,7.0367,7.105,7.1638,7.2055,7.22,7.2798,7.2955,7.2406,0.0,0.0,7.2496,0.0,7.2496,7.2496,7.2496,7.2496,7.2496,7.2496,7.2496,7.2496,7.2496,7.2496,7.2496,7.2496,7.2496,7.2496,7.2496,7.2496,7.2496,7.2496,7.2496,7.2496,7.2496,7.2496,0.0,7.2496,7.2936,7.367,7.4463,7.483,7.4903,0.0,7.483,7.4757,0.0,7.4683,7.461,0.0,0.0,0.0,0.0,0.0,0.0,0.0,7.5359,0.0,0.0,0.0,7.7289,7.7289,0.0,7.7289,0.0,0.0,0.0,0.0,0.0,0.0,7.635,7.6848,7.7362,7.7436,7.7436,7.7803,7.8662,8.0659,8.2196,8.2985,8.4307,8.5389,8.6069,8.5532,8.5182,8.5121,8.3953,8.357,8.408,8.2838,8.2497,8.3097,8.4124,8.4609,8.4646,8.6261,8.7345,8.7969,8.8061,8.8815,8.9979,8.9979,9.0426,9.1017,9.0457,8.9855,8.9327,8.9173,8.8705,8.8107,6.9669,6.9596,6.9706,7.0036,7.0477,7.0807,7.0807,7.1211,7.1615,7.1931,7.2519,7.2918,7.299,0.0,0.0,0.0,0.0,7.3391,0.0,0.0,7.2885,7.251,7.2496,7.2496,7.2496,7.2496,7.2496,7.2496,7.2496,7.2496,7.2496,7.2496,7.2496,7.2496,7.2496,7.2496,7.2496,7.2496,7.2496,0.0,0.0,0.0,0.0,7.3193,7.4001,7.5139,7.5469,7.5894,7.6298,0.0,7.5968,0.0,0.0,0.0,0.0,0.0,0.0,0.0,0.0,0.0,0.0,0.0,0.0,0.0,7.6702,0.0,7.7289,0.0,0.0,0.0,0.0,0.0,0.0,0.0,7.7069,0.0,0.0,0.0,7.7289,0.0,0.0,0.0,7.8516,7.987,8.1184,8.2273,8.3737,8.4839,8.5495,8.5636,8.534,8.4605,8.4067,8.3744,8.3637,8.2693,8.2544,8.3227,8.4136,8.4609,8.4646,8.6261,8.7163,8.7509,8.7892,8.8403,8.895,8.895,8.9122,8.9352,8.9056,8.9225,8.9609,8.8801,8.8353,8.7985,7.0973,7.0703,7.0513,7.0734,7.1248,7.1671,7.1844,7.2365,7.2803,7.297,7.3492,7.3792,7.3651,7.4183,0.0,0.0,7.4293,7.4117,0.0,0.0,7.3379,0.0,0.0,0.0,0.0,7.2496,7.2496,7.2496,7.2496,7.2496,7.2496,7.2496,7.2496,7.2496,7.2496,7.2496,7.2496,7.2753,7.2826,7.2899,7.3707,7.4147,7.4368,7.4368,7.5065,7.613,7.635,7.6812,7.7289,7.7289,7.6922,0.0,7.6423,0.0,0.0,0.0,0.0,0.0,7.5564,0.0,0.0,0.0,0.0,0.0,0.0,0.0,0.0,0.0,0.0,0.0,0.0,0.0,0.0,0.0,0.0,7.7215,0.0,7.7179,0.0,0.0,0.0,0.0,0.0,7.8993,8.0085,8.1545,8.289,8.3939,8.4817,8.5131,8.4861,8.3953,8.3733,8.3405,8.2921,8.2434,8.2544,8.3277,8.417,8.4719,8.4976,8.6371,8.7115,8.7311,8.7883,8.819,8.8344,8.8344,8.8344,8.8367,8.8182,8.8677,8.9413,8.8446,8.7954,8.7709,7.3164,7.2187,7.1527,7.2312,7.2459,7.2664,7.3227,7.3329,7.3565,7.4161,0.0,0.0,0.0,0.0,0.0,0.0,0.0,7.4282,7.4271,0.0,7.4003,0.0,0.0,7.3093,0.0,0.0,7.2496,7.2496,7.2496,7.2496,7.2496,7.2496,7.2496,7.2496,7.2496,7.2496,7.2569,7.334,7.367,7.3707,7.4551,7.5322,7.6019,0.0,7.6056,7.6203,7.6995,0.0,0.0,7.7289,7.7289,0.0,0.0,0.0,0.0,0.0,0.0,0.0,0.0,0.0,0.0,7.7252,0.0,0.0,0.0,0.0,7.7289,0.0,0.0,0.0,0.0,0.0,0.0,0.0,0.0,0.0,0.0,0.0,0.0,0.0,0.0,0.0,0.0,7.8148,7.9237,8.074,8.1592,8.2706,8.4153,8.3651,8.3289,8.3232,8.26,8.2267,8.2235,8.2203,8.2606,8.3394,8.4205,8.5013,8.5783,8.6628,8.7394,8.8061,8.8092,8.846,8.9082,8.9082,8.9082,8.9016,8.8367,8.8137,8.8167,8.8122,8.7667,8.7029,7.2761,7.2409,7.2438,7.3479,7.3675,7.3639,7.3429,7.3404,7.3479,0.0,0.0,0.0,0.0,7.5362,7.5638,0.0,0.0,7.5092,7.4347,7.4649,0.0,0.0,0.0,7.3106,0.0,0.0,0.0,7.2496,7.2496,7.2496,7.2496,7.2496,7.2496,7.2496,7.2496,7.2789,7.3303,0.0,0.0,0.0,0.0,7.6203,7.6885,0.0,0.0,7.6922,7.7215,7.7289,0.0,7.7289,7.7289,7.7289,7.7289,7.7289,7.7289,7.7289,7.7289,0.0,0.0,0.0,7.7289,7.7289,0.0,0.0,0.0,0.0,0.0,0.0,0.0,0.0,0.0,0.0,0.0,0.0,0.0,0.0,0.0,0.0,0.0,0.0,0.0,0.0,0.0,0.0,7.9044,8.0072,8.1279,8.2459,8.3492,8.372,8.3677,8.3218,8.298,8.2868,8.2868,8.2402,8.255,8.3261,8.4191,8.4756,8.5049,8.6407,8.7149,8.7411,8.7898,8.7954,8.7736,8.8249,8.816,8.7709,8.744,8.7361,8.7361,8.7361,8.7214,8.6978,7.2775,7.2816,7.2997,7.3566,7.3676,7.3651,7.3699,7.3711,0.0,0.0,7.4961,0.0,7.5118,0.0,7.5917,0.0,7.5894,7.5678,7.4962,7.5219,0.0,7.3492,7.3792,0.0,0.0,0.0,0.0,0.0,7.2588,7.2496,7.2496,7.2496,7.2496,7.2496,7.2789,7.3193,7.3758,7.4294,7.4845,0.0,0.0,7.6848,0.0,0.0,7.7289,7.7289,0.0,7.7289,7.7289,7.7289,7.7289,7.7289,7.7289,7.7289,7.7289,7.7289,7.7289,7.7289,7.7289,7.7289,0.0,7.7289,7.7289,0.0,7.7289,0.0,0.0,0.0,0.0,0.0,0.0,0.0,0.0,0.0,0.0,0.0,0.0,7.7289,0.0,0.0,0.0,0.0,0.0,7.7803,7.8479,7.9302,8.0532,8.157,0.0,0.0,8.3303,8.2868,8.2853,8.2853,8.2853,8.2439,8.255,8.3283,8.4175,8.4756,8.5086,8.6407,8.6978,8.7012,8.7489,8.7444,8.7029,8.7505,8.7444,8.6978,8.6978,8.6978,8.6978,8.6978,8.6978,8.6978,7.3263,7.3353,7.3172,7.2588,7.2553,0.0,0.0,0.0,7.472,0.0,7.5962,7.5795,7.5227,7.567,7.5787,7.518,7.5716,7.6046,7.6024,7.6077,0.0,0.0,7.5167,7.4885,7.426,0.0,0.0,0.0,0.0,7.2496,7.2496,7.2496,7.2532,7.2606,7.334,7.3744,7.3942,7.5432,7.613,7.624,7.6995,7.7289,7.7289,7.7289,7.7289,7.7289,7.7289,7.7289,7.7289,7.7289,7.7289,7.7289,7.7289,7.7289,7.7289,7.7289,7.7289,7.7289,7.7289,7.7289,7.7289,7.7289,0.0,0.0,0.0,0.0,7.7289,0.0,0.0,0.0,0.0,0.0,0.0,0.0,0.0,0.0,0.0,0.0,0.0,0.0,0.0,0.0,0.0,7.7289,7.7656,7.8516,7.9339,8.0131,0.0,8.1746,8.2186,8.2186,8.2186,8.2186,8.2186,8.2186,8.259,8.3344,8.4205,8.5013,8.5764,8.6628,8.6978,8.6978,8.6978,8.6978,8.6978,8.6978,8.6978,8.6978,8.6978,8.6978,8.6978,8.6978,8.6978,8.6978,7.2714,7.2719,7.2686,0.0,7.325,7.4094,0.0,0.0,0.0,0.0,7.5718,7.5939,7.5795,7.5917,7.5939,7.5795,7.6501,0.0,0.0,0.0,0.0,7.5487,7.5818,7.5287,7.3676,7.3492,0.0,7.2719,0.0,7.2496,7.2496,7.2496,7.2826,7.3377,7.3597,7.4368,7.5506,7.5909,7.646,7.6995,7.7215,7.7289,0.0,0.0,7.7289,7.7289,7.7289,7.7289,7.7289,7.7289,7.7289,7.7289,7.7289,7.7289,7.7289,7.7289,7.7289,7.7289,7.7289,7.7289,7.7289,7.7289,7.7289,7.7289,0.0,0.0,0.0,0.0,0.0,0.0,0.0,0.0,0.0,0.0,0.0,0.0,0.0,0.0,0.0,7.7289,0.0,0.0,7.7289,7.7289,7.7656,7.8516,7.9339,8.0131,8.0975,0.0,0.0,8.2186,8.2186,8.2186,8.2186,8.2186,8.2296,8.2517,8.3948,8.4719,8.4976,8.6354,8.6978,8.6978,8.6978,8.6978,8.6978,8.6978,8.6978,8.6978,8.6978,8.6978,8.6978,8.6978,8.6978,8.6978,7.2496,0.0,0.0,7.3198,0.0,0.0,7.4682,7.4961,0.0,7.5991,7.6379,0.0,7.6728,7.6955,7.6986,7.6766,7.7416,0.0,7.7335,0.0,0.0,7.6874,7.6893,7.6386,7.5261,7.4735,0.0,7.3933,0.0,7.356,7.356,7.356,7.378,7.4258,7.4588,7.5249,7.613,7.6497,7.6885,7.7289,7.7289,0.0,0.0,7.7289,7.7289,7.7289,7.7289,7.7289,7.7289,7.7289,7.7289,7.7289,7.7289,7.7289,7.7289,7.7289,7.7289,7.7289,7.7289,7.7289,7.7289,7.7289,7.7289,7.7289,7.7289,7.7289,7.7289,0.0,0.0,0.0,0.0,0.0,0.0,0.0,0.0,0.0,0.0,0.0,0.0,0.0,7.7289,0.0,7.7289,7.7289,7.7509,7.8002,7.914,8.0,0.0,0.0,0.0,8.2186,8.2186,8.2186,8.2186,8.2186,8.237,8.2737,8.3985,8.4792,8.5159,8.6444,8.6978,8.6978,8.6978,8.6978,8.6978,8.6978,8.6978,8.6978,8.6978,8.6978,8.6978,8.6978,8.6978,8.6978,7.2496,0.0,0.0,0.0,0.0,0.0,0.0,7.5104,0.0,7.7285,0.0,7.7539,7.7773,7.8234,7.8307,7.784,0.0,7.8654,7.8562,7.8631,7.8607,7.8436,7.7919,7.7569,7.7386,7.6351,0.0,0.0,0.0,7.4903,7.4903,7.4903,7.494,7.5087,7.5799,7.6166,7.6313,7.6995,7.7289,7.7289,7.7289,7.7362,7.7472,7.7472,7.7546,7.7619,7.7619,7.7509,7.7289,7.7289,7.7289,7.7289,7.7289,7.7289,7.7289,7.7289,7.7289,7.7289,7.7289,7.7289,7.7289,7.7289,7.7289,7.7289,7.7289,7.7289,7.7289,7.7289,7.7289,7.7289,0.0,0.0,0.0,0.0,0.0,0.0,0.0,0.0,0.0,0.0,0.0,0.0,0.0,0.0,7.7289,7.7289,7.8846,0.0,0.0,0.0,0.0,8.2186,8.2186,8.2186,8.2186,0.0,8.259,8.3418,8.4242,8.5013,8.5837,8.6628,8.6978,8.6978,8.6978,8.6978,8.6978,8.6978,8.6978,8.6978,8.6978,8.6978,8.6978,8.6978,8.6978,8.6978,7.2496,0.0,0.0,0.0,0.0,7.6458,7.7017,7.6986,7.7247,7.8169,7.8292,7.83,7.8346,7.8439,7.8454,7.8384,7.9092,0.0,0.0,0.0,0.0,7.8074,7.7905,7.7284,7.6157,7.5904,7.5581,0.0,0.0,0.0,7.4903,7.4903,7.5234,7.5909,7.6056,7.646,7.7105,7.7252,0.0,7.7289,7.7289,7.7729,7.8369,7.8369,7.8772,7.9376,7.9376,7.8479,7.7289,7.7289,7.7289,7.7289,7.7289,7.7289,7.7289,7.7289,7.7289,7.7289,7.7289,7.7289,7.7289,7.7289,7.7289,7.7289,7.7289,7.7289,7.7289,7.7289,7.7289,7.7289,7.7289,0.0,0.0,0.0,0.0,0.0,0.0,0.0,0.0,0.0,0.0,7.7289,0.0,0.0,0.0,0.0,0.0,0.0,0.0,0.0,0.0,0.0,8.2186,0.0,0.0,0.0,8.259,8.3418,8.4242,8.5013,8.5837,8.6628,8.6978,8.6978,8.6978,8.6978,8.6978,8.6978,8.6978,8.6978,8.6978,8.6978,8.6978,8.6978,8.6978,8.6978,7.367,0.0,0.0,0.0,0.0,0.0,0.0,7.8699,0.0,7.9131,7.9169,7.9361,7.9785,7.9862,7.9862,7.9862,8.0246,8.0352,8.0059,8.0387,8.029,7.9591,7.9229,0.0,7.8063,7.7711,7.7276,7.667,0.0,0.0,7.6151,7.6151,7.6335,7.6702,7.6702,7.6922,7.7289,0.0,0.0,7.7949,7.7949,7.8479,7.9213,7.9213,7.9449,7.9816,7.9816,7.9302,7.8589,7.8589,7.8589,7.8589,7.8589,7.8589,7.8589,7.8589,7.8589,7.8589,7.8589,7.8589,7.8589,7.8589,7.8295,7.8075,7.8516,7.7913,7.7436,7.7876,7.7619,7.7289,7.7289,7.7289,0.0,0.0,0.0,0.0,0.0,0.0,0.0,0.0,0.0,0.0,0.0,0.0,0.0,0.0,0.0,0.0,0.0,0.0,0.0,0.0,0.0,0.0,0.0,0.0,0.0,8.4022,8.4425,8.5233,8.6444,8.6794,8.6978,8.6978,8.6978,8.6978,8.6978,8.6978,8.6978,8.6978,8.6978,8.6978,8.6978,8.6978,8.6978,8.6978,0.0,7.5675,0.0,0.0,7.7888,0.0,8.0145,8.0477,8.0477,8.0123,8.0239,8.0592,8.1285,8.1516,8.1554,8.1362,8.1362,8.1207,8.0926,8.075,8.0655,8.0519,7.9858,7.9513,7.9513,7.9046,7.8563,0.0,0.0,0.0,0.0,7.7289,7.7289,7.7289,0.0,0.0,0.0,0.0,7.806,7.8846,7.8846,7.9339,8.0073,8.0073,8.0147,8.033,8.033,8.033,8.033,8.033,8.0073,7.9816,7.9816,7.9816,7.9816,7.9816,7.9816,7.9816,7.9816,7.9816,7.9816,7.9816,7.9339,7.9029,7.9669,7.8772,7.8023,7.8699,7.8332,7.7839,7.7839,7.7839,0.0,0.0,0.0,0.0,0.0,0.0,0.0,0.0,0.0,0.0,7.7289,0.0,0.0,0.0,0.0,0.0,7.9816,0.0,0.0,0.0,0.0,8.2186,8.2186,0.0,8.2994,0.0,8.4609,8.5453,8.6978,8.6978,8.6978,8.6978,8.6978,8.6978,8.6978,8.6978,8.6978,8.6978,8.6978,8.6978,8.6978,8.6978,8.6978,8.6978,0.0,0.0,0.0,0.0,0.0,0.0,8.1952,8.2747,8.2708,8.117,8.1593,8.2093,8.217,8.2909,8.3062,8.2247,8.217,8.1623,8.0297,7.9663,7.9128,7.8588,7.7932,7.7548,7.7548,7.751,7.7435,0.0,0.0,0.0,0.0,0.0,0.0,0.0,0.0,0.0,0.0,7.8479,7.8956,7.9706,7.9706,8.0167,8.0901,8.0901,8.1342,8.1966,8.1966,8.1966,8.1966,8.1966,8.1028,7.9816,7.9816,7.9816,7.9816,7.9816,7.9816,7.9816,7.9816,7.9816,7.9816,7.9816,7.9743,7.9706,7.9779,7.9669,7.9596,7.9669,7.9633,7.9559,7.9559,7.9559,7.9323,0.0,0.0,0.0,0.0,0.0,0.0,0.0,0.0,0.0,0.0,7.7289,0.0,0.0,7.9302,0.0,0.0,0.0,0.0,8.2186,0.0,8.2186,8.2186,8.2186,8.2994,8.4609,8.4609,8.5453,8.6978,8.6978,8.6978,8.6978,8.6978,8.6978,8.6978,8.6978,8.6978,8.6978,8.6978,8.6978,8.6978,8.6978,8.6978,8.6978,0.0,0.0,0.0,0.0,0.0,0.0,0.0,8.337,8.337,8.2678,8.287,8.3101,8.3101,8.3409,8.3447,8.3101,8.3101,8.2836,8.2228,8.1592,8.1138,8.0904,8.0255,7.9653,7.9167,7.9167,7.8742,0.0,0.0,0.0,0.0,0.0,0.0,0.0,0.0,7.8552,7.9339,7.9339,7.9764,8.0534,8.0534,8.1012,8.1709,8.1709,8.1929,8.2186,8.2186,8.2186,8.2186,8.2186,8.1746,8.1248,8.1248,8.1248,8.1248,8.1248,8.1248,8.1248,8.1248,8.1248,8.1248,8.1248,8.0865,8.0645,8.1138,8.0477,7.9926,8.0424,8.0147,7.9816,7.9816,7.9816,7.9706,0.0,0.0,0.0,0.0,0.0,0.0,0.0,0.0,0.0,0.0,0.0,0.0,0.0,0.0,0.0,0.0,0.0,0.0,8.2186,0.0,8.2186,8.2186,8.27,8.3508,8.4609,8.5086,8.5894,8.6978,8.6978,8.6978,8.6978,8.6978,8.6978,8.6978,8.6978,8.6978,8.6978,8.6978,8.6978,8.6978,8.6978,8.6978,8.6978,8.087,0.0,8.2024,0.0,8.3546,8.3978,8.3978,8.417,8.4324,8.4324,8.4324,8.4255,8.4016,8.4178,8.4255,8.3978,8.3978,8.3775,8.3333,8.2701,8.2233,8.2047,8.1432,0.0,8.0238,8.02,7.9751,7.8721,7.8721,0.0,0.0,0.0,0.0,0.0,7.8956,7.9396,8.0131,8.0131,8.0608,8.1342,8.1342,8.1672,8.2186,8.2186,8.2186,8.2186,8.2186,8.2186,8.2186,8.2186,8.2186,8.2186,8.2186,8.2186,8.2186,8.2186,8.2186,8.2186,8.2186,8.2186,8.2186,8.2186,8.1782,8.1489,8.2076,8.1321,8.0661,8.1232,8.0901,8.0514,8.0514,8.0514,8.044,8.0183,0.0,0.0,0.0,0.0,0.0,0.0,7.9816,7.9816,7.9816,7.9816,0.0,0.0,0.0,0.0,0.0,0.0,0.0,0.0,0.0,0.0,0.0,8.3124,8.3911,8.4976,8.5527,8.6224,8.6978,8.6978,8.6978,8.6978,8.6978,8.6978,8.6978,8.6978,8.6978,8.6978,8.6978,8.6978,8.6978,8.6978,8.6978,8.6978,8.2561,8.2662,8.2865,8.3481,8.4324,8.4893,8.4893,8.5555,8.6055,8.6055,8.6055,8.5786,8.497,8.5593,8.5747,8.4931,8.4893,8.4246,8.271,8.2036,8.1433,0.0,0.0,7.9811,7.9811,7.9811,7.9811,7.9795,0.0,0.0,7.9779,0.0,7.9779,7.9779,7.9779,8.0241,8.1012,8.1012,8.1452,8.2186,8.2186,8.2186,8.2186,8.2186,8.2186,8.2186,8.2186,8.2186,8.2186,8.2186,8.2186,8.2186,8.2186,8.2186,8.2186,8.2186,8.2186,8.2186,8.2186,8.2186,8.2186,8.2186,8.2186,8.2186,8.2186,8.2186,8.215,8.2186,8.2186,8.215,8.215,8.215,8.1893,8.1122,0.0,0.0,0.0,0.0,0.0,0.0,7.9816,7.9816,7.9816,7.9816,0.0,0.0,0.0,0.0,0.0,0.0,0.0,8.2186,8.2186,0.0,8.3381,8.3381,8.4205,8.5783,8.58,8.6224,8.6978,8.6978,8.6978,8.6978,8.6978,8.6978,8.6978,8.6978,8.6978,8.6978,8.6978,8.6978,8.6978,8.6978,8.6978,8.6978,8.4049,8.419,8.4434,8.5184,8.5517,8.5701,8.5701,8.594,8.6094,8.6094,8.6094,8.6017,8.5747,8.594,8.5813,0.0,8.5026,8.4645,0.0,8.3074,8.2621,8.2407,8.18,8.1158,8.0645,8.0608,8.0351,7.9816,0.0,0.0,0.0,7.9816,8.011,8.0608,8.0608,8.1048,8.1819,8.1819,8.1966,8.2186,8.2186,8.2186,8.2186,8.2186,8.2186,8.2186,8.2186,8.2186,8.2186,8.2186,8.2186,8.2186,8.2186,8.2186,8.2186,8.2186,8.2186,8.2186,8.2186,8.2186,8.2186,8.2186,8.2186,8.2186,8.2186,8.2186,8.2186,8.2186,8.2186,8.2186,8.2186,8.2186,8.2113,8.1856,8.1819,0.0,0.0,0.0,0.0,0.0,0.0,8.1432,0.0,8.1432,0.0,0.0,0.0,0.0,0.0,0.0,0.0,0.0,8.2186,0.0,8.3381,8.3931,8.4756,8.58,8.6371,8.6775,8.6978,8.6978,8.6978,8.6978,8.6978,8.6978,8.6978,8.6978,8.6978,8.6978,8.6978,8.6978,8.6978,8.6978,8.6978,8.6978,8.5247,8.5354,8.5517,8.6017,8.6094,8.6094,8.6094,8.6094,8.6094,8.6094,8.6094,8.6094,8.6094,8.6094,0.0,8.5514,8.5495,8.5192,8.4583,8.4166,8.3693,8.3218,8.2793,8.2229,8.1452,0.0,0.0,8.0697,8.0697,8.0697,8.0697,8.0697,8.0975,8.1452,8.1452,8.1746,8.2186,8.2186,8.2186,8.2186,8.2186,8.2186,8.2186,8.2186,8.2186,8.2186,8.2186,8.2186,8.2186,8.2186,8.2186,8.2186,8.2186,8.2186,8.2186,8.2186,8.2186,8.2186,8.2186,8.2186,8.2186,8.2186,8.2186,8.2186,8.2186,8.2186,8.2186,8.2186,8.2186,8.2186,8.2186,8.2186,8.2186,8.2186,8.2186,8.2186,8.2186,0.0,0.0,0.0,0.0,0.0,0.0,8.2186,0.0,0.0,0.0,0.0,0.0,0.0,0.0,8.2186,8.248,0.0,8.3821,8.4646,8.5453,8.6261,8.6775,8.6978,8.6978,8.6978,8.6978,8.6978,8.6978,8.6978,8.6978,8.6978,8.6978,8.6978,8.6978,8.6978,8.6978,8.6978,8.6978,8.6978,8.6094,8.6094,0.0,0.0,8.6094,0.0,8.6094,8.6094,8.6094,8.6094,8.6094,8.6094,8.6094,8.6094,8.6094,8.6094,0.0,0.0,0.0,8.4957,8.4405,8.3189,8.3117,8.2853,8.2203,8.2186,8.2186,8.2186,8.2186,8.2186,8.2186,8.2186,8.2186,8.2186,8.2186,8.2186,8.2186,8.2186,8.2186,8.2186,8.2186,8.2186,8.2186,8.2186,8.2186,8.2186,8.2186,8.2186,8.2186,8.2186,8.2186,8.2186,8.2186,8.2186,8.2186,8.2186,8.2186,8.2186,8.2186,8.2186,8.2186,8.2186,8.2186,8.2186,8.2186,8.2186,8.2186,8.2186,8.2186,8.2186,8.2186,8.2186,8.2186,8.2186,8.2186,8.2186,8.2186,0.0,0.0,0.0,0.0,0.0,0.0,8.2186,8.2186,0.0,0.0,0.0,0.0,0.0,8.226,8.226,8.3014,8.3821,8.4682,8.5416,8.6187,8.6978,8.6978,8.6978,8.6978,8.6978,8.6978,8.6978,8.6978,8.6978,8.6978,8.6978,8.6978,8.6978,8.6978,8.6978,8.6978,8.6978,8.6978,8.6978,0.0,0.0,8.6094,8.6094,8.6094,8.6094,8.6094,8.6094,8.6094,8.6094,8.6094,8.6094,8.6094,8.6094,8.6094,8.6094,8.5645,8.485,8.372,8.364,8.328,8.2465,8.2418,8.2359,8.2203,8.2186,8.2186,8.2186,8.2186,8.2186,8.2186,8.2186,8.2186,8.2186,8.2186,8.2186,8.2186,8.2186,8.2186,8.2186,8.2186,8.2186,8.2186,8.2186,8.2186,8.2186,8.2186,8.2186,8.2186,8.2186,8.2186,8.2186,8.2186,8.2186,8.2186,8.2186,8.2186,8.2186,8.2186,8.2186,8.2186,8.2186,8.2186,8.2186,8.2186,8.2186,8.2186,8.2186,8.2186,8.2186,8.2186,8.2186,8.2186,8.2186,8.2186,8.2186,8.2186,8.2186,0.0,0.0,8.2186,8.2186,8.2186,8.2186,8.2186,0.0,0.0,0.0,0.0,8.3124,8.3124,8.3124,8.3308,8.4078,8.549,8.571,8.6187,8.6978,8.6978,8.6978,8.6978,8.6978,8.6978,8.6978,8.6978,8.6978,8.6978,8.6978,8.6978,8.6978,8.6978,8.6978,8.6978,8.6978,8.6978,8.6978,8.6094,8.6094,8.6094,8.6094,8.644,8.6709,8.6709,8.7017,8.7286,8.7286,8.694,8.6709,8.6709,8.6059,8.5655,8.5655,8.532,8.4817,8.4104,8.3811,8.3373,8.2693,8.2662,8.2513,8.2203,8.2186,8.2186,8.2186,8.2186,8.2186,8.2186,8.2186,8.2186,8.2186,8.2186,8.2186,8.2186,8.2186,8.2186,8.2186,8.2186,8.2186,8.2186,8.2186,8.2186,8.2186,8.2186,8.2186,8.2186,8.2186,8.2186,8.2186,8.2186,8.2186,8.2186,8.2186,8.2186,8.2186,8.2186,8.2186,8.2186,8.2186,8.2186,8.2186,8.2186,8.2186,8.2186,8.2186,8.2186,8.2186,8.2186,8.2186,8.2186,8.2186,8.2186,8.2186,8.2186,8.2186,0.0,8.2186,8.2186,8.2186,8.2186,8.2186,8.2186,8.2186,8.2553,0.0,8.3381,8.3748,8.3948,8.3948,8.4315,8.4903,8.5783,8.6151,8.6591,8.6978,8.6978,8.6978,8.6978,8.6978,8.6978,8.6978,8.6978,8.6978,8.6978,8.6978,8.6978,8.6978,8.6978,8.6978,8.6978,8.6978,8.6978,8.6978,8.6094,8.6209,8.6286,8.6286,8.7017,8.7594,8.7594,8.8218,8.8718,8.8718,8.8064,8.7594,8.7594,8.6317,8.5415,8.5311,8.5105,8.4931,8.4817,8.4349,8.3733,8.3097,8.3053,8.2778,8.2203,8.2186,8.2186,8.2186,8.2186,8.2186,8.2186,8.2186,8.2186,8.2186,8.2186,8.2186,8.2186,8.2186,8.2186,8.2186,8.2186,8.2186,8.2186,8.2186,8.2186,8.2186,8.2186,8.2186,8.2186,8.2186,8.2186,8.2186,8.2186,8.2186,8.2186,8.2186,8.2186,8.2186,8.2186,8.2186,8.2186,8.2186,8.2186,8.2186,8.2186,8.2186,8.2186,8.2186,8.2186,8.2186,8.2186,8.2186,8.2186,8.2186,8.2186,8.2186,8.2186,0.0,8.2186,8.2186,8.2186,8.2186,8.2186,8.2186,8.226,8.237,8.3014,8.3491,8.3748,8.4425,8.4829,8.4976,8.549,8.5874,8.5967,8.6664,8.6978,8.6978,8.6978,8.6978,8.6978,8.6978,8.6978,8.6978,8.6978,8.6978,8.6978,8.6978,8.6978,8.6978,8.6978,8.6978,8.6978,8.6978,8.6978,8.6978,8.6094,8.6709,8.7209,8.7209,8.7902,8.8487,8.8487,8.8603,8.8718,8.8718,8.8564,8.8487,8.8487,8.7734,8.6941,8.6275,8.5147,8.4236,8.3539,8.3405,8.3068,8.2391,8.2359,8.2295,8.2203,8.2186,8.2186,8.2186,8.2186,8.2186,8.2186,8.2186,8.2186,8.2186,8.2186,8.2186,8.2186,8.2186,8.2186,8.2186,8.2186,8.2186,8.2186,8.2186,8.2186,8.2186,8.2186,8.2186,8.2186,8.2186,8.2186,8.2186,8.2186,8.2186,8.2186,8.2186,8.2186,8.2186,8.2186,8.2186,8.2186,8.2186,8.2186,8.2186,8.2186,8.2186,8.2186,8.2186,8.2186,8.2186,8.2186,8.2186,8.2186,8.2186,8.2186,8.2186,8.2186,0.0,8.2186,8.2186,8.2186,8.2186,8.2186,8.2186,8.248,8.3161,8.3344,8.3968,8.5343,8.5527,8.593,8.6628,8.6077,8.6114,8.6811,8.6958,8.6978,8.6978,8.6978,8.6978,8.6978,8.6978,8.6978,8.6978,8.6978,8.6978,8.6978,8.6978,8.6978,8.6978,8.6978,8.6978,8.6978,8.6978,8.6978,8.6978,8.6786,8.7517,8.8094,8.8094,8.8786,8.9363,8.9363,8.9748,9.0056,9.0056,8.9332,8.8806,8.8806,8.7444,8.6378,8.6014,8.5067,8.4347,8.3977,8.3143,8.2528,8.2203,8.2186,8.2186,8.2186,8.2186,8.2186,8.2186,8.2186,8.2186,8.2186,8.2186,8.2186,8.2186,8.2186,8.2186,8.2186,8.2186,8.2186,8.2186,8.2186,8.2186,8.2186,8.2186,8.2186,8.2186,8.2186,8.2186,8.2186,8.2186,8.2186,8.2186,8.2186,8.2186,8.2186,8.2186,8.2186,8.2186,8.2186,8.2186,8.2186,8.2186,8.2186,8.2186,8.2186,8.2186,8.2186,8.2186,8.2186,8.2186,8.2186,8.2186,8.2186,8.2186,8.2186,0.0,0.0,8.2186,8.2186,8.2186,8.2186,8.2186,8.2186,8.259,8.2994,8.3381,8.4205,8.5013,8.5747,8.6224,8.6628,8.6978,8.6628,8.6628,8.6978,8.6978,8.6978,8.6978,8.6978,8.6978,8.6978,8.6978,8.6978,8.6978,8.6978,8.6978,8.6978,8.6978,8.6978,8.6978,8.6978,8.6978,8.6978,8.6978,8.6978,8.6978,8.7709,8.8402,8.8979,8.8979,8.9671,9.0201,9.0201,9.0787,9.121,9.121,9.003,8.918,8.918,8.7391,8.6103,8.5931,8.5249,8.4792,8.4609,8.3434,8.2663,8.248,8.2296,8.2186,8.2186,8.2186,8.2186,8.2186,8.2186,8.2186,8.2186,8.2186,8.2186,8.2186,8.2186,8.2186,8.2186,8.2186,8.2186,8.2186,8.2186,8.2186,8.2186,8.2186,8.2186,8.2186,8.2186,8.2186,8.2186,8.2186,8.2186,8.2186,8.2186,8.2186,8.2186,8.2186,8.2186,8.2186,8.2186,8.2186,8.2186,8.2186,8.2186,8.2186,8.2186,8.2186,8.2186,8.2186,8.2186,8.2186,8.2186,8.2186,8.2186,8.2186,0.0,0.0,0.0,8.2186,8.2186,8.2186,8.2186,8.226,8.2443,8.3014,8.3564,8.3931,8.5086,8.5874,8.6077,8.6664,8.6978,8.6978,8.6978,8.6978,8.6978,8.6978,8.6978,8.6978,8.6978,8.6978,8.6978,8.6978,8.6978,8.6978,8.6978,8.6978,8.6978,8.6978,8.6978,8.6978,8.6978,8.6978,8.6978,8.6978,8.6978,8.6978,8.8603,8.9248,8.9816,8.9816,9.0509,9.1086,9.1086,9.1171,9.121,9.121,9.05,8.9991,8.9991,8.8759,8.7623,8.687,8.6131,8.538,8.4646,8.4499,8.4095,8.3344,8.259,8.2186,8.2186,8.2186,8.2186,8.2186,8.2186,8.2186,8.2186,8.2186,8.2186,8.2186,8.2186,8.2186,8.2186,8.2186,8.2186,8.2186,8.2186,8.2186,8.2186,8.2186,8.2186,8.2186,8.2186,8.2186,8.2186,8.2186,8.2186,8.2186,8.2186,8.2186,8.2186,8.2186,8.2186,8.2186,8.2186,8.2186,8.2186,8.2186,8.2186,8.2186,8.2186,8.2186,8.2186,8.2186,8.2186,8.2186,8.2186,8.2186,8.2186,8.2186,0.0,0.0,8.2186,8.2186,8.2186,8.2186,8.2186,8.248,8.3234,8.3381,8.4005,8.549,8.571,8.6114,8.6867,8.6978,8.6978,8.6978,8.6978,8.6978,8.6978,8.6978,8.6978,8.6978,8.6978,8.6978,8.6978,8.6978,8.6978,8.6978,8.6978,8.6978,8.6978,8.6978,8.6978,8.6978,8.6978,8.6978,8.6978,8.6978,8.6978,8.6978,8.944,9.0133,9.071,9.071,9.097,9.121,9.121,9.0791,9.0508,9.0508,8.9549,8.8856,8.8856,8.8015,8.728,8.6984,8.6722,8.6407,8.6114,8.6114,8.551,8.4205,8.3838,8.3434,8.2957,8.2957,8.27,8.2186,8.2186,8.2186,8.2186,8.2186,8.2186,8.2186,8.2186,8.2186,8.2186,8.2186,8.2186,8.2186,8.2186,8.2186,8.2186,8.2186,8.2186,8.2186,8.2186,8.2186,8.2186,8.2186,8.2186,8.2186,8.2186,8.2186,8.2186,8.2186,8.2186,8.2186,8.2186,8.2186,8.2186,8.2186,8.2186,8.2186,8.2186,8.2186,8.2186,8.2186,8.2186,8.2186,8.2186,8.2186,8.2186,8.2186,0.0,8.2186,8.2186,8.2186,8.2186,8.2186,8.2627,8.3051,8.3381,8.4315,8.5123,8.5764,8.6261,8.6701,8.6978,8.6978,8.6978,8.6978,8.6978,8.6978,8.6978,8.6978,8.6978,8.6978,8.6978,8.6978,8.6978,8.6978,8.6978,8.6978,8.6978,8.6978,8.6978,8.6978,8.6978,8.6978,8.6978,8.6978,8.6978,8.6978,8.6978,8.6978,9.0316,9.0778,9.121,9.121,9.121,9.121,9.121,9.0586,9.0116,9.0116,8.8937,8.8107,8.8107,8.746,8.6978,8.6978,8.6978,8.6978,8.6978,8.6978,8.6407,8.5049,8.4719,8.4352,8.3785,8.3528,8.3124,8.259,8.2333,8.2186,8.2186,8.2186,8.2186,8.2186,8.2186,8.2186,8.2186,8.2186,8.2186,8.2186,8.2186,8.2186,8.2186,8.2186,8.2186,8.2186,8.2186,8.2186,8.2186,8.2186,8.2186,8.2186,8.2186,8.2186,8.2186,8.2186,8.2186,8.2186,8.2186,8.2186,8.2186,8.2186,8.2186,8.2186,8.2186,8.2186,8.2186,8.2186,8.2186,8.2186,8.2186,8.2186,8.2186,8.2186,8.2186,8.2186,8.2186,8.2186,8.2296,8.2553,8.3051,8.3601,8.4095,8.5159,8.5894,8.6151,8.6701,8.6978,8.6978,8.6978,8.6978,8.6978,8.6978,8.6978,8.6978,8.6978,8.6978,8.6978,8.6978,8.6978,8.6978,8.6978,8.6978,8.6978,8.6978,8.6978,8.6978,8.6978,8.6978,8.6978,8.6978,8.6978,8.6978,8.6978,8.6978,8.6978,9.121,9.121,9.121,9.121,9.121,9.1201,9.1201,9.0576,9.0106,9.0095,8.8923,8.8092,8.8092,8.7444,8.6978,8.6978,8.6978,8.6978,8.6978,8.6978,8.6628,8.582,8.5049,8.4609,8.4609,8.3821,8.3418,8.3381,8.259,8.2186,8.2186,8.2186,8.2186,8.2186,8.2186,8.2186,8.2186,8.2186,8.2186,8.2186,8.2186,8.2186,8.2186,8.2186,8.2186,8.2186,8.2186,8.2186,8.2186,8.2186,8.2186,8.2186,8.2186,8.2186,8.2186,8.2186,8.2186,8.2186,8.2186,8.2186,8.2186,8.2186,8.2186,8.2186,8.2186,8.2186,8.2186,8.2186,8.2186,8.2186,8.2186,8.2186,8.2186,8.2186,8.2186,8.2186,8.2186,8.2186,8.2517,8.3308,8.3418,8.4042,8.5637,8.58,8.6151,8.6958,8.6978,8.6978,8.6978,8.6978,8.6978,8.6978,8.6978,8.6978,8.6978,8.6978,8.6978,8.6978,8.6978,8.6978,8.6978,8.6978,8.6978,8.6978,8.6978,8.6978,8.6978,8.6978,8.6978,8.6978,8.6978,8.6978,8.6978,8.6978,8.6978,8.6978,9.121,9.121,9.121,9.121,9.121,9.1017,9.0498,8.9832,8.925,8.8746,8.7892,8.7311,8.7311,8.7112,8.6978,8.6978,8.6978,8.6978,8.6978,8.6978,8.6867,8.6664,8.6407,8.604,8.5453,8.5196,8.4535,8.3381,8.3161,8.2737,8.2186,8.2186,8.2186,8.2186,8.2186,8.2186,8.2186,8.2186,8.2186,8.2186,8.2186,8.2186,8.2186,8.2186,8.2186,8.2186,8.2186,8.2186,8.2186,8.2186,8.2186,8.2186,8.2186,8.2186,8.2186,8.2186,8.2186,8.2186,8.2186,8.2186,8.2186,8.2186,8.2186,8.2186,8.2186,8.2186,8.2186,8.2186,8.2186,8.2186,8.2186,8.2186,8.2186,8.2186,8.2186,8.2406,8.2957,8.3014,8.3344,8.4168,8.4756,8.527,8.5764,8.6297,8.6738,8.6978,8.6978,8.6978,8.6978,8.6978,8.6978,8.6978,8.6978,8.6978,8.6978,8.6978,8.6978,8.6978,8.6978,8.6978,8.6978,8.6978,8.6978,8.6978,8.6978,8.6978,8.6978,8.6978,8.6978,8.6978,8.6978,8.6978,8.6978,8.6978,8.6978,8.6978,9.121,9.121,9.121,9.121,9.121,9.1035,9.0606,8.9716,8.8963,8.8546,8.7614,8.6978,8.6978,8.6978,8.6978,8.6978,8.6978,8.6978,8.6978,8.6978,8.6978,8.6978,8.6978,8.6757,8.6297,8.5967,8.5159,8.3858,8.3564,8.2994,8.2186,8.2186,8.2186,8.2186,8.2186,8.2186,8.2186,8.2186,8.2186,8.2186,8.2186,8.2186,8.2186,8.2186,8.2186,8.2186,8.2186,8.2186,8.2186,8.2186,8.2186,8.2186,8.2186,8.2186,8.2186,8.2186,8.2186,8.2186,8.2186,8.2186,8.2186,8.2186,8.2186,8.2186,8.2186,8.2186,8.2186,8.2186,8.2186,8.2186,8.2186,8.2186,8.2186,8.2186,8.248,8.2847,8.3344,8.3675,8.4168,8.4976,8.549,8.593,8.6224,8.6701,8.6978,8.6978,8.6978,8.6978,8.6978,8.6978,8.6978,8.6978,8.6978,8.6978,8.6978,8.6978,8.6978,8.6978,8.6978,8.6978,8.6978,8.6978,8.6978,8.6978,8.6978,8.6978,8.6978,8.6978,8.6978,8.6978,8.6978,8.6978,8.6978,8.6978,8.6978,8.6978,9.121,9.121,9.121,9.121,9.121,9.1192,9.1109,9.0006,8.9161,8.9043,8.787,8.7081,8.6995,8.6978,8.6978,8.6978,8.6978,8.6978,8.6978,8.6978,8.6978,8.6978,8.6978,8.6978,8.6978,8.6261,8.549,8.4609,8.3858,8.3067,8.2186,8.2186,8.2186,8.2186,8.2186,8.2186,8.2186,8.2186,8.2186,8.2186,8.2186,8.2186,8.2186,8.2186,8.2186,8.2186,8.2186,8.2186,8.2186,8.2186,8.2186,8.2186,8.2186,8.2186,8.2186,8.2186,8.226,8.2296,8.2296,8.237,8.2406,8.2406,8.2406,8.237,8.2223,8.2186,8.2186,8.2186,8.226,8.2296,8.2296,8.237,8.2406,8.2406,8.303,8.3528,8.3601,8.4242,8.5013,8.582,8.5911,8.6187,8.6904,8.6978,8.6978,8.6978,8.6978,8.6978,8.6978,8.6978,8.6978,8.6978,8.6978,8.6978,8.6978,8.6978,8.6978,8.6978,8.6978,8.6978,8.6978,8.6978,8.6978,8.6978,8.6978,8.6978,8.6978,8.6978,8.6978,8.6978,8.6978,8.6978,8.6978,8.6978,8.6978,8.6978,9.121,9.121,9.121,9.121,9.121,9.1008,9.0436,9.0084,8.9525,8.8446,8.8061,8.7651,8.7064,8.6978,8.6978,8.6978,8.6978,8.6978,8.6978,8.6978,8.6978,8.6978,8.6978,8.6978,8.6978,8.6848,8.604,8.4609,8.4425,8.3618,8.2186,8.2186,8.2186,8.2186,8.2186,8.2186,8.2186,8.2186,8.2186,8.2186,8.2186,8.2186,8.2186,8.2186,8.2186,8.2186,8.2186,8.2186,8.2186,8.2186,8.2186,8.2186,8.2186,8.2186,8.2186,8.2186,8.2663,8.3124,8.3124,8.3618,8.4095,8.4095,8.4095,8.3765,8.248,8.2186,8.2186,8.2186,8.27,8.3124,8.3124,8.3654,8.4095,8.4095,8.4242,8.4572,8.5196,8.5416,8.582,8.6628,8.6738,8.6811,8.6978,8.6978,8.6978,8.6978,8.6978,8.6978,8.6978,8.6978,8.6978,8.6978,8.6978,8.6978,8.6978,8.6978,8.6978,8.6978,8.6978,8.6978,8.6978,8.6978,8.6978,8.6978,8.6978,8.6978,8.6978,8.6978,8.6978,8.6978,8.6978,8.6978,8.6978,8.6978,8.6978,8.6978,9.121,9.121,9.121,9.121,9.121,9.1082,9.0665,9.0326,8.9844,8.9161,8.8489,8.7939,8.757,8.7214,8.6978,8.6978,8.6978,8.6978,8.6978,8.6978,8.6978,8.6978,8.6978,8.6978,8.6978,8.6978,8.6224,8.4609,8.4609,8.3765,8.2186,8.2186,8.2186,8.2186,8.2186,8.2186,8.2186,8.2186,8.2186,8.2186,8.2186,8.2186,8.2186,8.2186,8.2186,8.2186,8.2186,8.2186,8.2186,8.2186,8.2186,8.2186,8.2186,8.2443,8.2774,8.2774,8.3361,8.3968,8.3968,8.4278,8.4609,8.4609,8.4609,8.4389,8.3544,8.3324,8.3324,8.3324,8.3691,8.3968,8.3968,8.4315,8.4609,8.4609,8.4903,8.5306,8.5764,8.6114,8.6518,8.6941,8.6978,8.6978,8.6978,8.6978,8.6978,8.6978,8.6978,8.6978,8.6978,8.6978,8.6978,8.6978,8.6978,8.6978,8.6978,8.6978,8.6978,8.6978,8.6978,8.6978,8.6978,8.6978,8.6978,8.6978,8.6978,8.6978,8.6978,8.6978,8.6978,8.6978,8.6978,8.6978,8.6978,8.6978,8.6978,8.6978,9.121,9.121,9.121,9.121,9.121,9.121,9.121,9.0665,9.0192,8.9946,8.8963,8.816,8.796,8.7361,8.6978,8.6978,8.6978,8.6978,8.6978,8.6978,8.6978,8.6978,8.6978,8.6978,8.6978,8.6978,8.6224,8.4609,8.4609,8.3765,8.2186,8.2186,8.2186,8.2186,8.2186,8.2186,8.2186,8.2186,8.2186,8.2186,8.2186,8.2186,8.2186,8.2186,8.2186,8.2186,8.2186,8.2186,8.2186,8.2186,8.2296,8.2406,8.2406,8.2957,8.3601,8.3601,8.4168,8.4792,8.4792,8.4903,8.5013,8.5013,8.5013,8.5013,8.5013,8.4792,8.4609,8.4609,8.4719,8.4792,8.4792,8.4939,8.5013,8.5013,8.5563,8.6004,8.6004,8.6591,8.6978,8.6978,8.6978,8.6978,8.6978,8.6978,8.6978,8.6978,8.6978,8.6978,8.6978,8.6978,8.6978,8.6978,8.6978,8.6978,8.6978,8.6978,8.6978,8.6978,8.6978,8.6978,8.6978,8.6978,8.6978,8.6978,8.6978,8.6978,8.6978,8.6978,8.6978,8.6978,8.6978,8.6978,8.6978,8.6978,8.6978,8.6978,9.121,9.121,9.121,9.121,9.121,9.121,9.121,9.1118,9.0606,8.9414,8.9095,8.848,8.7261,8.7064,8.6978,8.6978,8.6978,8.6978,8.6978,8.6978,8.6978,8.6978,8.6978,8.6978,8.6978,8.6978,8.6224,8.4609,8.4609,8.3765,8.2186,8.2186,8.2186,8.2186,8.2186,8.2186,8.2186,8.2186,8.2186,8.2186,8.2186,8.2186,8.2186,8.2186,8.2186,8.2186,8.2186,8.2186,8.2186,8.2186,8.2663,8.3234,8.3234,8.3801,8.4462,8.4462,8.5013,8.5637,8.5637,8.6151,8.6684,8.6684,8.6684,8.6684,8.6684,8.56,8.4609,8.4609,8.5159,8.5637,8.5637,8.6224,8.6684,8.6684,8.6757,8.6848,8.6848,8.6904,8.6978,8.6978,8.6978,8.6978,8.6978,8.6978,8.6978,8.6978,8.6978,8.6978,8.6978,8.6978,8.6978,8.6978,8.6978,8.6978,8.6978,8.6978,8.6978,8.6978,8.6978,8.6978,8.6978,8.6978,8.6978,8.6978,8.6978,8.6978,8.6978,8.6978,8.6978,8.6978,8.6978,8.6978,8.6978,8.6978,8.6978,8.6978,9.121,9.121,9.121,9.121,9.121,9.121,9.121,9.121,9.098,9.0353,8.9585,8.8869,8.8242,8.7472,8.6978,8.6978,8.6978,8.6978,8.6978,8.6978,8.6978,8.6978,8.6978,8.6978,8.6978,8.6978,8.6444,8.527,8.4829,8.3765,8.2186,8.2186,8.2186,8.2186,8.2186,8.2186,8.2186,8.2186,8.2186,8.2186,8.2186,8.2186,8.2186,8.2186,8.2186,8.226,8.27,8.2884,8.2957,8.3398,8.3765,8.4058,8.4058,8.4609,8.527,8.527,8.5857,8.6481,8.6481,8.6738,8.6978,8.6978,8.6978,8.6978,8.6978,8.6444,8.593,8.593,8.6224,8.6481,8.6481,8.6775,8.6978,8.6978,8.6978,8.6978,8.6978,8.6978,8.6978,8.6978,8.6978,8.6978,8.6978,8.6978,8.6978,8.6978,8.6978,8.6978,8.6978,8.6978,8.6978,8.6978,8.6978,8.6978,8.6978,8.6978,8.6978,8.6978,8.6978,8.6978,8.6978,8.6978,8.6978,8.6978,8.6978,8.6978,8.6978,8.6978,8.6978,8.6978,8.6978,8.6978,8.6978,8.6978,8.6978,8.6978]}]]